[[{"header":{"parameterUnit":"m.s-1","parameterCategory":1,"la1":30.6,"la2":28.766,"lo1":-90.7593,"lo2":-88.6598,"dy":0.0162,"dx":0.0183,"nx":116,"ny":114,"refTime":"2024-05-28T12:00:00:Z","depth":0,"parameterNumber":2,"parameterNumberName":"U-component_of_WINDS"},"data":[0.0,0.0,0.0,0.0,0.0,0.0,0.0,0.0,0.0,0.0,0.0,0.0,0.0,0.0,0.0,0.0,0.0,0.0,0.0,0.0,0.0,0.0,0.0,0.0,0.0,0.0,0.0,0.0,0.0,0.0,0.0,0.0,0.0,0.0,0.0,0.0,0.0,0.0,0.0,0.0,0.0,0.0,0.0,0.0,0.0,0.0,0.0,0.0,0.0,0.0,0.0,0.0,0.0,0.0,0.0,0.0,0.0,0.0,0.0,0.0,0.0,0.0,0.0,0.0,0.0,0.0,0.0,0.0,0.0,0.0,0.0,0.0,0.0,0.0,0.0,0.0,0.0,0.0,0.0,0.0,0.0,0.0,0.0,0.0,0.0,0.0,0.0,0.0,0.0,0.0,0.0,0.0,0.0,0.0,0.0,0.0,0.0,0.0,0.0,0.0,0.0,0.0,0.0,0.0,0.0,0.0,0.0,0.0,0.0,0.0,0.0,0.0,0.0,0.0,0.0,0.0,0.0,0.0,0.0,0.0,0.0,0.0,0.0,0.0,0.0,0.0,0.0,0.0,0.0,0.0,0.0,0.0,0.0,0.0,0.0,0.0,0.0,0.0,0.0,0.0,0.0,0.0,0.0,0.0,0.0,0.0,0.0,0.0,0.0,0.0,0.0,0.0,0.0,0.0,0.0,0.0,0.0,0.0,0.0,0.0,0.0,0.0,0.0,0.0,0.0,0.0,0.0,0.0,0.0,0.0,0.0,0.0,0.0,0.0,0.0,0.0,0.0,0.0,0.0,0.0,0.0,0.0,0.0,0.0,0.0,0.0,0.0,0.0,0.0,0.0,0.0,0.0,0.0,0.0,0.0,0.0,0.0,0.0,0.0,0.0,0.0,0.0,0.0,0.0,0.0,0.0,0.0,0.0,0.0,0.0,0.0,0.0,0.0,0.0,0.0,0.0,0.0,0.0,0.0,0.0,0.0,0.0,0.0,0.0,0.0,0.0,0.0,0.0,0.0,0.0,0.0,0.0,0.0,0.0,0.0,0.0,0.0,0.0,0.0,0.0,0.0,0.0,0.0,0.0,0.0,0.0,0.0,0.0,0.0,0.0,0.0,0.0,0.0,0.0,0.0,0.0,0.0,0.0,0.0,0.0,0.0,0.0,0.0,0.0,0.0,0.0,0.0,0.0,0.0,0.0,0.0,0.0,0.0,0.0,0.0,0.0,0.0,0.0,0.0,0.0,0.0,0.0,0.0,0.0,0.0,0.0,0.0,0.0,0.0,0.0,0.0,0.0,0.0,0.0,0.0,0.0,0.0,0.0,0.0,0.0,0.0,0.0,0.0,0.0,0.0,0.0,0.0,0.0,0.0,0.0,0.0,0.0,0.0,0.0,0.0,0.0,0.0,0.0,0.0,0.0,0.0,0.0,0.0,0.0,0.0,0.0,0.0,0.0,0.0,0.0,0.0,0.0,0.0,0.0,0.0,0.0,0.0,0.0,0.0,0.0,0.0,0.0,0.0,0.0,0.0,0.0,0.0,0.0,0.0,0.0,0.0,0.0,0.0,0.0,0.0,0.0,0.0,0.0,0.0,0.0,0.0,0.0,0.0,0.0,0.0,0.0,0.0,0.0,0.0,0.0,0.0,0.0,0.0,0.0,0.0,0.0,0.0,0.0,0.0,0.0,0.0,0.0,0.0,0.0,0.0,0.0,0.0,0.0,0.0,0.0,0.0,0.0,0.0,0.0,0.0,0.0,0.0,0.0,0.0,0.0,0.0,0.0,0.0,0.0,0.0,0.0,0.0,0.0,0.0,0.0,0.0,0.0,0.0,0.0,0.0,0.0,0.0,0.0,0.0,0.0,0.0,0.0,0.0,0.0,0.0,0.0,0.0,0.0,0.0,0.0,0.0,0.0,0.0,0.0,0.0,0.0,0.0,0.0,0.0,0.0,0.0,0.0,0.0,0.0,0.0,0.0,0.0,0.0,0.0,0.0,0.0,0.0,0.0,0.0,0.0,0.0,0.0,0.0,0.0,0.0,0.0,0.0,0.0,0.0,0.0,0.0,0.0,0.0,0.0,0.0,0.0,0.0,0.0,0.0,0.0,0.0,0.0,0.0,0.0,0.0,0.0,0.0,0.0,0.0,0.0,0.0,0.0,0.0,0.0,0.0,0.0,0.0,0.0,0.0,0.0,0.0,0.0,0.0,0.0,0.0,0.0,0.0,0.0,0.0,0.0,0.0,0.0,0.0,0.0,0.0,0.0,0.0,0.0,0.0,0.0,0.0,0.0,0.0,0.0,0.0,0.0,0.0,0.0,0.0,0.0,0.0,0.0,0.0,0.0,0.0,0.0,0.0,0.0,0.0,0.0,0.0,0.0,0.0,0.0,0.0,0.0,0.0,0.0,0.0,0.0,0.0,0.0,0.0,0.0,0.0,0.0,0.0,0.0,0.0,0.0,0.0,0.0,0.0,0.0,0.0,0.0,0.0,0.0,0.0,0.0,0.0,0.0,0.0,0.0,0.0,0.0,0.0,0.0,0.0,0.0,0.0,0.0,0.0,0.0,0.0,0.0,0.0,0.0,0.0,0.0,0.0,0.0,0.0,0.0,0.0,0.0,0.0,0.0,0.0,0.0,0.0,0.0,0.0,0.0,0.0,0.0,0.0,0.0,0.0,0.0,0.0,0.0,0.0,0.0,0.0,0.0,0.0,0.0,0.0,0.0,0.0,0.0,0.0,0.0,0.0,0.0,0.0,0.0,0.0,0.0,0.0,0.0,0.0,0.0,0.0,0.0,0.0,0.0,0.0,0.0,0.0,0.0,0.0,0.0,0.0,0.0,0.0,0.0,0.0,0.0,0.0,0.0,0.0,0.0,0.0,0.0,0.0,0.0,0.0,0.0,0.0,0.0,0.0,0.0,0.0,0.0,0.0,0.0,0.0,0.0,0.0,0.0,0.0,0.0,0.0,0.0,0.0,0.0,0.0,0.0,0.0,0.0,0.0,0.0,0.0,0.0,0.0,0.0,0.0,0.0,0.0,0.0,0.0,0.0,0.0,0.0,0.0,0.0,0.0,0.0,0.0,0.0,0.0,0.0,0.0,0.0,0.0,0.0,0.0,0.0,0.0,0.0,0.0,0.0,0.0,0.0,0.0,0.0,0.0,0.0,0.0,0.0,0.0,0.0,0.0,0.0,0.0,0.0,0.0,0.0,0.0,0.0,0.0,0.0,0.0,0.0,0.0,0.0,0.0,0.0,0.0,0.0,0.0,0.0,0.0,0.0,0.0,0.0,0.0,0.0,0.0,0.0,0.0,0.0,0.0,0.0,0.0,0.0,0.0,0.0,0.0,0.0,0.0,0.0,0.0,0.0,0.0,0.0,0.0,0.0,0.0,0.0,0.0,0.0,0.0,0.0,0.0,0.0,0.0,0.0,0.0,0.0,0.0,0.0,0.0,0.0,0.0,0.0,0.0,0.0,0.0,0.0,0.0,0.0,0.0,0.0,0.0,0.0,0.0,0.0,0.0,0.0,0.0,0.0,0.0,0.0,0.0,0.0,0.0,0.0,0.0,0.0,0.0,0.0,0.0,0.0,0.0,0.0,0.0,0.0,0.0,0.0,0.0,0.0,0.0,0.0,0.0,0.0,0.0,0.0,0.0,0.0,0.0,0.0,0.0,0.0,0.0,0.0,0.0,0.0,0.0,0.0,0.0,0.0,0.0,0.0,0.0,0.0,0.0,0.0,0.0,0.0,0.0,0.0,0.0,0.0,0.0,0.0,0.0,0.0,0.0,0.0,0.0,0.0,0.0,0.0,0.0,0.0,0.0,0.0,0.0,0.0,0.0,0.0,0.0,0.0,0.0,0.0,0.0,0.0,0.0,0.0,0.0,0.0,0.0,0.0,0.0,0.0,0.0,0.0,0.0,0.0,0.0,0.0,0.0,0.0,0.0,0.0,0.0,0.0,0.0,0.0,0.0,0.0,0.0,0.0,0.0,0.0,0.0,0.0,0.0,0.0,0.0,0.0,0.0,0.0,0.0,0.0,0.0,0.0,0.0,0.0,0.0,0.0,0.0,0.0,0.0,0.0,0.0,0.0,0.0,0.0,0.0,0.0,0.0,0.0,0.0,0.0,0.0,0.0,0.0,0.0,0.0,0.0,0.0,0.0,0.0,0.0,0.0,0.0,0.0,0.0,0.0,0.0,0.0,0.0,0.0,0.0,0.0,0.0,0.0,0.0,0.0,0.0,0.0,0.0,0.0,0.0,0.0,0.0,0.0,0.0,0.0,0.0,0.0,0.0,0.0,0.0,0.0,0.0,0.0,0.0,0.0,0.0,0.0,0.0,0.0,0.0,0.0,0.0,0.0,0.0,0.0,0.0,0.0,0.0,0.0,0.0,0.0,0.0,0.0,0.0,0.0,0.0,0.0,0.0,0.0,0.0,0.0,0.0,0.0,0.0,0.0,0.0,0.0,0.0,0.0,0.0,0.0,0.0,0.0,0.0,0.0,0.0,0.0,0.0,0.0,0.0,0.0,0.0,0.0,0.0,0.0,0.0,0.0,0.0,0.0,0.0,0.0,0.0,0.0,0.0,0.0,0.0,0.0,0.0,0.0,0.0,0.0,0.0,0.0,0.0,0.0,0.0,0.0,0.0,0.0,0.0,0.0,0.0,0.0,0.0,0.0,0.0,0.0,0.0,0.0,0.0,0.0,0.0,0.0,0.0,0.0,0.0,0.0,0.0,0.0,0.0,0.0,0.0,0.0,0.0,0.0,0.0,0.0,0.0,0.0,0.0,0.0,0.0,0.0,0.0,0.0,0.0,0.0,0.0,0.0,0.0,0.0,0.0,0.0,0.0,0.0,0.0,0.0,0.0,0.0,0.0,0.0,0.0,0.0,0.0,0.0,0.0,0.0,0.0,0.0,0.0,0.0,0.0,0.0,0.0,0.0,0.0,0.0,0.0,0.0,0.0,0.0,0.0,0.0,0.0,0.0,0.0,0.0,0.0,0.0,0.0,0.0,0.0,0.0,0.0,0.0,0.0,0.0,0.0,0.0,0.0,0.0,0.0,0.0,0.0,0.0,0.0,0.0,0.0,0.0,0.0,0.0,0.0,0.0,0.0,0.0,0.0,0.0,0.0,0.0,0.0,0.0,0.0,0.0,0.0,0.0,0.0,0.0,0.0,0.0,0.0,0.0,0.0,0.0,0.0,0.0,0.0,0.0,0.0,0.0,0.0,0.0,0.0,0.0,0.0,0.0,0.0,0.0,0.0,0.0,0.0,0.0,0.0,0.0,0.0,0.0,0.0,0.0,0.0,0.0,0.0,0.0,0.0,0.0,0.0,0.0,0.0,0.0,0.0,0.0,0.0,0.0,0.0,0.0,0.0,0.0,0.0,0.0,0.0,0.0,0.0,0.0,0.0,0.0,0.0,0.0,0.0,0.0,0.0,0.0,0.0,0.0,0.0,0.0,0.0,0.0,0.0,0.0,0.0,0.0,0.0,0.0,0.0,0.0,0.0,0.0,0.0,0.0,0.0,0.0,0.0,0.0,0.0,0.0,0.0,0.0,0.0,0.0,0.0,0.0,0.0,0.0,0.0,0.0,0.0,0.0,0.0,0.0,0.0,0.0,0.0,0.0,0.0,0.0,0.0,0.0,0.0,0.0,0.0,0.0,0.0,0.0,0.0,0.0,0.0,0.0,0.0,0.0,0.0,0.0,0.0,0.0,0.0,0.0,0.0,0.0,0.0,0.0,0.0,0.0,0.0,0.0,0.0,0.0,0.0,0.0,0.0,0.0,0.0,0.0,0.0,0.0,0.0,0.0,0.0,0.0,0.0,0.0,0.0,0.0,0.0,0.0,0.0,0.0,0.0,0.0,0.0,0.0,0.0,0.0,0.0,0.0,0.0,0.0,0.0,0.0,0.0,0.0,0.0,0.0,0.0,0.0,0.0,0.0,0.0,0.0,0.0,0.0,0.0,0.0,0.0,0.0,0.0,0.0,0.0,0.0,0.0,0.0,0.0,0.0,0.0,0.0,0.0,0.0,0.0,0.0,0.0,0.0,0.0,0.0,0.0,0.0,0.0,0.0,0.0,0.0,0.0,0.0,-2.7669,0.0,0.0,0.0,0.0,0.0,0.0,0.0,0.0,0.0,0.0,0.0,0.0,0.0,0.0,0.0,0.0,0.0,0.0,0.0,0.0,0.0,0.0,0.0,0.0,-1.3694,-1.4714,-1.4747,-1.478,-1.4837,-1.4882,0.0,0.0,0.0,0.0,0.0,-1.3802,-1.4201,-1.4405,-1.438,-1.6059,-1.75,-1.869,-1.8174,-1.7023,-1.5423,0.0,0.0,0.0,0.0,0.0,0.0,0.0,0.0,0.0,0.0,0.0,0.0,0.0,0.0,0.0,0.0,0.0,0.0,0.0,0.0,0.0,0.0,0.0,0.0,0.0,0.0,0.0,0.0,0.0,0.0,0.0,0.0,0.0,0.0,0.0,0.0,0.0,0.0,0.0,0.0,0.0,0.0,0.0,0.0,0.0,0.0,0.0,0.0,0.0,0.0,0.0,0.0,0.0,0.0,0.0,0.0,0.0,0.0,0.0,0.0,0.0,0.0,0.0,0.0,0.0,0.0,0.0,0.0,0.0,0.0,0.0,-2.9174,0.0,0.0,0.0,0.0,0.0,0.0,0.0,0.0,0.0,0.0,0.0,0.0,0.0,0.0,0.0,0.0,0.0,0.0,0.0,0.0,0.0,-1.2258,-1.2604,-1.4016,-1.5015,-1.5221,-1.5254,-1.5305,-1.5439,-1.5292,0.0,0.0,0.0,-1.5328,-1.5335,-1.6192,-1.6706,-1.6856,-1.8678,-2.0874,-2.3389,-2.3325,-2.1774,-1.904,-1.8466,0.0,0.0,0.0,0.0,0.0,0.0,0.0,0.0,0.0,0.0,0.0,0.0,0.0,0.0,0.0,0.0,0.0,0.0,0.0,0.0,0.0,0.0,0.0,0.0,0.0,0.0,0.0,0.0,0.0,0.0,0.0,0.0,0.0,0.0,0.0,0.0,0.0,0.0,0.0,0.0,0.0,0.0,0.0,0.0,0.0,0.0,0.0,0.0,0.0,0.0,0.0,0.0,0.0,0.0,0.0,0.0,0.0,0.0,0.0,0.0,0.0,0.0,0.0,-3.6299,-3.7045,-3.7708,-3.8364,-3.8654,-3.8467,-3.5008,-3.2816,-3.1608,-3.079,0.0,0.0,0.0,0.0,0.0,0.0,0.0,0.0,0.0,0.0,0.0,0.0,0.0,0.0,0.0,0.0,0.0,0.0,0.0,-1.2748,-1.4207,-1.5236,-1.6155,-1.6993,-1.7065,-1.7089,-1.7163,-1.6527,0.0,0.0,-1.6227,-1.6253,-1.6308,-1.7115,-1.7893,-1.8666,-2.1086,-2.3583,-2.6093,-2.6069,-2.5789,-2.5212,-2.2854,-2.124,-2.0125,0.0,0.0,0.0,0.0,0.0,0.0,0.0,0.0,0.0,0.0,0.0,0.0,0.0,0.0,0.0,0.0,0.0,0.0,0.0,0.0,0.0,0.0,0.0,0.0,0.0,0.0,0.0,0.0,0.0,0.0,0.0,0.0,0.0,0.0,0.0,0.0,0.0,0.0,0.0,0.0,0.0,-2.3081,-2.4063,0.0,0.0,0.0,0.0,0.0,0.0,0.0,0.0,0.0,0.0,0.0,0.0,0.0,-3.4971,-3.7361,-3.7587,-3.8202,-3.9116,-3.9868,-4.0283,-4.0403,-4.1023,-4.1301,-4.125,-4.0602,0.0,-3.5844,-3.5027,0.0,0.0,0.0,0.0,0.0,0.0,0.0,0.0,0.0,0.0,0.0,0.0,0.0,0.0,0.0,0.0,0.0,0.0,0.0,0.0,0.0,-1.6343,-1.7595,-1.8087,-1.8582,-1.8702,-1.8306,-1.7971,-1.7562,-1.7144,-1.7137,-1.7135,-1.718,-1.8484,-2.0269,-2.2549,-2.4644,-2.672,-2.8752,-2.9239,-2.9688,-3.0023,-2.8357,-2.6033,-2.3213,-2.1111,0.0,0.0,0.0,0.0,0.0,0.0,0.0,0.0,0.0,0.0,0.0,0.0,0.0,0.0,0.0,0.0,0.0,0.0,0.0,0.0,0.0,0.0,0.0,0.0,0.0,0.0,0.0,0.0,0.0,0.0,0.0,0.0,0.0,0.0,0.0,0.0,0.0,0.0,0.0,-2.3099,-2.5094,-2.6423,-2.6982,-2.727,0.0,0.0,0.0,0.0,0.0,0.0,0.0,0.0,0.0,-3.5946,-3.7262,-3.8702,-4.0352,-4.084,-4.1773,-4.3124,-4.3415,-4.3787,-4.4224,-4.4412,-4.4509,-4.449,-4.4386,-4.3002,-4.0624,-3.8432,-3.6612,-3.5052,0.0,0.0,0.0,0.0,-3.3522,-3.4748,0.0,0.0,0.0,0.0,0.0,0.0,0.0,0.0,0.0,0.0,0.0,0.0,-1.5685,-1.7622,-1.9086,-1.9656,-2.0282,-2.0341,-1.9604,-1.936,-1.887,-1.8071,-1.8243,-1.8372,-1.8372,-2.0481,-2.3115,-2.6269,-2.7794,-2.941,-3.1058,-3.1698,-3.234,-3.2872,-3.2225,-2.987,-2.6325,-2.4554,-2.2675,-2.0664,0.0,0.0,0.0,0.0,0.0,0.0,0.0,0.0,0.0,0.0,0.0,0.0,0.0,0.0,0.0,0.0,0.0,0.0,0.0,0.0,0.0,0.0,0.0,0.0,0.0,0.0,0.0,0.0,0.0,0.0,0.0,0.0,0.0,0.0,0.0,0.0,0.0,-2.5764,-2.7586,-2.9236,-3.0178,-3.0702,0.0,0.0,0.0,0.0,0.0,0.0,-3.5341,-3.6655,-3.8009,-3.9521,-4.114,-4.2404,-4.3297,-4.3914,-4.4867,-4.6102,-4.6006,-4.6266,-4.6851,-4.6666,-4.6605,-4.6605,-4.6527,-4.5788,-4.4413,-4.1534,-3.964,-3.8358,-3.65,-3.6408,-3.7201,-3.6147,-3.6946,-3.8562,0.0,0.0,0.0,0.0,0.0,0.0,0.0,0.0,0.0,0.0,0.0,-1.5649,-1.8143,-1.9252,-2.0519,-2.2244,-2.2437,-2.2167,0.0,-2.0583,-1.9784,-1.8978,-1.9723,-2.0173,-2.0173,-2.3365,-2.6327,-2.8915,-2.9833,-3.1135,-3.2776,-3.2814,-3.2852,-3.291,-3.2852,-3.1783,-2.9921,-2.8116,-2.585,-2.3347,-2.1563,0.0,0.0,0.0,0.0,0.0,0.0,0.0,0.0,0.0,0.0,0.0,0.0,0.0,0.0,0.0,0.0,0.0,0.0,0.0,0.0,0.0,0.0,0.0,0.0,0.0,0.0,0.0,0.0,0.0,0.0,0.0,0.0,0.0,0.0,0.0,0.0,0.0,0.0,-3.2654,-3.3615,0.0,0.0,0.0,0.0,-3.5448,-3.6925,-3.7879,-3.8003,-4.0422,-4.2221,-4.3196,-4.4857,-4.6174,-4.7105,-4.7044,-4.7078,-4.7214,-4.7024,-4.6941,-4.6978,-4.6716,-4.6605,-4.6605,-4.6527,-4.6438,-4.6234,-4.4488,-4.237,-4.0253,-4.0141,-3.9621,-3.9064,-3.9807,-4.016,-4.0383,0.0,0.0,0.0,0.0,0.0,-0.9882,-1.0384,-1.1168,-1.2184,-1.3624,-1.5767,-1.7736,-1.9271,-2.1218,-2.2685,-2.3386,-2.3948,-2.3936,-2.3165,-2.2867,-2.2327,-2.1477,-2.1735,-2.2408,-2.35,-2.6294,-2.8467,-2.9948,-3.1891,-3.3141,-3.3744,-3.4314,-3.4577,-3.4577,-3.4577,-3.391,-3.2654,-3.0369,-2.853,-2.6867,-2.3979,-2.1884,0.0,0.0,0.0,0.0,0.0,0.0,0.0,0.0,0.0,0.0,0.0,0.0,0.0,0.0,0.0,0.0,0.0,0.0,0.0,0.0,0.0,0.0,0.0,0.0,0.0,0.0,0.0,0.0,0.0,0.0,0.0,0.0,0.0,0.0,0.0,0.0,0.0,-3.5352,-3.6783,0.0,-3.7764,-3.8027,-3.8646,-3.9683,-4.0302,-4.1346,-4.2929,-4.3914,-4.4847,-4.579,-4.6393,-4.7382,-4.8801,-4.8777,-4.9235,-5.0197,-5.0118,-5.0036,-4.9971,-4.9907,-4.9874,-4.9855,-4.9213,-4.8639,-4.8081,-4.688,-4.5565,-4.4265,-4.3763,-4.367,-4.3838,-4.3633,-4.354,-4.3578,0.0,0.0,0.0,0.0,-0.9702,-0.997,-1.0783,-1.1576,-1.2738,-1.4462,-1.6937,-1.9007,-2.0243,-2.2717,-2.4291,-2.4372,-2.5165,-2.5219,-2.4111,-2.4077,-2.3706,-2.2836,-2.3331,-2.4697,-2.6981,-2.8679,-3.0237,-3.1679,-3.366,-3.4776,-3.5064,-3.5949,-3.6346,-3.6346,-3.6346,-3.6026,-3.5334,-3.3051,-3.1213,-2.9589,-2.6689,-2.4936,-2.3748,0.0,0.0,0.0,0.0,0.0,0.0,0.0,0.0,0.0,0.0,0.0,0.0,0.0,0.0,0.0,0.0,0.0,0.0,0.0,0.0,0.0,0.0,0.0,0.0,0.0,0.0,0.0,0.0,0.0,0.0,0.0,0.0,0.0,0.0,0.0,-3.6143,-3.7972,-3.9623,-4.0673,-4.0835,-4.1336,-4.2093,-4.3168,-4.3525,-4.4388,-4.6054,-4.6732,-4.7363,-4.8027,-4.8593,-4.9438,-5.0581,-5.0512,-5.092,-5.1832,-5.1815,-5.1729,-5.1607,-5.1661,-5.1697,-5.1661,-5.0979,-5.0404,-4.9864,-4.9221,-4.863,-4.798,-4.6345,-4.603,-4.6438,-4.59,-4.5695,-4.5695,0.0,0.0,0.0,-0.9702,-0.9702,-0.997,-1.0802,-1.1618,-1.2775,-1.4554,-1.7053,-1.9357,-2.1154,-2.3654,-2.5225,-2.5282,-2.6065,-2.5864,-2.424,-2.4149,-2.3759,-2.2951,-2.4558,-2.7019,-3.0327,-3.0481,-3.1737,-3.4244,-3.5122,-3.5942,-3.675,-3.7603,-3.8007,-3.8007,-3.8007,-3.8007,-3.7885,-3.6195,-3.4014,-3.1536,-2.9702,-2.8436,-2.7246,0.0,0.0,0.0,0.0,0.0,0.0,0.0,0.0,0.0,0.0,0.0,0.0,0.0,0.0,0.0,0.0,0.0,0.0,0.0,0.0,0.0,0.0,0.0,0.0,0.0,0.0,0.0,0.0,0.0,0.0,0.0,0.0,0.0,-3.4607,-3.6646,-3.8792,-4.06,-4.2155,-4.3161,-4.3393,-4.4834,-4.5754,-4.581,-4.6599,-4.7105,-4.7162,-4.8813,-4.984,-4.9974,-5.1533,-5.2433,-5.2517,-5.2326,-5.2146,-5.1971,-5.1905,-5.1821,-5.1681,-5.1736,-5.1772,-5.1791,-5.1612,-5.1541,-5.1523,-5.1434,-5.1398,-5.1082,-4.7868,-4.6605,-4.6605,-4.6587,-4.655,-4.6531,0.0,0.0,-0.9702,-0.9702,-0.9702,-1.0176,-1.1563,-1.2493,-1.3884,-1.6215,-1.8832,-2.0928,-2.2111,-2.4012,-2.5225,-2.5287,-2.5518,-2.5457,-2.5,-2.4962,-2.5159,-2.5543,-2.7769,-2.9442,-3.0385,-3.2218,-3.3814,-3.5135,-3.5962,-3.6808,-3.7642,-3.7892,-3.8007,-3.8007,-3.8007,-3.7966,-3.7897,-3.7421,-3.6761,-3.5752,-3.222,-3.0569,-2.9954,0.0,0.0,0.0,0.0,0.0,0.0,0.0,0.0,0.0,0.0,0.0,0.0,0.0,0.0,0.0,0.0,0.0,0.0,0.0,0.0,0.0,0.0,0.0,0.0,0.0,0.0,0.0,0.0,0.0,0.0,0.0,0.0,-3.7161,-3.7119,-3.9205,-4.1417,-4.3166,-4.4275,-4.5165,-4.5908,-4.6392,-4.7162,-4.8363,-4.8683,-4.9321,-5.0504,-5.1005,-5.1328,-5.142,-5.1869,-5.2416,-5.3069,-5.3025,-5.3182,-5.3507,-5.3611,-5.3576,-5.3418,-5.3578,-5.3665,-5.3628,-5.2855,-5.2523,-5.2468,-5.1712,-5.1398,-5.1249,-4.9707,-4.9132,-4.9113,-4.8463,-4.7868,-4.7293,0.0,-0.9661,-0.9702,-0.9702,-0.9702,-1.0249,-1.1856,-1.2839,-1.4318,-1.6872,-1.9539,-2.1563,-2.2509,-2.4473,-2.563,-2.5325,-2.562,-2.5692,-2.5327,-2.5635,-2.6558,-2.8115,-2.9615,-3.0904,-3.1968,-3.3795,-3.5161,-3.6,-3.7199,-3.8046,-3.8546,-3.8892,-3.9046,-3.9046,-3.9046,-3.9023,-3.8957,-3.8577,-3.8375,-3.8106,-3.5242,-3.3627,-3.2672,-3.0144,-2.9136,-2.8894,-2.7513,-2.6237,-2.509,-2.4515,0.0,0.0,0.0,0.0,0.0,0.0,0.0,0.0,0.0,0.0,0.0,0.0,0.0,0.0,0.0,0.0,0.0,0.0,0.0,0.0,0.0,0.0,0.0,0.0,-3.8208,-4.002,-4.0694,-4.1996,-4.3414,-4.4782,-4.5937,-4.6986,-4.7954,-4.8333,-4.9049,-5.041,-5.0504,-5.0917,-5.1855,-5.2263,-5.2519,-5.258,-5.2934,-5.3352,-5.3809,-5.3776,-5.387,-5.4055,-5.4217,-5.4199,-5.4055,-5.4217,-5.4269,-5.4232,-5.3623,-5.3346,-5.3309,-5.2679,-5.2419,0.0,0.0,0.0,0.0,0.0,-4.889,-4.8147,0.0,-0.9665,-0.9735,-0.9827,-0.9827,-1.0378,-1.1989,-1.2974,-1.4421,-1.6881,-1.9532,-2.1569,-2.2506,-2.4848,-2.6066,-2.5358,-2.5999,-2.6173,0.0,0.0,-2.7846,-3.0288,-3.0577,-3.1833,-3.4302,-3.5199,-3.6077,-3.6981,-3.8546,-3.9361,-3.9457,-4.0169,-4.0496,-4.0496,-4.0496,-4.0503,-4.0436,-3.9608,-3.924,-3.9159,-3.8207,-3.6833,-3.5095,-3.2791,-3.1828,-3.1577,-3.0707,-2.9394,-2.8049,-2.7785,0.0,0.0,0.0,0.0,0.0,0.0,0.0,0.0,0.0,0.0,0.0,0.0,0.0,0.0,0.0,0.0,0.0,0.0,0.0,0.0,0.0,0.0,0.0,0.0,-4.0722,-4.2844,-4.4421,-4.4758,-4.5119,-4.5904,-4.7251,-4.853,-4.9515,-5.0277,-5.1085,-5.1954,-5.2027,-5.2064,-5.2193,0.0,0.0,0.0,0.0,-5.4875,-5.4738,-5.4689,-5.4515,-5.4261,-5.4353,-5.4353,-5.4261,-5.4241,-5.424,-5.4222,-5.4074,-5.4,-5.4,-5.3851,-5.3813,-5.3664,-5.2122,-5.1472,-5.1305,-5.0525,-4.98,-4.9169,0.0,-0.9698,-0.99,-1.0549,-1.0677,-1.1209,-1.2821,-1.3839,-1.5112,-1.6956,-1.9543,-2.1569,-2.2505,-2.4312,-2.5395,-2.5228,-2.5425,-2.5787,0.0,0.0,-2.8467,-3.0327,-3.1698,-3.3314,-3.5212,-3.6038,-3.7238,-3.8796,-3.913,-3.9631,-4.0265,-4.0439,-4.0496,-4.0496,-4.0496,-4.0468,-4.0405,-4.0224,-4.0114,-3.9995,-3.9107,-3.775,-3.6118,-3.4923,-3.4063,-3.3387,-3.2451,-3.1924,-3.1474,-3.0072,-2.9367,-2.8703,-2.6485,0.0,0.0,0.0,0.0,0.0,0.0,0.0,0.0,0.0,0.0,0.0,0.0,0.0,0.0,0.0,0.0,0.0,0.0,0.0,0.0,-4.0967,-4.2904,-4.4447,-4.5406,-4.6626,-4.7485,-4.7687,-4.8496,-4.937,-5.0223,-5.0964,-5.1789,-5.2715,-5.2789,-5.3104,-5.3883,-5.464,-5.5091,-5.509,-5.5825,-5.6219,-5.6201,-5.6182,-5.6089,-5.5938,0.0,0.0,-5.5919,-5.5343,-5.5062,-5.5025,-5.4317,-5.4,-5.4,-5.3851,-5.3813,-5.3701,-5.2735,-5.1974,-5.1379,-5.1212,-5.1045,-5.0822,-1.0156,-1.0274,-1.0421,-1.0838,-1.1223,-1.1911,-1.3115,-1.4098,-1.5306,-1.6974,-1.916,-2.0907,-2.1844,-2.3114,-2.3902,-2.3897,-2.4725,0.0,0.0,-2.8387,-2.9854,-3.1577,-3.2872,-3.4353,-3.6058,-3.6923,-3.7988,-3.9304,-3.9708,-4.0112,-4.0496,-4.0496,-4.0496,-4.0496,-4.0492,-4.0455,-4.0407,-4.0362,-4.0336,-4.0263,-3.9823,-3.8888,-3.7608,-3.6328,-3.5608,-3.5127,-3.4262,-3.3712,-3.3264,-3.2393,-3.1807,-3.1158,-2.9474,-2.8657,-2.7969,0.0,0.0,0.0,0.0,0.0,0.0,0.0,0.0,0.0,0.0,0.0,0.0,0.0,0.0,-3.5891,0.0,0.0,-4.1487,-4.3127,-4.4783,-4.613,-4.6939,-4.7658,-4.8259,-4.8699,-4.9375,-5.0299,-5.1583,-5.1982,-5.2543,-5.3489,-5.3919,-5.4367,-5.4832,-5.5602,-5.6051,-5.6051,-5.6407,-5.6575,-5.6499,-5.6499,-5.6441,-5.6362,-5.6421,-5.6402,-5.6344,-5.5974,-5.5807,-5.5789,-5.534,-5.4893,-5.4465,-5.3999,-5.3813,-5.3775,-5.3367,-5.2717,-5.1992,-5.1992,-5.1751,-5.1342,-1.067,-1.11,-1.1343,-1.1352,-1.1893,-1.2595,-1.3409,-1.4193,-1.5235,-1.6776,-1.8534,-2.0012,-2.0942,-2.1964,-2.2656,-2.2822,0.0,0.0,0.0,-2.9056,-3.0745,-3.2814,-3.3564,-3.4891,-3.6904,-3.7642,-3.8507,-3.9534,-4.0189,-4.0496,-4.0496,-4.0496,-4.0496,-4.0496,-4.0507,-4.0449,-4.037,-4.0307,-4.0272,-4.0253,-4.0253,-3.9747,-3.8802,-3.7285,-3.6623,-3.634,-3.5384,-3.4623,-3.4036,-3.3724,-3.3144,-3.2428,-3.1623,-3.0874,-3.0005,-2.8434,-2.7434,0.0,0.0,0.0,0.0,0.0,0.0,0.0,0.0,0.0,-3.5647,-3.6065,-3.7854,-3.9629,-4.0589,-4.2541,-4.4247,-4.5059,-4.6388,-4.757,-4.82,-4.8299,-4.8621,-4.941,-5.0118,-5.1075,-5.2505,-5.2789,-5.3236,-5.4035,-5.4838,-5.5286,-5.5305,-5.6257,-5.678,-5.678,-5.6929,-5.6965,-5.6848,-5.6848,-5.6827,-5.6766,-5.6766,-5.6766,-5.6766,-5.6599,-5.6525,-5.6525,-5.6376,-5.5819,-5.4964,-5.4314,-5.3943,-5.3813,-5.3813,-5.3404,-5.2828,-5.2828,-5.2419,-5.1844,0.0,-1.1968,-1.2971,-1.3013,-1.3115,-1.3445,-1.4237,-1.4499,-1.498,-1.6002,-1.7702,-1.9163,-2.0053,-2.1567,-2.2818,-2.3602,0.0,0.0,-2.7647,-2.7969,-2.9521,-3.2756,-3.2987,-3.4545,-3.7777,-3.795,-3.8777,-4.0362,-4.0458,-4.0496,-4.0496,-4.0496,-4.0496,-4.0496,-4.0507,-4.0432,-4.0307,-4.0233,-4.0177,-4.0127,-4.0127,-3.9642,-3.8813,-3.7842,-3.7032,-3.62,-3.4626,-3.4047,-3.3788,-3.2354,-3.1808,-3.1597,-3.079,-3.0469,-3.0194,-2.9223,0.0,-2.8657,-2.8511,-3.0121,-3.1882,-3.2076,-3.3448,-3.5176,0.0,0.0,-3.8003,-4.0137,-4.1326,-4.2439,-4.3969,-4.5098,-4.6055,-4.6795,-4.7674,-4.8272,-4.8309,-4.8756,-4.9382,-5.0185,-5.0923,-5.1431,-5.1635,-5.2865,-5.3777,-5.4,-5.4764,-5.5231,-5.5305,-5.6685,-5.7484,-5.7484,-5.8129,-5.8459,-5.8459,-5.8459,-5.8438,-5.8438,-5.8438,-5.8438,-5.8419,-5.7695,-5.7379,-5.7342,-5.6617,-5.5819,-5.5001,-5.4909,-5.4444,-5.3813,-5.3813,-5.3757,-5.3683,-5.3683,-5.3608,-5.3441,0.0,-1.2751,-1.3362,-1.3908,-1.3998,-1.4114,-1.4457,-1.4515,-1.4883,-1.5822,-1.7088,-1.8203,-1.903,-2.0217,-2.1286,-2.2154,0.0,0.0,-2.6847,-2.8408,-3.0356,-3.2782,-3.3385,-3.4776,-3.7199,-3.7738,-3.8584,-3.9804,-4.0265,-4.0496,-4.0496,-4.0496,-4.05,-4.0487,-4.0422,-4.0325,-4.0233,-4.0119,-4.0068,-4.0008,-3.9483,-3.9105,-3.8641,-3.6758,-3.5837,-3.5445,-3.4306,-3.3646,0.0,0.0,-3.2326,-3.2289,-3.1955,-3.1519,-3.1077,-3.0719,-3.0566,0.0,-3.1678,-3.307,0.0,0.0,-3.7014,-3.8594,-3.9804,-4.0812,-4.1753,-4.2677,-4.349,-4.419,-4.475,-4.5918,-4.6887,0.0,-4.8649,-4.9623,-4.9137,-4.9527,-4.9851,-4.9737,-5.0312,-5.1117,-5.2047,-5.2717,-5.333,-5.3832,-5.5097,-5.5842,-5.5862,-5.7385,-5.8239,-5.8239,-5.8551,-5.8716,-5.8716,-5.8716,-5.8716,-5.8716,-5.8716,-5.8716,-5.8698,-5.8364,-5.8215,-5.8159,-5.736,-5.6803,-5.6395,-5.541,-5.4816,-5.4463,-5.398,-5.3813,-5.3813,-5.3813,-5.3813,-5.3757,0.0,-1.3379,-1.3742,-1.4398,-1.4488,-1.4506,-1.4493,-1.4492,-1.4746,-1.5457,-1.6532,-1.7635,-1.8695,-1.937,-2.0089,-2.0973,-2.2412,0.0,0.0,-2.8236,-3.0349,-3.2115,-3.325,-3.4635,-3.6327,-3.7199,-3.8065,-3.8931,-3.9534,-3.9804,-3.9804,-3.9804,-3.98,-3.9791,-3.9661,-3.9554,-3.9471,-3.9324,-3.9241,-3.9172,-3.8512,-3.8144,-3.7769,-3.5646,-3.4453,-3.3825,-3.3094,-3.2489,0.0,0.0,-3.143,-3.1508,-3.1513,-3.1275,-3.0987,-3.0987,-3.1628,-3.2628,-3.4093,0.0,0.0,-3.8305,-3.9925,-4.144,-4.2241,-4.3366,-4.426,-4.4364,-4.4968,-4.5468,-4.5316,-4.6529,-4.7555,-4.75,-4.9296,-5.0438,-4.9596,-4.9987,-5.0079,-4.9258,-4.957,-5.0488,-5.2104,-5.2475,-5.2847,-5.3441,-5.5243,-5.6302,-5.6302,-5.7843,-5.8716,-5.8716,-5.8716,-5.8716,-5.8716,-5.8716,-5.8716,-5.8716,-5.8716,-5.8716,-5.8716,-5.8716,-5.8716,-5.8679,-5.8085,-5.7713,-5.7416,-5.619,-5.5429,-5.4946,-5.437,-5.3998,-5.3813,-5.3813,-5.3813,-5.3813,0.0,0.0,-1.4393,-1.4483,-1.4495,-1.4507,-1.4506,-1.4492,-1.4526,-1.4631,-1.6088,-1.7733,-1.9391,-1.9596,-1.9952,-2.0835,0.0,-2.3051,-2.4929,-2.6693,-2.8484,-3.0305,-3.2019,-3.3755,-3.55,-3.6327,-3.718,-3.8046,-3.8065,-3.8084,-3.8084,-3.8084,-3.8043,-3.7986,-3.7918,-3.7808,-3.7671,-3.7476,-3.7341,-3.728,-3.7186,-3.6678,-3.5894,-3.502,-3.3251,-3.1113,-3.0381,0.0,0.0,-2.837,-2.7891,-2.7965,-2.8028,-2.8569,0.0,-2.9184,-3.1531,0.0,0.0,0.0,-4.0362,-4.0419,-4.172,-4.3239,-4.4047,-4.4263,-4.4497,-4.5218,-4.584,-4.6259,-4.6257,-4.7359,-4.8261,-4.8187,-4.9502,-5.0212,-4.9323,-4.984,-5.0014,-4.9195,-4.9016,-4.9596,0.0,-5.2141,-5.2605,-5.2624,-5.4909,-5.6302,-5.6302,-5.7843,-5.8716,-5.8716,-5.8716,-5.8716,-5.8716,-5.8716,-5.8716,-5.8716,-5.8716,-5.8716,-5.8716,-5.8716,-5.8716,-5.8716,-5.8679,-5.8234,-5.7509,-5.7453,-5.6469,-5.5001,-5.4983,-5.45,-5.3813,-5.3813,-5.3813,-5.3813,0.0,0.0,0.0,-1.4441,-1.4465,-1.4501,-1.4506,-1.4499,-1.4516,-1.4526,-1.5993,0.0,0.0,0.0,0.0,0.0,0.0,0.0,-2.383,-2.5106,-2.7096,-2.999,-3.0755,-3.1921,-3.3674,-3.4539,-3.5398,-3.6269,-3.6807,-3.7379,-3.7932,-3.7928,-3.7924,-3.7901,-3.7785,-3.7651,-3.7528,-3.7273,-3.7118,-3.6963,-3.5729,-3.507,-3.4574,-3.2115,-3.0713,-2.9805,0.0,0.0,0.0,-2.7848,-2.7713,-2.7744,-2.7813,0.0,0.0,-3.1121,-3.3256,-3.5507,0.0,0.0,-4.092,-4.2613,-4.3451,-4.4124,-4.4979,-4.5127,-4.5141,-4.5245,-4.5385,-4.5432,-4.5205,-4.5951,-4.6711,-4.7139,-4.9019,-5.0333,-5.0038,-5.0642,-5.0796,-4.9996,-4.9779,0.0,0.0,0.0,0.0,-5.4073,-5.5503,-5.6525,-5.7082,-5.8122,-5.8716,-5.8716,-5.8716,-5.8716,-5.8716,-5.8716,-5.8716,-5.8716,-5.8716,-5.8716,-5.8716,-5.8716,-5.8716,-5.8716,-5.8716,-5.8549,-5.8252,-5.7732,-5.7175,-5.6562,-5.5447,-5.4834,-5.4537,-5.3998,-5.3813,-5.3813,0.0,0.0,0.0,0.0,0.0,0.0,0.0,0.0,0.0,0.0,0.0,0.0,0.0,0.0,0.0,0.0,0.0,0.0,0.0,0.0,-2.5815,-2.8081,-2.912,-3.0209,-3.1374,-3.251,-3.3386,-3.3975,-3.478,-3.5458,-3.6017,-3.6021,-3.6024,-3.5993,-3.5885,-3.5769,-3.5637,-3.5391,-3.5225,-3.504,-3.3824,-3.3157,-3.2641,-3.0243,-2.901,0.0,0.0,0.0,-2.6491,-2.6682,-2.6963,0.0,0.0,0.0,0.0,-3.2987,-3.5045,-3.6892,-3.913,-4.0766,-4.2247,-4.3893,-4.4528,-4.4893,-4.5433,-4.5282,-4.4978,-4.4772,-4.4402,-4.4028,-4.3755,-4.4501,-4.5387,-4.6122,-4.8292,-4.9955,-5.0253,-5.0983,-5.1265,-5.0762,-5.0616,-5.0692,0.0,0.0,0.0,-5.4035,-5.5484,-5.6525,-5.7045,-5.8122,-5.8716,-5.8716,-5.8716,-5.8716,-5.8716,-5.8716,-5.8716,-5.8716,-5.8716,-5.8716,-5.8716,-5.8716,-5.8716,-5.8716,-5.8716,-5.8716,-5.8661,-5.8141,-5.7769,-5.736,-5.6004,-5.528,-5.4909,-5.411,-5.3813,-5.3813,0.0,0.0,0.0,0.0,0.0,0.0,0.0,0.0,0.0,0.0,0.0,0.0,0.0,0.0,0.0,0.0,0.0,0.0,0.0,0.0,0.0,-2.487,-2.724,-2.8631,-2.8814,-3.0311,-3.115,-3.1256,-3.2012,-3.2413,-3.2451,-3.252,-3.2531,-3.2465,-3.2393,-3.2293,-3.2157,-3.195,-3.1792,-3.1641,-3.1471,-3.0944,-3.0168,-2.9337,0.0,0.0,0.0,0.0,0.0,0.0,0.0,0.0,0.0,0.0,0.0,-3.4654,-3.6815,-3.8488,-4.0189,-4.2439,-4.4316,-4.4355,-4.4998,-4.5558,-4.5455,-4.4795,-4.4116,-4.3831,-4.2948,-4.2169,0.0,0.0,-4.4311,-4.519,-4.7268,-4.9113,-5.0042,-5.0878,-5.1435,0.0,0.0,0.0,0.0,0.0,0.0,-5.2791,0.0,-5.6339,-5.6413,-5.7881,-5.8716,-5.8716,-5.8716,-5.8716,-5.8716,-5.8716,-5.8716,-5.8716,-5.8716,-5.8716,-5.8716,-5.8716,-5.8716,-5.8716,-5.8716,-5.8716,-5.8716,-5.8716,-5.8252,-5.749,-5.6692,-5.5837,-5.4983,-5.4166,-5.385,-5.3813,0.0,0.0,0.0,0.0,0.0,0.0,0.0,0.0,0.0,0.0,0.0,0.0,0.0,0.0,0.0,0.0,0.0,0.0,0.0,0.0,0.0,0.0,0.0,-2.6938,-2.7625,-2.8077,0.0,0.0,0.0,-2.9948,-3.0584,-3.0552,-3.0552,-3.0587,-3.0516,-3.0411,-3.0274,-3.0127,-2.9991,-2.9806,0.0,-2.8651,-2.8301,0.0,0.0,0.0,0.0,0.0,0.0,0.0,0.0,0.0,0.0,0.0,-3.4615,0.0,0.0,-4.0246,-4.197,-4.3355,-4.4451,-4.5114,-4.5441,-4.5423,-4.4689,-4.4269,-4.3624,-4.2123,-4.1524,-4.1004,0.0,0.0,0.0,-4.4051,-4.5916,0.0,-5.0711,-5.1268,0.0,-5.3051,0.0,-5.3497,-5.4314,-5.4983,0.0,0.0,-5.5949,-5.6822,-5.8029,-5.8494,-5.8716,-5.8716,-5.8716,-5.8716,-5.8716,-5.8716,-5.8716,-5.8716,-5.8716,-5.8716,-5.8716,-5.8716,-5.8716,-5.8716,-5.8716,-5.8716,-5.8716,-5.8716,-5.8586,-5.8308,-5.7509,-5.6692,-5.5874,-5.502,-5.4314,-5.3813,0.0,0.0,0.0,0.0,0.0,0.0,0.0,0.0,0.0,0.0,0.0,0.0,0.0,0.0,0.0,0.0,0.0,0.0,0.0,0.0,0.0,0.0,0.0,-2.513,-2.5993,-2.6401,-2.6848,0.0,0.0,0.0,0.0,-2.8625,-2.8642,-2.8667,-2.86,-2.8511,-2.8409,-2.8301,0.0,0.0,0.0,0.0,0.0,0.0,0.0,0.0,0.0,0.0,0.0,0.0,0.0,-3.1787,-3.4345,-3.5815,-3.7,-3.9065,0.0,-4.1931,-4.3278,-4.4239,-4.4998,-4.5479,-4.5308,-4.4879,-4.4241,-4.3168,-4.1833,-4.0242,-3.9251,0.0,0.0,0.0,0.0,0.0,0.0,0.0,-5.0376,-5.1156,-5.2122,0.0,-5.4333,0.0,-5.5503,-5.6004,-5.645,0.0,-5.684,-5.723,-5.8141,-5.8512,-5.8716,-5.8716,-5.8716,-5.8716,-5.8716,-5.8716,-5.8716,-5.8716,-5.8716,-5.8716,-5.8716,-5.8716,-5.8716,-5.8716,0.0,-5.8716,-5.8716,-5.8716,-5.8716,-5.8624,-5.7806,-5.723,-5.6692,-5.5466,-5.4723,-5.4296,0.0,0.0,0.0,0.0,0.0,0.0,0.0,0.0,0.0,0.0,0.0,0.0,0.0,0.0,0.0,0.0,0.0,0.0,0.0,0.0,0.0,0.0,0.0,-2.3687,-2.4442,0.0,0.0,0.0,0.0,0.0,0.0,0.0,0.0,0.0,0.0,0.0,0.0,0.0,0.0,0.0,0.0,0.0,0.0,0.0,0.0,0.0,0.0,0.0,0.0,0.0,-3.221,-3.386,-3.7259,-3.8481,-3.9123,-4.145,-4.2681,-4.3451,-4.4393,-4.5105,-4.5633,-4.574,-4.5022,-4.4182,-4.3741,-4.1702,-3.9513,-3.8154,0.0,-3.5378,-3.5136,0.0,-3.8395,-4.0866,0.0,-4.629,-4.9633,-5.0859,-5.2345,-5.4871,-5.5169,-5.5559,-5.6525,-5.6617,-5.6915,-5.7621,-5.7658,-5.7658,-5.7658,-5.8326,-5.8716,-5.8716,-5.8716,-5.8716,-5.8716,-5.8716,-5.8716,-5.8716,-5.8716,-5.8716,-5.8716,-5.8716,-5.8716,-5.8716,-5.8716,-5.8716,-5.8716,-5.8716,-5.8716,-5.8642,-5.7936,-5.7602,-5.7323,-5.5874,-5.5206,-5.4909,0.0,0.0,0.0,0.0,0.0,0.0,0.0,0.0,0.0,0.0,-1.9017,-1.915,0.0,0.0,0.0,0.0,0.0,0.0,0.0,0.0,0.0,0.0,0.0,0.0,0.0,0.0,0.0,0.0,0.0,0.0,0.0,0.0,0.0,0.0,0.0,0.0,0.0,0.0,0.0,0.0,0.0,0.0,0.0,0.0,0.0,0.0,0.0,0.0,0.0,0.0,-3.3798,-3.6274,-3.9172,-4.1061,-4.2431,-4.3547,-4.397,-4.4432,-4.6028,-4.6028,-4.5759,-4.6435,-4.538,-4.379,-4.2199,-4.0304,0.0,0.0,0.0,-3.3347,-3.2608,-3.4339,0.0,-3.9138,0.0,0.0,0.0,0.0,-5.2568,0.0,0.0,0.0,0.0,0.0,0.0,0.0,0.0,-5.8494,-5.8494,-5.8624,-5.8716,-5.8716,-5.8716,-5.8716,-5.8716,-5.8716,-5.8716,-5.8716,-5.8716,-5.8716,-5.8716,-5.8716,-5.8716,-5.8716,-5.8716,0.0,-5.8716,-5.8716,-5.8716,-5.8698,-5.8549,-5.8103,-5.7472,-5.7175,-5.619,-5.4983,0.0,0.0,0.0,0.0,0.0,0.0,0.0,-1.7636,-1.8961,-1.9772,-2.0235,-2.0343,-1.9965,-1.9557,-1.9297,0.0,0.0,0.0,0.0,0.0,0.0,0.0,0.0,0.0,0.0,0.0,0.0,0.0,0.0,0.0,0.0,0.0,0.0,0.0,0.0,0.0,0.0,0.0,0.0,0.0,0.0,0.0,0.0,0.0,0.0,0.0,0.0,0.0,0.0,0.0,-3.2693,-3.554,-3.927,-4.1635,-4.3214,-4.4047,-4.4624,-4.5259,-4.6547,-4.6259,-4.5788,-4.657,-4.5103,-4.3082,-4.1588,0.0,0.0,0.0,0.0,-3.1722,-3.1266,0.0,0.0,0.0,0.0,0.0,0.0,0.0,0.0,0.0,0.0,0.0,0.0,0.0,0.0,0.0,0.0,-5.8716,-5.8716,-5.8716,-5.8716,-5.8716,-5.8716,-5.8716,-5.8716,-5.8716,-5.8716,-5.8716,-5.8716,-5.8716,-5.8716,-5.8716,-5.8716,-5.8716,-5.8716,-5.8716,-5.8677,-5.8635,-5.8593,-5.8593,-5.8569,-5.8325,-5.7918,-5.7452,-5.6508,-5.5416,0.0,0.0,0.0,0.0,0.0,0.0,0.0,-1.8302,-1.9722,-2.0533,-2.1198,-2.1416,-2.1023,-2.0287,-1.9822,0.0,0.0,0.0,0.0,0.0,0.0,0.0,0.0,0.0,0.0,0.0,0.0,0.0,0.0,0.0,0.0,0.0,0.0,0.0,0.0,0.0,0.0,0.0,0.0,0.0,0.0,0.0,0.0,0.0,0.0,0.0,0.0,0.0,0.0,0.0,-3.0772,-3.3611,-3.7476,-4.0513,-4.2846,-4.3744,-4.4626,-4.5558,-4.6615,-4.625,-4.5762,-4.6484,-4.4699,-4.238,-4.0907,-3.7999,0.0,0.0,-3.1435,-3.0408,-3.0355,0.0,0.0,0.0,0.0,0.0,0.0,0.0,0.0,0.0,0.0,0.0,0.0,0.0,0.0,0.0,0.0,0.0,-5.8716,-5.8716,-5.8716,-5.8716,-5.8716,-5.8716,-5.8716,-5.8716,-5.8716,-5.8716,-5.8716,-5.8716,-5.8716,-5.8716,-5.8716,-5.8716,-5.8716,-5.8677,-5.8656,-5.8532,-5.8489,-5.8486,-5.8437,-5.8393,-5.8319,-5.7636,-5.6857,-5.6027,0.0,0.0,0.0,0.0,0.0,0.0,0.0,-1.8725,-2.048,-2.1289,-2.1461,-2.177,-2.2433,-2.1899,-2.1504,0.0,0.0,0.0,0.0,0.0,0.0,0.0,0.0,0.0,0.0,0.0,0.0,0.0,0.0,0.0,0.0,0.0,0.0,0.0,0.0,0.0,0.0,0.0,0.0,0.0,0.0,0.0,0.0,0.0,0.0,0.0,0.0,0.0,0.0,0.0,0.0,-3.1278,-3.2693,-3.7051,-4.1819,-4.2772,0.0,0.0,-4.6453,-4.6232,-4.5697,-4.6424,-4.4598,-4.1952,-3.9402,0.0,0.0,-3.1459,-3.0174,-2.9518,-2.9518,-3.0827,0.0,0.0,0.0,0.0,0.0,0.0,0.0,0.0,0.0,0.0,0.0,0.0,0.0,0.0,0.0,0.0,-5.8716,-5.8716,-5.8716,-5.8716,-5.8716,-5.8716,-5.8716,-5.8716,-5.8716,-5.8716,-5.8716,-5.8716,-5.8716,-5.8716,-5.8716,-5.8716,-5.8716,-5.8635,0.0,-5.8511,-5.8465,-5.8415,-5.8393,-5.8393,-5.8393,-5.8301,-5.7728,-5.6857,0.0,0.0,0.0,0.0,0.0,0.0,-1.7451,-1.9493,-2.1143,-2.146,-2.2322,-2.3021,-2.3378,-2.322,-2.2721,-2.1815,0.0,0.0,0.0,0.0,0.0,0.0,0.0,0.0,0.0,0.0,0.0,0.0,0.0,0.0,0.0,0.0,0.0,0.0,0.0,0.0,0.0,0.0,0.0,0.0,0.0,0.0,0.0,0.0,0.0,0.0,0.0,0.0,0.0,0.0,0.0,0.0,-2.9551,-3.2628,0.0,0.0,-4.1866,-4.3781,-4.5515,-4.5717,-4.561,-4.6268,-4.4048,-4.1124,-3.8919,0.0,-3.3071,-3.1049,-2.9943,-2.9355,-2.9396,-3.0326,-3.1608,0.0,-3.5844,-3.8804,0.0,0.0,0.0,0.0,0.0,0.0,0.0,0.0,0.0,0.0,0.0,0.0,-5.8716,-5.8716,-5.8716,-5.8716,-5.8716,-5.8716,-5.8716,-5.8716,-5.8716,-5.8716,-5.8716,-5.8716,-5.8716,-5.8716,-5.8716,-5.8716,-5.8716,-5.8635,0.0,-5.8443,-5.8375,-5.8264,-5.8197,-5.8174,-5.8174,-5.8174,-5.7618,-5.6809,0.0,0.0,0.0,0.0,0.0,-1.79,-1.79,-1.9956,-2.1514,-2.1514,-2.2835,-2.3816,-2.3876,-2.3927,-2.354,-2.2474,-2.2978,0.0,0.0,0.0,0.0,0.0,0.0,0.0,0.0,0.0,0.0,0.0,0.0,0.0,0.0,0.0,0.0,0.0,0.0,0.0,0.0,0.0,0.0,0.0,0.0,0.0,0.0,0.0,0.0,0.0,0.0,0.0,0.0,0.0,0.0,0.0,0.0,0.0,0.0,0.0,-3.9557,-4.2011,-4.3742,-4.4392,-4.4656,-4.5057,-4.2902,-4.0132,0.0,0.0,-3.2455,-3.0572,-2.9712,-2.9312,-2.9365,-2.985,-3.0772,0.0,-3.4506,-3.7113,-4.0401,0.0,0.0,0.0,0.0,0.0,0.0,0.0,0.0,0.0,0.0,0.0,-5.8716,-5.8716,-5.8716,-5.8716,-5.8716,-5.8716,-5.8716,-5.8716,-5.8716,-5.8716,-5.8716,-5.8716,-5.8716,-5.8716,-5.8716,-5.8696,-5.8656,-5.8572,0.0,-5.8375,-5.8264,-5.8129,-5.8042,-5.7997,-5.7997,-5.7997,-5.7648,-5.7042,0.0,0.0,0.0,0.0,0.0,0.0,-1.79,-1.9956,-2.1514,-2.1514,-2.2835,-2.3806,-2.3806,-2.3847,-2.3927,-2.3978,-2.4113,0.0,0.0,0.0,0.0,0.0,0.0,0.0,0.0,0.0,-2.419,-2.419,-2.419,0.0,0.0,0.0,0.0,0.0,0.0,0.0,0.0,0.0,0.0,0.0,0.0,0.0,0.0,0.0,0.0,0.0,0.0,0.0,0.0,0.0,0.0,0.0,0.0,0.0,0.0,0.0,-3.6739,-3.9213,-4.0978,-4.2016,-4.2591,-4.2458,-4.1066,-3.8992,0.0,-3.4255,-3.2284,-2.9739,-2.9251,-2.9302,-2.9302,-2.9355,-2.9935,-3.1552,-3.3157,-3.5367,-3.8655,0.0,0.0,0.0,0.0,0.0,0.0,0.0,0.0,0.0,0.0,0.0,-5.8716,-5.8716,-5.8716,-5.8716,-5.8716,-5.8716,-5.8716,-5.8716,-5.8716,-5.8716,-5.8716,-5.8716,-5.8716,-5.8716,-5.8716,-5.8677,-5.8553,-5.8465,0.0,-5.826,-5.8111,-5.7997,-5.7997,-5.7997,-5.7997,-5.7997,-5.7997,-5.7868,0.0,0.0,0.0,0.0,0.0,0.0,0.0,-1.9829,-2.068,-2.068,-2.2057,-2.3053,-2.3053,-2.3557,-2.3927,-2.3996,-2.4084,0.0,0.0,0.0,0.0,0.0,0.0,0.0,0.0,0.0,-2.4475,-2.5026,-2.5026,-2.5301,-2.5841,0.0,0.0,0.0,0.0,0.0,0.0,0.0,0.0,0.0,0.0,0.0,0.0,0.0,0.0,0.0,0.0,0.0,0.0,0.0,0.0,0.0,0.0,0.0,0.0,0.0,0.0,0.0,-3.8058,-3.9553,-4.0594,-4.0445,-3.8638,-3.6495,-3.5002,-3.2833,-3.0789,-2.9477,-2.9229,-2.9251,-2.9302,-2.9355,-2.9935,-3.1533,-3.315,0.0,0.0,0.0,0.0,0.0,0.0,0.0,0.0,0.0,0.0,0.0,0.0,0.0,-5.8553,-5.8553,-5.8553,-5.8553,-5.8553,-5.8551,-5.8502,-5.8483,-5.8483,-5.8483,-5.8483,-5.8483,-5.8483,-5.8483,-5.8483,0.0,0.0,0.0,0.0,-5.8219,-5.8129,-5.7997,-5.7997,-5.7997,-5.7997,-5.7997,-5.7997,-5.7886,0.0,0.0,0.0,0.0,0.0,0.0,0.0,-1.9775,-2.03,-2.03,-2.1703,-2.2699,-2.2699,-2.3391,-2.3896,-2.3996,-2.4044,0.0,0.0,0.0,0.0,0.0,0.0,0.0,-2.419,-2.419,-2.4585,-2.5393,-2.5393,-2.5815,-2.6583,-2.608,-2.5686,0.0,0.0,0.0,0.0,0.0,0.0,0.0,0.0,0.0,0.0,0.0,0.0,0.0,0.0,0.0,0.0,0.0,0.0,0.0,0.0,0.0,0.0,0.0,-2.8829,0.0,0.0,-3.6427,-3.7681,-3.7573,-3.608,-3.4375,-3.3395,-3.1696,-3.0077,-2.9296,-2.9134,-2.9186,-2.9218,-2.9532,-3.0194,-3.151,-3.3369,0.0,0.0,0.0,0.0,0.0,0.0,0.0,0.0,0.0,0.0,0.0,0.0,0.0,-5.8511,-5.8486,-5.8443,-5.84,-5.8443,-5.844,-5.8393,-5.8393,-5.8393,-5.8393,-5.8393,-5.8393,-5.8393,-5.8393,-5.8393,0.0,0.0,0.0,0.0,-5.8152,-5.8084,-5.7997,-5.7997,-5.7997,-5.7997,-5.7997,-5.7997,-5.7886,0.0,0.0,0.0,0.0,0.0,0.0,0.0,-1.9721,-2.021,-2.021,-2.1622,-2.2608,-2.2608,-2.3324,-2.3865,-2.3996,0.0,0.0,0.0,0.0,0.0,0.0,0.0,0.0,-2.419,-2.4263,-2.4677,-2.5485,-2.554,-2.6017,-2.684,-2.6741,-2.6282,-2.5558,-2.5448,0.0,0.0,0.0,0.0,0.0,0.0,0.0,0.0,0.0,0.0,0.0,0.0,0.0,0.0,0.0,0.0,0.0,0.0,0.0,0.0,0.0,0.0,0.0,0.0,0.0,0.0,0.0,-3.3442,-3.255,-3.1623,-3.0783,0.0,-2.9163,-2.9044,-2.9126,-2.9163,-2.9853,-3.0699,-3.1634,-3.3821,0.0,0.0,0.0,0.0,0.0,0.0,0.0,0.0,0.0,0.0,0.0,0.0,0.0,-5.8489,-5.8418,-5.8327,-5.8197,-5.8305,-5.8371,-5.8371,-5.8371,-5.8371,-5.8371,-5.8371,-5.8371,-5.8371,-5.8371,-5.8371,0.0,0.0,0.0,0.0,-5.8042,-5.7997,-5.7997,-5.7997,-5.7997,-5.7997,-5.7997,-5.7997,-5.7886,0.0,0.0,0.0,0.0,0.0,0.0,0.0,0.0,0.0,0.0,-2.0789,-2.1776,-2.1776,-2.3039,-2.3907,0.0,0.0,0.0,0.0,0.0,0.0,0.0,0.0,0.0,-2.419,-2.4805,-2.5521,-2.6319,-2.6924,-2.7952,-2.9329,-2.8081,-2.742,-2.7174,-2.5944,-2.4952,0.0,0.0,0.0,0.0,0.0,0.0,0.0,0.0,0.0,0.0,0.0,0.0,0.0,0.0,0.0,0.0,0.0,0.0,0.0,0.0,-2.5082,-2.6021,-2.7464,0.0,-3.1469,-3.2027,-3.1548,-3.0855,0.0,-2.9885,-2.9248,-2.9042,0.0,0.0,-2.9899,-3.0222,-3.1073,0.0,0.0,0.0,0.0,0.0,0.0,0.0,0.0,0.0,0.0,0.0,0.0,0.0,0.0,-5.8375,-5.8286,-5.8264,-5.8197,-5.8042,-5.8084,-5.8088,-5.8088,-5.8088,-5.8088,-5.8088,-5.8088,-5.8088,-5.8088,-5.8088,-5.8088,0.0,0.0,0.0,-5.8042,-5.802,-5.7997,-5.7997,-5.7997,-5.7997,-5.7997,-5.7997,-5.7997,-5.7886,0.0,0.0,0.0,0.0,0.0,0.0,0.0,0.0,0.0,0.0,0.0,-2.1514,-2.1514,-2.294,0.0,0.0,0.0,0.0,0.0,0.0,0.0,0.0,0.0,-2.419,-2.419,-2.4989,-2.5797,-2.6602,-2.7787,-2.8998,-3.0173,-2.931,-2.8705,-2.8264,-2.6274,-2.4952,0.0,0.0,0.0,0.0,0.0,0.0,0.0,0.0,0.0,0.0,0.0,-2.419,0.0,-2.419,-2.419,-2.419,0.0,0.0,0.0,0.0,-2.4511,-2.5117,-2.6282,-2.7878,-2.9395,-3.0171,-3.003,-2.9676,-2.9659,0.0,0.0,0.0,0.0,0.0,0.0,0.0,0.0,0.0,0.0,0.0,0.0,0.0,0.0,0.0,0.0,0.0,0.0,0.0,0.0,0.0,0.0,-5.8282,-5.8197,-5.8152,-5.8065,-5.7997,-5.7997,-5.7997,-5.7997,-5.7997,-5.7997,-5.7997,-5.7997,-5.7997,-5.7997,-5.7997,-5.7997,0.0,0.0,0.0,-5.7997,-5.7997,-5.7997,-5.7997,-5.7997,-5.7997,-5.7997,-5.7997,-5.7776,-5.7336,0.0,0.0,0.0,0.0,0.0,0.0,0.0,0.0,0.0,0.0,0.0,0.0,0.0,0.0,0.0,0.0,0.0,0.0,0.0,0.0,0.0,0.0,-2.419,-2.419,-2.419,-2.5117,-2.598,-2.6778,-2.84,-2.9647,-3.0558,-3.0448,-2.9824,-2.8712,-2.6421,-2.4952,0.0,0.0,0.0,0.0,0.0,0.0,0.0,0.0,0.0,0.0,0.0,0.0,0.0,-2.419,-2.419,-2.419,-2.419,0.0,0.0,0.0,0.0,0.0,-2.6172,-2.7181,-2.8026,-2.895,-2.928,-2.9372,-2.9372,0.0,0.0,0.0,0.0,0.0,0.0,0.0,0.0,0.0,0.0,0.0,0.0,0.0,0.0,0.0,0.0,0.0,0.0,0.0,0.0,0.0,0.0,-5.8174,-5.8174,-5.8065,-5.7997,-5.7997,-5.7997,-5.7997,-5.7997,-5.7997,-5.7997,-5.7997,-5.7997,-5.7997,-5.7997,-5.7997,-5.7997,-5.7997,0.0,0.0,-5.7997,-5.7997,-5.7997,-5.7997,-5.7997,-5.7997,-5.7997,-5.7997,-5.7483,-5.6675,0.0,0.0,0.0,0.0,0.0,0.0,0.0,0.0,0.0,0.0,0.0,0.0,0.0,0.0,0.0,0.0,0.0,0.0,0.0,0.0,0.0,-2.419,-2.419,-2.419,-2.419,-2.5658,-2.6814,-2.7622,-2.9237,-3.0779,-3.2216,-3.1531,-3.0056,-2.7915,-2.6164,-2.4952,-2.419,0.0,0.0,0.0,0.0,0.0,0.0,0.0,0.0,0.0,0.0,0.0,0.0,-2.419,-2.419,-2.419,-2.419,0.0,0.0,0.0,0.0,0.0,-2.6172,-2.7181,-2.8165,-2.9641,-3.0522,-3.1017,-3.1017,0.0,0.0,0.0,0.0,0.0,0.0,0.0,0.0,0.0,0.0,0.0,0.0,0.0,0.0,0.0,0.0,0.0,0.0,0.0,0.0,0.0,0.0,-5.802,-5.802,-5.802,-5.7997,-5.7997,-5.7997,-5.7997,-5.7997,-5.7997,-5.7997,-5.7997,-5.7997,-5.7997,-5.7997,-5.7997,-5.7997,-5.7997,0.0,-5.7997,-5.7997,-5.7997,-5.7997,-5.7997,-5.7997,-5.7997,-5.7997,-5.7997,-5.7483,-5.6602,0.0,0.0,0.0,0.0,0.0,0.0,0.0,0.0,0.0,0.0,0.0,0.0,0.0,0.0,0.0,0.0,0.0,0.0,0.0,0.0,-2.419,-2.419,-2.4622,-2.4842,-2.4842,-2.6429,-2.764,-2.8448,-3.0491,-3.1867,-3.2583,-3.177,-3.0111,-2.7761,-2.6557,-2.5364,-2.419,-2.419,0.0,0.0,0.0,0.0,0.0,0.0,0.0,0.0,0.0,0.0,0.0,0.0,-2.419,-2.419,-2.419,0.0,0.0,0.0,0.0,0.0,-2.6172,-2.7501,-2.8833,-3.0448,-3.1458,-3.2045,-3.2045,0.0,0.0,0.0,0.0,0.0,0.0,0.0,0.0,0.0,0.0,0.0,0.0,0.0,0.0,0.0,0.0,0.0,0.0,0.0,0.0,0.0,0.0,0.0,-5.6693,-5.6693,-5.6693,-5.6693,-5.6693,-5.6693,-5.6693,-5.6693,-5.7134,-5.7997,-5.7997,-5.7997,-5.7997,-5.7997,-5.7997,-5.7997,0.0,-5.7997,-5.7997,-5.7997,-5.7997,-5.7997,-5.7997,-5.7997,-5.7886,-5.7005,-5.618,-5.5335,0.0,0.0,0.0,0.0,0.0,0.0,0.0,0.0,0.0,0.0,0.0,0.0,0.0,0.0,0.0,0.0,0.0,0.0,0.0,-2.419,-2.419,-2.419,-2.497,-2.5393,-2.5393,-2.7174,-2.8484,-2.928,-3.15,-3.2601,-3.2583,-3.177,-3.0111,-2.775,-2.6961,-2.5713,-2.419,-2.419,-2.419,0.0,0.0,0.0,0.0,0.0,0.0,0.0,0.0,0.0,0.0,0.0,0.0,0.0,0.0,0.0,0.0,-2.419,-2.419,-2.4557,-2.6172,-2.7629,-2.9152,-3.0944,0.0,-3.3225,-3.3408,-3.4082,0.0,0.0,0.0,0.0,0.0,0.0,0.0,0.0,0.0,0.0,0.0,0.0,0.0,0.0,0.0,0.0,0.0,0.0,0.0,0.0,0.0,0.0,-5.5614,-5.5614,-5.5614,-5.5614,-5.5614,-5.5614,-5.5614,-5.5614,-5.6216,-5.7428,-5.7629,-5.7721,-5.7721,-5.7905,-5.7997,-5.7997,-5.7997,-5.7886,-5.7721,-5.7721,-5.7611,-5.7428,-5.7428,-5.7428,-5.7262,-5.5831,-5.4932,-5.4289,0.0,0.0,0.0,0.0,0.0,0.0,0.0,0.0,0.0,0.0,0.0,0.0,0.0,0.0,0.0,0.0,0.0,0.0,0.0,-2.419,-2.419,-2.419,-2.497,-2.5393,-2.5393,-2.7714,-2.9317,-3.0118,-3.1775,-3.2601,-3.2583,-3.177,-3.0111,-2.775,-2.6961,-2.5713,-2.419,-2.419,-2.419,-2.419,0.0,0.0,0.0,0.0,0.0,0.0,0.0,0.0,0.0,0.0,0.0,0.0,0.0,0.0,-2.419,-2.419,-2.419,-2.4557,-2.6172,-2.7236,-2.8448,-3.0809,-3.3128,0.0,-3.5844,-3.6666,0.0,-3.8193,0.0,0.0,0.0,0.0,0.0,0.0,0.0,0.0,0.0,0.0,0.0,0.0,0.0,0.0,0.0,0.0,0.0,0.0,0.0,0.0,-5.5614,-5.5614,-5.5614,-5.5614,-5.5614,-5.5614,-5.5614,-5.5614,-5.5669,-5.5776,-5.6528,-5.6895,-5.6914,-5.7666,-5.7997,-5.7997,-5.7997,-5.7574,-5.6895,-5.6895,-5.6455,-5.578,-5.578,-5.578,-5.5666,-5.4803,-5.4454,-5.4289,0.0,0.0,0.0,0.0,0.0,0.0,0.0,0.0,0.0,0.0,0.0,0.0,0.0,0.0,0.0,0.0,0.0,0.0,0.0,-2.4141,-2.4161,-2.419,-2.497,-2.5631,-2.6135,-2.8521,-3.0136,-3.0944,-3.2559,-3.3091,-3.2583,-3.177,-3.0375,-2.8491,-2.717,-2.5988,-2.4915,-2.441,-2.419,-2.419,-2.419,0.0,0.0,0.0,0.0,0.0,0.0,0.0,0.0,0.0,-2.419,-2.419,0.0,-2.419,-2.43,-2.4805,-2.4585,-2.4649,-2.6778,-2.7934,-2.9127,-3.1549,-3.4376,0.0,0.0,-3.8432,-3.9974,-4.0781,-4.1185,0.0,0.0,0.0,0.0,0.0,0.0,0.0,0.0,0.0,0.0,0.0,0.0,0.0,0.0,0.0,0.0,0.0,0.0,0.0,-5.4106,-5.4106,-5.4106,-5.4106,-5.4106,-5.4106,-5.4106,-5.4106,-5.4106,-5.4124,-5.5427,-5.6051,-5.6051,-5.6363,-5.651,-5.651,-5.651,-5.6326,-5.6051,-5.6051,-5.5868,-5.5614,-5.5614,-5.528,-5.4821,-5.4509,-5.4087,-5.361,0.0,0.0,0.0,0.0,0.0,0.0,0.0,0.0,0.0,0.0,0.0,0.0,0.0,0.0,0.0,0.0,0.0,0.0,-2.4094,-2.4094,-2.4141,-2.4208,-2.497,-2.5668,-2.6209,-2.8594,-3.0338,-3.1397,-3.2761,-3.3018,-3.2197,-3.1403,-3.0155,-2.8565,-2.7475,-2.6392,-2.5356,-2.4805,-2.4428,-2.419,-2.419,-2.419,0.0,0.0,0.0,0.0,0.0,0.0,0.0,0.0,-2.419,-2.419,0.0,0.0,0.0,-2.5154,-2.5007,-2.5117,-2.753,-2.8767,-2.9959,-3.2381,0.0,0.0,-3.8465,-4.0304,-4.2084,-4.2892,0.0,0.0,0.0,0.0,0.0,0.0,0.0,0.0,0.0,0.0,0.0,0.0,0.0,0.0,0.0,0.0,0.0,0.0,0.0,0.0,0.0,-5.3185,-5.3185,-5.3185,-5.3185,-5.3185,-5.3185,-5.3185,-5.3185,-5.3203,-5.4326,-5.4968,-5.5225,-5.5464,-5.5614,-5.5614,-5.5614,-5.5467,-5.5207,-5.5207,-5.506,-5.484,-5.484,-5.4509,-5.4014,-5.4014,-5.3683,-5.3185,0.0,0.0,0.0,0.0,0.0,0.0,0.0,0.0,0.0,0.0,0.0,0.0,0.0,0.0,0.0,0.0,0.0,0.0,-2.4084,-2.4094,-2.4141,-2.4208,-2.4952,-2.5393,-2.5393,-2.7769,-2.9776,-3.1397,-3.221,-3.2173,-3.1378,-3.0577,-2.9347,-2.7816,-2.7798,-2.6917,-2.5411,-2.5393,-2.4934,-2.419,-2.419,-2.419,0.0,0.0,0.0,0.0,0.0,0.0,0.0,0.0,-2.419,-2.419,0.0,0.0,0.0,-2.5172,-2.5411,-2.5944,-2.8363,-2.9592,-3.0797,0.0,0.0,0.0,0.0,-4.2359,-4.3736,0.0,0.0,0.0,0.0,0.0,0.0,0.0,0.0,0.0,0.0,0.0,0.0,0.0,0.0,0.0,0.0,0.0,0.0,0.0,0.0,0.0,0.0,-5.3185,-5.3185,-5.3185,-5.3185,-5.3185,-5.3185,-5.3185,-5.3185,-5.3185,-5.3185,-5.3628,-5.4418,-5.5207,-5.5596,-5.5596,-5.5596,-5.5115,-5.4399,-5.4399,-5.3922,-5.3185,-5.3185,-5.3185,-5.3185,-5.3185,-5.3185,-5.3185,0.0,0.0,0.0,0.0,0.0,0.0,0.0,0.0,0.0,0.0,0.0,0.0,0.0,0.0,0.0,0.0,0.0,0.0,-2.3886,-2.3927,-2.4006,-2.4113,-2.439,-2.4824,-2.5393,-2.72,-2.9219,-3.1397,-3.1641,-3.1329,-3.0558,-3.032,-2.9641,-2.862,-2.8044,-2.7218,-2.6209,-2.5631,-2.4934,-2.419,-2.419,-2.419,0.0,0.0,0.0,0.0,0.0,0.0,0.0,0.0,0.0,0.0,0.0,0.0,0.0,-2.6007,-2.6245,-2.6778,-2.92,-3.043,0.0,0.0,0.0,0.0,0.0,0.0,0.0,0.0,0.0,0.0,0.0,0.0,0.0,0.0,0.0,0.0,0.0,0.0,0.0,0.0,0.0,0.0,0.0,0.0,0.0,0.0,0.0,0.0,0.0,-5.3185,-5.3185,-5.3185,-5.3185,-5.3185,-5.3185,-5.3185,-5.3185,-5.3185,-5.3185,-5.3314,-5.3573,-5.3812,-5.3922,-5.3922,-5.3922,-5.3794,-5.3573,-5.3573,-5.3427,-5.3185,-5.3185,-5.3185,-5.3185,-5.3185,-5.3185,-5.3185,0.0,0.0,0.0,0.0,0.0,0.0,0.0,0.0,0.0,0.0,-2.3578,0.0,0.0,0.0,0.0,0.0,0.0,0.0,0.0,-2.3847,-2.3966,-2.4094,-2.4161,-2.4585,-2.5374,-2.6347,-2.7725,-2.9494,-2.9818,-2.9879,-2.9721,-2.9402,-2.9163,-2.8987,-2.8491,-2.7658,-2.6576,-2.608,-2.5227,-2.419,-2.419,-2.419,-2.419,0.0,0.0,0.0,0.0,0.0,0.0,0.0,0.0,0.0,0.0,0.0,0.0,-2.6264,-2.6833,-2.7677,-3.0411,0.0,0.0,0.0,0.0,0.0,0.0,0.0,0.0,0.0,0.0,0.0,0.0,0.0,0.0,0.0,0.0,0.0,0.0,0.0,0.0,0.0,0.0,0.0,0.0,0.0,0.0,0.0,0.0,0.0,0.0,-5.3185,-5.3185,-5.3185,-5.3185,-5.3185,-5.3185,-5.3185,-5.3185,-5.3185,-5.3185,-5.3185,-5.3185,-5.3185,-5.3185,-5.3185,-5.3185,-5.3185,-5.3185,-5.3185,-5.3185,-5.3185,-5.3185,-5.3185,-5.3185,-5.3185,-5.3185,-5.3185,0.0,0.0,0.0,0.0,0.0,0.0,0.0,0.0,0.0,0.0,-2.3372,-2.3313,0.0,0.0,0.0,0.0,0.0,0.0,0.0,-2.3847,-2.3937,-2.4084,-2.4161,-2.4548,-2.5264,-2.5283,-2.565,-2.6382,-2.7255,-2.8099,-2.8877,-2.8227,-2.8301,-2.9005,-2.9078,-2.818,-2.6602,-2.6602,-2.5676,-2.419,-2.419,-2.419,-2.419,-2.419,0.0,0.0,0.0,0.0,0.0,0.0,0.0,0.0,-2.419,-2.4245,-2.4612,-2.6153,-2.7218,-2.8594,0.0,0.0,0.0,0.0,0.0,0.0,0.0,0.0,0.0,0.0,0.0,0.0,0.0,0.0,0.0,0.0,0.0,0.0,0.0,0.0,0.0,0.0,0.0,0.0,0.0,0.0,0.0,0.0,0.0,0.0,0.0,-5.3185,-5.3185,-5.3185,-5.3185,-5.3185,-5.3185,-5.3185,-5.3185,-5.3185,-5.3185,-5.3185,-5.3185,-5.3185,-5.3185,-5.3185,-5.3185,-5.3185,-5.3185,-5.3185,-5.3185,-5.3185,-5.3185,-5.3185,-5.3185,-5.3185,-5.3185,-5.3185,0.0,0.0,0.0,0.0,0.0,0.0,0.0,0.0,0.0,0.0,0.0,0.0,0.0,0.0,0.0,0.0,0.0,0.0,0.0,-2.3782,-2.3886,-2.4016,-2.4141,-2.4281,-2.4447,-2.4456,-2.4538,-2.4722,-2.6153,-2.7273,-2.8062,-2.8539,-2.8822,-2.9023,-2.9647,-2.8705,-2.6602,-2.6602,-2.5676,-2.419,-2.419,-2.419,-2.419,-2.419,-2.419,0.0,0.0,0.0,0.0,0.0,0.0,0.0,-2.419,-2.464,-2.5338,-2.6319,-2.7611,-2.9317,0.0,0.0,0.0,0.0,0.0,0.0,0.0,0.0,0.0,0.0,0.0,0.0,0.0,0.0,0.0,0.0,0.0,0.0,0.0,0.0,0.0,0.0,0.0,0.0,0.0,0.0,0.0,0.0,0.0,0.0,-5.3185,-5.3185,-5.3185,-5.3185,-5.3185,-5.3185,-5.3185,-5.3185,-5.3185,0.0,-5.3185,-5.3185,-5.3185,-5.3185,-5.3185,-5.3185,-5.3185,-5.3185,-5.3185,-5.3185,-5.3185,-5.3185,-5.3185,-5.3185,-5.3185,-5.3185,-5.3185,-5.3185,0.0,0.0,0.0,0.0,0.0,0.0,0.0,0.0,0.0,0.0,0.0,0.0,0.0,0.0,0.0,0.0,0.0,0.0,0.0,-2.3739,-2.3896,-2.4084,-2.4161,-2.419,-2.419,-2.419,-2.419,-2.419,-2.5419,-2.6429,-2.7236,-2.8062,-2.862,-2.9042,-2.9831,-2.887,-2.6602,-2.6602,-2.5676,-2.419,-2.419,-2.419,-2.419,-2.419,-2.419,-2.419,-2.419,0.0,0.0,0.0,0.0,0.0,0.0,0.0,-2.4989,-2.5786,-2.7163,-2.8962,0.0,0.0,0.0,0.0,0.0,0.0,0.0,0.0,0.0,0.0,0.0,0.0,0.0,0.0,0.0,0.0,0.0,0.0,0.0,0.0,0.0,0.0,0.0,0.0,0.0,0.0,0.0,0.0,0.0,-5.3185,-5.3185,-5.3185,-5.3185,-5.3185,-5.3185,-5.3185,-5.3185,-5.3185,-5.3185,-5.3185,-5.3185,-5.3185,-5.3185,-5.3185,-5.3185,-5.3185,-5.3185,-5.3185,-5.3185,-5.3185,-5.3164,-5.3103,-5.3039,-5.2955,-5.2893,-5.2828,-5.2868,-5.2893,0.0,0.0,0.0,0.0,0.0,0.0,0.0,0.0,0.0,0.0,0.0,0.0,0.0,0.0,0.0,0.0,0.0,0.0,0.0,-2.3739,-2.3937,-2.418,-2.418,-2.418,-2.419,-2.418,-2.418,-2.419,-2.5007,-2.5888,-2.6833,-2.7915,-2.8778,-2.9445,-3.0265,-2.92,-2.6796,-2.6657,-2.5676,-2.419,-2.419,-2.419,-2.419,-2.419,-2.419,-2.419,-2.419,-2.419,-2.419,-2.419,0.0,0.0,0.0,0.0,-2.4355,-2.5154,-2.6439,-2.8154,0.0,0.0,0.0,0.0,0.0,0.0,0.0,0.0,0.0,0.0,0.0,0.0,0.0,0.0,0.0,0.0,0.0,0.0,0.0,0.0,0.0,0.0,0.0,0.0,0.0,0.0,0.0,0.0,0.0,-5.2803,-5.2803,-5.2803,-5.2803,-5.2803,-5.2763,-5.2742,-5.2742,-5.2868,-5.2901,-5.2901,-5.3005,-5.306,-5.3103,-5.3103,-5.3124,-5.3185,-5.3185,-5.3185,-5.3164,-5.3143,-5.306,-5.2915,-5.2761,-5.2631,-5.2522,-5.2384,-5.2408,-5.2499,0.0,0.0,0.0,0.0,0.0,0.0,0.0,0.0,0.0,0.0,0.0,-2.3107,-2.3107,-2.3168,0.0,0.0,0.0,0.0,-2.3667,0.0,0.0,-2.419,-2.4133,-2.4151,-2.419,-2.4151,-2.4151,-2.419,-2.5007,-2.6164,-2.7688,-2.9891,-3.0993,-3.1109,-3.1916,-3.0558,-2.7585,-2.6906,-2.5676,-2.419,-2.419,-2.419,-2.419,-2.419,-2.419,-2.419,-2.419,-2.419,-2.419,-2.419,-2.419,0.0,0.0,0.0,0.0,0.0,-2.6054,0.0,0.0,0.0,0.0,0.0,0.0,0.0,0.0,0.0,0.0,0.0,0.0,0.0,0.0,0.0,0.0,0.0,0.0,0.0,0.0,0.0,0.0,0.0,0.0,0.0,0.0,0.0,0.0,0.0,-5.1059,-5.1132,-5.1132,-5.1132,-5.1132,-5.1132,-5.1014,-5.0952,-5.0952,-5.1505,-5.1748,-5.1661,-5.2218,-5.2563,-5.2676,-5.2676,-5.2872,-5.3185,-5.3185,-5.3124,-5.302,-5.2912,-5.2783,-5.2613,-5.2366,-5.2273,-5.225,-5.2108,-5.206,-5.2084,0.0,0.0,0.0,0.0,0.0,0.0,0.0,0.0,0.0,0.0,0.0,-2.3008,-2.3045,-2.3082,0.0,0.0,0.0,0.0,-2.3634,-2.3792,0.0,-2.4026,-2.4036,-2.4064,-2.4084,-2.4064,-2.4084,-2.4151,-2.5397,-2.6855,-2.8539,-3.1403,-3.226,-3.1452,-3.2706,-3.1476,-2.8429,-2.7603,-2.6337,-2.4879,-2.4879,-2.4879,-2.4915,-2.5364,-2.5548,-2.5493,-2.5026,-2.4841,-2.4747,-2.4298,-2.4113,-2.4094,0.0,0.0,0.0,0.0,0.0,0.0,0.0,0.0,0.0,0.0,0.0,0.0,0.0,0.0,0.0,0.0,0.0,0.0,0.0,0.0,0.0,0.0,0.0,0.0,0.0,0.0,0.0,0.0,0.0,0.0,0.0,0.0,0.0,0.0,-5.0545,-5.0802,-5.0802,-5.0802,-5.0782,-5.0703,-5.0563,-5.042,-5.0314,-5.0551,-5.0565,-5.0471,-5.1197,-5.1576,-5.1664,-5.2074,-5.2522,-5.2955,-5.2912,-5.2828,-5.2765,-5.2545,-5.2402,-5.2262,-5.1897,-5.1701,-5.1601,-5.1398,-5.1391,-5.1449,0.0,0.0,0.0,0.0,0.0,0.0,0.0,0.0,0.0,0.0,0.0,0.0,-2.2982,0.0,0.0,0.0,0.0,0.0,-2.3567,0.0,0.0,0.0,0.0,-2.3915,-2.3917,-2.3925,-2.3955,-2.4054,-2.5683,-2.7325,-2.9037,-3.2087,-3.2963,-3.2076,-3.3476,-3.243,-2.9537,-2.8539,-2.7181,-2.5723,-2.5925,-2.6127,-2.6403,-2.7218,-2.7501,-2.742,-2.6583,-2.613,-2.5751,0.0,0.0,0.0,0.0,0.0,0.0,0.0,0.0,0.0,0.0,0.0,0.0,0.0,0.0,0.0,0.0,0.0,0.0,0.0,0.0,0.0,0.0,0.0,0.0,0.0,0.0,0.0,0.0,0.0,0.0,0.0,0.0,0.0,0.0,0.0,0.0,0.0,-4.9829,-5.016,-5.016,-5.0158,-5.0059,-4.99,-4.9737,-4.9528,-4.9288,-4.9307,-4.9367,-4.9489,-5.005,-5.0319,-5.0402,-5.113,-5.1682,-5.2136,-5.234,-5.2412,-5.2366,-5.2114,-5.1957,-5.1822,-5.1365,-5.1158,-5.1026,-5.0776,-5.0749,-5.0857,0.0,0.0,0.0,0.0,0.0,0.0,0.0,0.0,0.0,0.0,0.0,0.0,-2.2889,-2.2906,-2.297,-2.3095,0.0,0.0,0.0,0.0,0.0,0.0,0.0,0.0,-2.3714,-2.3725,-2.3779,-2.3907,-2.559,-2.7269,-2.896,-3.1475,-3.3023,-3.3715,-3.4564,-3.3573,-3.1176,0.0,0.0,0.0,-2.7365,-2.8136,-2.8895,-2.9714,-3.0008,-2.9904,-2.902,-2.8228,0.0,0.0,0.0,0.0,0.0,-2.3865,-2.3917,0.0,0.0,0.0,0.0,0.0,0.0,0.0,0.0,0.0,0.0,0.0,0.0,0.0,0.0,0.0,0.0,0.0,0.0,0.0,0.0,0.0,0.0,0.0,0.0,0.0,0.0,0.0,0.0,0.0,0.0,0.0,-4.8416,-4.8434,-4.8434,-4.8374,-4.8218,-4.7961,-4.7751,-4.7449,-4.7079,-4.7494,-4.8084,-4.8851,-4.877,-4.8788,-4.894,-4.9674,-5.0105,-5.0292,-5.1519,-5.1946,-5.1806,-5.1533,-5.1373,-5.121,-5.0803,-5.064,-5.0612,-5.0481,-5.0443,-5.0425,0.0,0.0,0.0,0.0,0.0,0.0,0.0,0.0,0.0,0.0,0.0,0.0,0.0,-2.2842,-2.2881,-2.2952,-2.302,0.0,0.0,0.0,0.0,0.0,0.0,0.0,0.0,-2.3555,-2.3645,-2.3768,-2.4936,-2.6379,-2.812,-3.0082,-3.1988,-3.3844,-3.4637,-3.3959,-3.21,-3.0999,0.0,0.0,-2.9787,-3.0283,-3.0742,-3.2583,-3.2949,-3.2472,-3.2067,0.0,0.0,0.0,0.0,0.0,-2.4799,-2.4431,-2.4418,-2.4031,0.0,0.0,0.0,0.0,0.0,0.0,0.0,0.0,0.0,0.0,0.0,0.0,0.0,0.0,0.0,0.0,0.0,0.0,0.0,0.0,0.0,0.0,0.0,0.0,0.0,0.0,0.0,0.0,0.0,0.0,0.0,-4.8072,-4.7975,-4.7909,-4.7765,-4.7496,-4.7173,-4.6771,-4.6339,-4.6392,-4.659,-4.687,-4.7351,-4.7596,-4.7665,-4.8417,-4.8767,-4.8855,-4.9837,-5.0646,-5.127,-5.0999,-5.0866,-5.0785,-5.0464,-5.0341,-5.0313,-5.0206,-5.012,-5.012,0.0,0.0,0.0,0.0,0.0,0.0,0.0,0.0,-2.2699,-2.2699,0.0,0.0,0.0,0.0,-2.2803,-2.2868,-2.2932,-2.297,-2.297,-2.3057,0.0,0.0,0.0,0.0,0.0,-2.3324,-2.343,-2.3567,-2.4487,-2.5699,-2.7159,-2.8584,-3.0448,-3.2588,-3.3151,-3.3096,0.0,0.0,0.0,-3.032,0.0,-3.2375,-3.2871,-3.5316,-3.5889,-3.5369,0.0,0.0,0.0,0.0,0.0,0.0,-2.5542,-2.4676,-2.4263,-2.3902,-2.4162,0.0,0.0,0.0,0.0,0.0,0.0,0.0,0.0,0.0,0.0,0.0,0.0,0.0,0.0,0.0,0.0,0.0,0.0,0.0,0.0,0.0,0.0,0.0,0.0,0.0,0.0,0.0,0.0,0.0,0.0,0.0,-4.7627,-4.7557,-4.7341,-4.7012,-4.656,-4.6193,-4.5879,-4.5744,-4.5684,-4.5684,-4.6213,-4.6456,-4.6491,-4.7254,-4.7602,-4.7654,-4.8434,-4.94,-5.0434,-5.047,-5.0464,-5.0436,-5.0217,-5.0149,-5.012,-5.0022,-5.0011,-5.0011,0.0,0.0,0.0,0.0,0.0,0.0,0.0,0.0,-2.2699,-2.2699,0.0,0.0,0.0,0.0,0.0,-2.2808,-2.2868,-2.2889,-2.2889,-2.2889,0.0,0.0,0.0,0.0,0.0,-2.307,-2.3168,-2.3289,-2.4278,-2.5242,-2.6175,-2.7093,-2.8431,-3.0033,-3.0082,-3.0986,-3.2454,0.0,-3.1702,-3.0485,0.0,-3.4344,-3.5339,0.0,-3.8685,0.0,-3.8431,-3.7232,0.0,-3.2699,0.0,0.0,-2.6364,-2.4585,-2.3442,-2.3609,-2.3634,0.0,0.0,0.0,0.0,0.0,0.0,0.0,0.0,0.0,0.0,0.0,0.0,0.0,0.0,0.0,0.0,0.0,0.0,0.0,0.0,0.0,0.0,0.0,0.0,0.0,0.0,0.0,0.0,0.0,-4.7208,-4.7226,-4.7226,-4.7093,-4.6822,-4.6363,-4.5854,-4.5607,-4.5589,-4.5476,-4.5397,-4.5397,-4.5397,-4.5397,-4.5432,-4.6217,-4.6562,-4.6613,-4.7345,-4.8263,-4.9256,-4.9899,-5.0154,-5.0154,-5.0034,-5.0011,-5.0011,-5.0011,-5.0011,-5.0011,0.0,0.0,0.0,0.0,0.0,-2.2699,-2.2699,-2.2699,-2.2699,0.0,0.0,0.0,-2.344,-2.3509,-2.3491,-2.3519,-2.3049,-2.2764,-2.2764,-2.2764,-2.2764,-2.2764,-2.2803,-2.2842,-2.2838,-2.2932,-2.3033,-2.3156,-2.3477,-2.4165,-2.5206,-2.5561,-2.6611,-2.8226,-2.8303,-2.8594,-2.9208,-3.1579,0.0,-3.2142,-3.4614,-3.6021,0.0,0.0,0.0,0.0,0.0,-3.9373,-3.7524,0.0,-3.3653,-3.1633,0.0,-2.5589,-2.4062,-2.4771,-2.4519,-2.4083,-2.435,0.0,0.0,0.0,0.0,0.0,0.0,0.0,0.0,0.0,0.0,0.0,0.0,0.0,0.0,0.0,0.0,0.0,0.0,0.0,0.0,0.0,0.0,0.0,0.0,0.0,0.0,0.0,-4.5138,-4.5076,-4.4986,-4.5329,-4.5361,-4.5035,-4.5398,-4.5537,-4.545,-4.5423,-4.5397,-4.5397,-4.5397,-4.5397,-4.5414,-4.5621,-4.5725,-4.5776,-4.6552,-4.7054,-4.743,-4.8698,-4.9188,-4.9257,-4.9786,-5.0011,-5.0011,-5.0011,-5.0011,-5.0011,0.0,0.0,0.0,-2.3112,-2.3164,-2.3267,-2.3608,-2.3646,-2.3646,0.0,0.0,0.0,-2.4681,-2.4767,-2.4767,-2.4767,-2.3784,-2.3164,-2.3164,-2.2871,-2.2699,-2.2699,-2.2738,-2.2764,-2.2764,-2.2829,-2.2919,-2.302,-2.3119,-2.3507,-2.4177,-2.4311,-2.5102,-2.6373,-2.6443,-2.67,-2.7255,-2.9856,0.0,0.0,-3.4591,0.0,0.0,-3.9843,-4.0816,0.0,0.0,0.0,-3.9366,-3.7945,-3.5407,0.0,0.0,0.0,0.0,-2.6079,-2.5516,0.0,-2.504,0.0,0.0,0.0,0.0,0.0,0.0,0.0,0.0,0.0,0.0,0.0,0.0,0.0,0.0,0.0,0.0,0.0,0.0,0.0,0.0,0.0,0.0,0.0,0.0,-4.378,-4.391,-4.4002,-4.4002,-4.3956,-4.3886,-4.4135,-4.4202,-4.4046,-4.4698,-4.5019,-4.4941,-4.5242,-4.5397,-4.5397,-4.5397,-4.5397,-4.5397,-4.5397,-4.5397,-4.5432,-4.5897,-4.6086,-4.6173,-4.7379,-4.8241,-4.8844,-4.9309,-4.9717,-5.0011,-5.0011,-5.0011,-5.0011,0.0,0.0,-2.294,-2.3681,-2.3871,-2.4198,-2.5005,-2.5195,-2.5264,0.0,-2.5333,-2.5643,-2.6281,-2.6368,-2.6318,-2.6247,-2.4818,-2.3905,-2.3819,-2.3112,-2.2699,-2.2699,-2.2699,-2.2699,-2.2699,-2.2764,-2.2829,-2.2906,-2.3033,-2.3156,-2.3289,-2.3407,-2.3903,-2.4658,-2.4707,-2.519,-2.6019,-2.7683,0.0,-3.0296,-3.3652,-3.5972,0.0,0.0,-4.0941,-4.1504,-4.2037,-4.1635,-4.0721,-3.9749,-3.6332,0.0,0.0,0.0,0.0,0.0,-2.6879,0.0,-2.6479,-2.6184,0.0,0.0,0.0,0.0,-2.8353,-2.9349,0.0,0.0,0.0,0.0,0.0,0.0,0.0,0.0,0.0,0.0,0.0,0.0,0.0,0.0,0.0,0.0,-4.2434,-4.2968,-4.3297,-4.3297,-4.3297,-4.3297,-4.3297,-4.3246,-4.3224,-4.3224,-4.3869,-4.4173,-4.4173,-4.4906,-4.5276,-4.5276,-4.5363,-4.5397,-4.5397,-4.5397,-4.5397,-4.5397,-4.5397,-4.5397,-4.5466,-4.6155,-4.7276,-4.8551,-4.8637,-4.9154,-4.9873,-4.9873,-4.9924,-5.0011,0.0,-2.2699,-2.294,-2.3681,-2.4336,-2.5023,-2.5781,-2.6437,-2.6851,-2.6851,-2.7368,-2.7799,-2.7937,-2.7954,-2.7713,-2.7109,-2.5661,-2.4491,-2.3836,-2.3112,-2.2699,-2.2699,-2.2699,-2.2699,-2.2699,-2.2712,-2.2777,-2.2906,-2.2932,-2.3045,-2.3217,-2.3301,-2.346,-2.3673,-2.3742,-2.3912,-2.4213,0.0,0.0,-2.9241,-3.3855,0.0,-3.8903,-4.0469,-4.1381,-4.1806,-4.1753,-4.1543,-4.1055,-3.9456,-3.7075,-3.4582,0.0,0.0,0.0,-3.0732,-2.9868,-2.8694,-2.8833,0.0,0.0,0.0,0.0,0.0,-2.7749,-2.8364,0.0,0.0,0.0,0.0,0.0,0.0,0.0,0.0,0.0,0.0,0.0,0.0,0.0,0.0,0.0,0.0,-4.1389,-4.1416,-4.1415,-4.1415,-4.1415,-4.1415,-4.1415,-4.1961,-4.2265,-4.2265,-4.3024,-4.3414,-4.3414,-4.4156,-4.4492,-4.4535,-4.513,-4.5397,-4.5397,-4.5397,-4.5397,-4.5397,-4.5397,-4.5397,-4.5414,-4.5569,-4.6173,-4.7096,-4.7672,-4.8361,-4.9016,-4.9016,-4.9459,-5.0011,-2.2699,-2.2699,-2.306,-2.4198,-2.504,-2.5937,-2.7075,-2.7902,-2.8541,-2.8937,-2.9955,-3.0644,-3.0644,-3.0644,-3.0351,-2.961,-2.7799,-2.6195,-2.5025,-2.3888,-2.3078,-2.2716,-2.2699,-2.2699,-2.2699,-2.2699,-2.2751,-2.2855,-2.2855,-2.2932,-2.3057,-2.3077,-2.3355,-2.3799,-2.3872,-2.4146,-2.4651,0.0,-2.8206,-3.0306,-3.3298,0.0,-3.8528,-3.9818,-4.0908,-4.1719,-4.1498,-4.1363,-4.1098,-3.9787,-3.8339,0.0,0.0,-3.4234,-3.2524,0.0,-3.2145,-3.0731,-3.111,0.0,0.0,-2.9265,0.0,0.0,0.0,0.0,-2.8549,0.0,0.0,0.0,0.0,0.0,0.0,0.0,0.0,0.0,0.0,0.0,0.0,0.0,0.0,0.0,-4.0504,-4.0758,-4.0912,-4.0912,-4.0912,-4.0912,-4.0912,-4.1257,-4.1464,-4.1464,-4.2206,-4.2603,-4.2603,-4.3362,-4.3931,-4.4311,-4.4665,-4.5044,-4.5397,-4.5397,-4.5397,-4.5397,-4.5397,-4.5397,-4.5397,-4.5397,-4.5638,-4.6069,-4.6855,-4.7586,-4.8241,-4.8241,-4.8723,-4.9407,-2.2699,-2.2699,-2.3181,-2.4729,-2.5609,-2.6663,-2.8351,-2.9248,-3.0127,-3.1214,-3.2507,-3.3404,-3.3542,-3.3438,-3.3041,-3.23,-3.0162,-2.8196,-2.6644,-2.5094,-2.3905,-2.3181,-2.2992,-2.2905,-2.2905,-2.2767,-2.2738,-2.2803,-2.2803,-2.2842,-2.2906,-2.3063,-2.3515,-2.4217,-2.4568,0.0,0.0,0.0,0.0,-3.1444,0.0,-3.5146,-3.8127,-3.9176,-4.0393,-4.1471,-4.1226,-4.114,-4.103,-4.0331,-3.9593,-3.8849,-3.8156,-3.6563,0.0,0.0,0.0,0.0,0.0,0.0,0.0,0.0,0.0,-3.0317,0.0,0.0,0.0,-2.742,0.0,0.0,0.0,0.0,0.0,0.0,0.0,0.0,0.0,0.0,0.0,0.0,0.0,0.0,0.0,-4.0061,-4.0463,-4.0463,-4.0601,-4.067,-4.067,-4.0825,-4.0912,-4.0912,-4.1481,-4.1792,-4.1792,-4.2568,-4.3276,-4.3862,-4.4173,-4.4596,-4.5173,-4.5328,-4.5397,-4.5397,-4.5397,-4.5397,-4.5397,-4.5397,-4.5397,-4.5466,-4.6104,-4.6837,-4.751,-4.751,-4.7948,-4.8586,-2.2699,-2.2699,-2.3181,-2.4729,-2.5609,-2.6835,-2.9041,-3.0041,-3.1335,-3.344,-3.4421,-3.518,-3.5835,-3.5335,-3.4628,-3.3906,-3.1748,-2.9782,-2.8247,-2.6713,-2.5523,-2.4781,-2.406,-2.3681,-2.3681,-2.3026,-2.2738,-2.2803,-2.2803,-2.2842,-2.2924,-2.3619,-2.4055,-2.4252,-2.5652,0.0,0.0,0.0,-2.9455,0.0,-3.2664,-3.5823,0.0,-3.9925,-4.0598,-4.114,-4.0982,-4.0918,-4.0918,0.0,-4.0256,-3.9583,0.0,-3.8819,-3.8094,-3.818,0.0,0.0,0.0,0.0,0.0,0.0,-3.2198,0.0,0.0,0.0,-2.7402,-2.7316,0.0,0.0,0.0,0.0,0.0,0.0,0.0,0.0,0.0,0.0,0.0,0.0,0.0,0.0,0.0,-3.8427,-3.8853,-3.8853,-3.9457,-3.9836,-3.9836,-4.0515,-4.0912,-4.0912,-4.0981,-4.1032,-4.1032,-4.1774,-4.2189,-4.2292,-4.3655,-4.4345,-4.4449,-4.5113,-4.5397,-4.5397,-4.5397,-4.5397,-4.5397,-4.5397,-4.5397,-4.5414,-4.55,-4.6017,-4.6734,-4.6734,-4.72,-4.781,-2.2699,-2.2699,-2.3043,-2.4112,-2.5301,-2.6714,-2.8575,-3.1024,-3.3181,-3.4562,-3.5804,-3.6822,0.0,0.0,0.0,0.0,0.0,-3.2472,0.0,0.0,-2.7558,-2.6385,-2.556,-2.4922,-2.4508,-2.3733,-2.3143,-2.2738,-2.2738,-2.2764,-2.279,-2.3136,-2.3796,-2.4764,-2.586,0.0,-2.8625,0.0,-3.1599,0.0,0.0,0.0,0.0,-3.9399,-4.011,-4.0976,-4.0935,-4.0912,-4.0912,0.0,-4.0687,0.0,0.0,0.0,0.0,0.0,0.0,0.0,0.0,0.0,0.0,0.0,0.0,0.0,-2.9886,0.0,-2.7937,0.0,0.0,0.0,0.0,0.0,0.0,0.0,0.0,0.0,0.0,0.0,0.0,0.0,0.0,0.0,0.0,0.0,0.0,0.0,-3.7974,-3.8594,-3.9026,-3.9784,-4.0429,-4.0894,-4.0912,-4.0912,-4.0912,-4.1222,-4.1585,-4.2016,-4.2672,-4.3431,-4.4311,-4.4613,-4.501,-4.5397,-4.5397,-4.5397,-4.5397,-4.5397,-4.5397,-4.5397,-4.5397,-4.5604,-4.5897,-4.5897,-4.6397,-4.7079,-2.2699,0.0,0.0,-2.3681,-2.4905,-2.654,-2.8696,-3.2094,-3.4752,-3.5697,-3.7357,0.0,-3.9439,-3.9549,0.0,0.0,-3.715,-3.5335,0.0,0.0,-3.0179,-2.8885,-2.7678,-2.6695,-2.5954,-2.4939,-2.3957,-2.2992,-2.2992,-2.2905,-2.2699,-2.3129,-2.396,-2.5166,0.0,-2.8473,-3.0277,0.0,0.0,-3.4735,-3.616,-3.7715,-3.9172,-3.9376,-4.0043,-4.0912,-4.0912,-4.0912,-4.0912,-4.0912,-4.0912,0.0,-4.0912,0.0,0.0,0.0,0.0,0.0,-3.9238,0.0,0.0,0.0,0.0,0.0,0.0,0.0,0.0,0.0,0.0,0.0,0.0,0.0,0.0,0.0,0.0,0.0,0.0,0.0,0.0,0.0,0.0,0.0,0.0,0.0,0.0,0.0,0.0,-3.718,-3.7922,-3.906,-3.9957,-4.0567,-4.0791,-4.0912,-4.0912,-4.0912,-4.117,-4.1705,-4.1888,-4.2603,-4.369,-4.4121,-4.4578,-4.5104,-4.5311,-4.5397,-4.5397,-4.5397,-4.5397,-4.5397,-4.5397,-4.5397,-4.5397,-4.5397,-4.5759,-4.6259,-2.2699,-2.2699,0.0,0.0,0.0,-2.6299,-3.0041,-3.3197,-3.5718,-3.7236,0.0,0.0,0.0,0.0,0.0,0.0,0.0,-3.8168,-3.7374,0.0,-3.3576,-3.2766,-3.0593,-2.9058,0.0,-2.68,-2.5284,-2.3767,-2.3767,-2.3405,-2.2733,-2.4229,-2.498,-2.527,-2.8983,-3.0734,-3.1029,-3.3342,-3.4368,-3.4542,-3.6003,-3.7922,-3.9927,0.0,-4.086,-4.0912,-4.0912,0.0,0.0,-4.0912,-4.0912,0.0,0.0,0.0,0.0,0.0,0.0,0.0,0.0,0.0,0.0,-3.6646,0.0,0.0,0.0,0.0,-2.861,0.0,0.0,0.0,0.0,0.0,0.0,0.0,0.0,0.0,0.0,0.0,0.0,0.0,0.0,0.0,0.0,0.0,0.0,0.0,0.0,0.0,-3.6335,-3.8491,-3.9715,-3.9733,-4.0498,-4.0912,-4.0912,-4.0912,-4.0912,-4.0946,-4.1671,-4.2033,-4.2137,-4.3621,-4.4311,-4.438,-4.5096,-4.5397,-4.5397,-4.5397,-4.5397,-4.5397,-4.5397,-4.5397,-4.5397,-4.5397,-4.5414,-4.5432,0.0,0.0,0.0,0.0,0.0,-2.7023,-3.0834,-3.399,-3.6473,0.0,0.0,0.0,0.0,-4.2792,-4.2792,0.0,0.0,-4.0302,-3.9026,-3.7789,0.0,0.0,0.0,-3.1955,0.0,0.0,0.0,0.0,0.0,0.0,0.0,0.0,0.0,0.0,0.0,-3.0837,0.0,0.0,0.0,0.0,0.0,-3.9494,-4.0596,0.0,0.0,-4.0912,-4.0912,-4.0912,0.0,-4.0912,-4.0912,-4.0912,-4.0912,-4.0912,-4.0912,-4.0912,-4.0912,0.0,0.0,0.0,-3.8957,-3.7456,0.0,0.0,0.0,0.0,0.0,0.0,0.0,0.0,0.0,0.0,0.0,0.0,0.0,0.0,0.0,0.0,0.0,0.0,0.0,0.0,0.0,0.0,0.0,0.0,-3.2076,0.0,0.0,-3.7012,-3.8681,-3.9664,-4.0498,-4.0912,-4.0912,-4.0912,-4.0912,-4.0912,-4.1153,-4.1533,-4.205,-4.3086,-4.3845,-4.4345,-4.5096,-4.5397,-4.5397,-4.5397,-4.5397,-4.5397,-4.5397,-4.5397,-4.5397,-4.5397,-4.5397,-4.5397,-2.5005,0.0,0.0,0.0,0.0,0.0,-3.2059,0.0,0.0,0.0,-4.1216,0.0,-4.3871,0.0,-4.4785,0.0,-4.382,-4.2785,-4.1802,-4.0526,0.0,-3.837,-3.6628,0.0,0.0,0.0,0.0,0.0,0.0,-2.6006,0.0,0.0,0.0,0.0,0.0,0.0,0.0,0.0,-3.7607,0.0,0.0,-4.0251,0.0,0.0,-4.0912,-4.0912,0.0,-4.0912,-4.0912,-4.0912,-4.0912,-4.0912,-4.0912,-4.0912,-4.0912,-4.0912,-4.0912,-4.0912,-4.0912,-4.0302,0.0,-3.818,-3.6184,0.0,-3.3231,0.0,0.0,0.0,0.0,0.0,0.0,0.0,0.0,0.0,0.0,0.0,0.0,0.0,0.0,0.0,0.0,0.0,0.0,0.0,-2.7902,-2.8661,0.0,0.0,0.0,0.0,-3.7749,-3.925,-4.006,-4.0618,-4.0912,-4.0912,-4.0912,-4.0912,-4.0912,-4.1153,-4.1654,-4.243,-4.3189,-4.3949,-4.4682,-4.5156,-4.5397,-4.5344,-4.5344,-4.53,-4.5291,-4.5264,-4.5264,-4.5371,-4.5397,-4.5397,0.0,0.0,0.0,0.0,-2.7816,0.0,0.0,0.0,-3.9272,0.0,-4.3578,-4.5432,-4.5518,-4.681,-4.7689,-4.7689,-4.6362,-4.55,-4.5466,-4.3388,0.0,0.0,-3.9957,-3.8043,-3.6508,0.0,0.0,0.0,0.0,0.0,0.0,0.0,0.0,0.0,-3.0075,0.0,-3.311,-3.618,-3.7978,-3.8767,-3.9474,-4.0215,-4.0912,-4.0912,-4.0929,-4.0963,-4.0912,-4.0912,-4.0912,-4.0912,-4.0912,-4.0912,-4.0912,-4.0912,-4.0912,-4.0912,-4.0912,-4.0912,-4.0912,-4.0359,-3.9577,-3.8836,-3.6991,0.0,0.0,0.0,-3.3335,0.0,0.0,0.0,0.0,0.0,0.0,0.0,0.0,0.0,0.0,0.0,0.0,0.0,0.0,0.0,0.0,0.0,-2.6385,-2.7178,-2.9317,0.0,0.0,0.0,-3.6904,-3.8513,-3.9301,-4.0077,-4.0894,-4.0912,-4.0912,-4.0912,-4.0894,-4.0888,-4.0905,-4.1647,-4.2406,-4.3147,-4.394,-4.4673,-4.5319,-4.523,-4.5177,-4.5194,-4.5059,-4.5005,-4.5032,-4.5291,-4.5371,-4.5371,-2.8351,-2.8989,-2.9989,0.0,-3.2386,-3.3561,0.0,0.0,0.0,0.0,-4.4251,-4.5845,-4.6965,-4.7448,-4.7689,-4.7689,-4.7327,0.0,0.0,0.0,0.0,-4.3741,-4.205,-4.0405,-3.8853,-3.718,0.0,-3.1748,0.0,0.0,-2.7523,0.0,0.0,0.0,0.0,0.0,-3.311,-3.618,-3.8599,-4.0342,-4.0532,-4.0722,0.0,0.0,-4.1257,-4.1654,-4.1101,-4.0912,-4.0912,-4.0912,-4.0912,-4.0912,-4.0912,-4.0912,-4.0912,-4.0912,-4.0912,-4.0912,-4.0912,-4.0756,-4.0411,-3.9612,-3.856,-3.7577,0.0,0.0,0.0,0.0,0.0,0.0,0.0,0.0,0.0,0.0,0.0,0.0,0.0,0.0,0.0,0.0,0.0,0.0,0.0,0.0,-2.5609,-2.635,0.0,0.0,0.0,0.0,0.0,-3.7719,-3.9026,-4.0077,-4.0894,-4.0912,-4.0912,-4.0912,-4.0793,-4.0745,-4.0762,-4.1427,-4.1824,-4.2081,-4.3417,-4.4119,-4.4316,-4.4837,-4.5059,-4.5059,-4.5005,-4.5005,-4.5005,-4.5086,-4.5086,-4.5086,-3.0024,0.0,0.0,-3.52,0.0,0.0,-3.7663,-4.0135,0.0,-4.3958,-4.5475,0.0,-4.8034,-4.8482,-4.8717,-4.8717,-4.8361,0.0,-4.7569,0.0,0.0,-4.5803,-4.4302,-4.2785,-4.125,-3.91,0.0,-3.3421,0.0,0.0,-2.8385,0.0,0.0,0.0,0.0,-3.1196,0.0,-3.687,-3.941,-4.0929,-4.1257,0.0,0.0,-4.1774,-4.2171,-4.2465,-4.205,-4.1688,-4.1395,-4.1395,-4.117,-4.0912,-4.0912,-4.0912,-4.0912,-4.0912,-4.0912,-4.0912,-4.0912,-4.0912,-4.0791,-4.0359,-3.9646,-3.8957,-3.8543,-3.8198,-3.7996,0.0,-3.8323,-3.8353,0.0,0.0,0.0,0.0,0.0,0.0,0.0,0.0,0.0,0.0,0.0,0.0,0.0,0.0,0.0,0.0,0.0,0.0,0.0,0.0,0.0,-3.7426,-3.8612,-3.975,-4.0894,-4.084,-4.0817,-4.0817,-4.0673,-4.0607,-4.0624,-4.0962,-4.1296,-4.1672,-4.286,-4.356,-4.3936,-4.4633,-4.4896,-4.4913,-4.4858,-4.4831,-4.4831,-4.4831,-4.4913,-4.4978,0.0,0.0,0.0,0.0,0.0,0.0,0.0,-4.2164,0.0,-4.55,0.0,-4.812,-4.8861,-4.9597,-5.0011,-5.0011,0.0,-4.8947,-4.8947,-4.8241,-4.7827,-4.7827,-4.6379,-4.4923,-4.3517,-4.0584,-3.7581,0.0,0.0,-3.0144,-2.8506,0.0,0.0,0.0,0.0,0.0,0.0,-3.7784,-4.0112,-4.1101,-4.1757,-4.2068,-4.224,-4.293,-4.3258,-4.3345,-4.3345,-4.2827,-4.2171,-4.2171,-4.1671,-4.105,-4.105,-4.0981,-4.0912,-4.0912,-4.0912,-4.0912,-4.0912,-4.0912,-4.0912,-4.0912,-4.0353,-3.9853,-3.9853,-3.9353,-3.8888,-3.8888,-3.8888,-3.8686,0.0,0.0,0.0,0.0,0.0,0.0,0.0,0.0,0.0,0.0,0.0,0.0,0.0,0.0,0.0,0.0,0.0,0.0,0.0,0.0,0.0,-3.721,-3.8124,-3.9273,-4.083,0.0,-4.0673,-4.0673,-4.0534,-4.0485,-4.0485,-4.0461,-4.0802,-4.1451,-4.2296,-4.3047,-4.3746,-4.4463,-4.4776,-4.4748,-4.4654,-4.4615,-4.4615,-4.4615,-4.4765,-4.494,0.0,0.0,0.0,0.0,0.0,-4.3017,-4.4208,-4.4742,-4.5552,-4.7086,-4.8051,-4.8896,-4.9717,-4.9924,-5.0011,-5.0011,-4.9873,0.0,0.0,0.0,0.0,-4.8603,-4.7172,-4.5949,-4.5018,-4.2647,-3.9945,0.0,-3.3955,-3.142,-2.9265,0.0,0.0,0.0,0.0,0.0,-3.5835,-3.7905,0.0,-4.1826,-4.1964,-4.2413,-4.3,-4.3138,-4.3586,-4.4104,-4.4104,-4.3638,-4.2982,-4.2982,-4.2465,-4.1809,-4.1809,-4.1395,-4.0912,-4.0912,-4.0912,-4.0912,-4.0912,-4.0912,-4.0912,-4.0912,-4.0791,-4.0687,-4.0687,-4.0601,-4.0498,-4.0498,-4.0498,-4.0256,-3.9457,0.0,0.0,0.0,0.0,0.0,0.0,0.0,0.0,0.0,0.0,0.0,0.0,0.0,0.0,0.0,0.0,0.0,0.0,0.0,0.0,0.0,-3.7586,0.0,0.0,0.0,-4.0534,-4.0534,-4.0387,-4.0355,-4.033,-4.0238,-4.0256,-4.0442,-4.179,-4.2451,-4.2688,-4.4067,-4.4626,-4.4626,-4.4598,-4.4615,-4.4615,-4.4615,-4.4626,-4.4654,0.0,0.0,0.0,0.0,0.0,0.0,0.0,-4.6672,0.0,-4.8155,-4.8568,-4.9103,-4.9924,-5.0011,-5.0011,-5.0011,-5.0011,-5.0011,-5.0011,-4.9648,-4.9441,-4.9441,-4.8327,0.0,-4.6035,-4.3785,-4.1136,-3.8082,-3.5007,-3.2352,0.0,0.0,0.0,0.0,0.0,-3.3421,0.0,0.0,0.0,-4.2061,-4.2879,-4.3431,-4.381,-4.4199,-4.4561,-4.4872,-4.4872,-4.4647,-4.4285,-4.3897,-4.3258,-4.262,-4.262,-4.2378,-4.2016,-4.1602,-4.1481,-4.1395,-4.1015,-4.0912,-4.0912,-4.0912,-4.0912,-4.0912,-4.0912,-4.0912,-4.0912,-4.0912,-4.0912,-4.0629,-3.976,-3.7406,0.0,0.0,0.0,0.0,0.0,0.0,0.0,0.0,0.0,0.0,0.0,0.0,0.0,0.0,0.0,0.0,0.0,0.0,0.0,0.0,0.0,0.0,0.0,0.0,0.0,-4.0387,-4.0263,-4.0188,-4.0188,-4.0138,-4.0096,-4.018,-4.167,-4.2286,-4.2405,-4.3972,-4.4615,-4.4615,-4.4615,-4.4615,-4.4615,-4.4615,-4.4615,-4.4615,0.0,-4.2499,0.0,0.0,-4.501,0.0,-4.6958,-4.8189,-4.9051,-4.9051,-4.9051,-4.9292,-4.9942,-5.0011,-5.0011,-5.0011,-5.0011,-5.0011,-5.0011,-5.0011,-5.0011,-5.0011,-4.9252,-4.8241,-4.7096,-4.482,-4.224,0.0,-3.6305,0.0,0.0,0.0,0.0,0.0,0.0,0.0,0.0,0.0,-4.1516,-4.2603,-4.381,-4.4397,-4.4578,-4.5147,-4.5371,-4.5371,-4.5318,-4.5318,-4.5232,-4.4638,-4.4001,-4.3431,-4.3431,-4.3327,-4.3069,-4.2381,-4.2191,-4.2012,-4.1247,-4.1058,-4.1006,-4.0899,-4.0864,-4.0847,-4.0894,-4.0912,-4.0912,-4.0912,-4.0888,-4.0576,-3.966,-3.7969,0.0,0.0,0.0,0.0,0.0,0.0,0.0,0.0,0.0,0.0,0.0,0.0,0.0,0.0,0.0,0.0,-2.6761,-2.8973,-3.1281,0.0,0.0,-3.7615,-3.9286,0.0,-4.0085,-4.0255,-4.0163,-4.0096,-4.0096,-4.0096,-4.0096,-4.018,-4.167,-4.2472,-4.2861,-4.4107,-4.4615,-4.4615,-4.4615,-4.4615,-4.4615,-4.4615,-4.4615,-4.4615,0.0,0.0,0.0,0.0,0.0,0.0,-4.8482,-4.9338,-4.989,-4.989,-4.989,-4.9924,-4.9993,-5.0011,-5.0011,-5.0011,-5.0011,-5.0011,-5.0011,-5.0011,-5.0011,-5.0011,-4.9252,-4.8723,-4.8586,-4.6362,-4.4044,0.0,0.0,-3.5628,0.0,0.0,0.0,0.0,0.0,0.0,0.0,-4.0515,-4.2137,-4.4104,-4.4242,-4.4699,-4.5294,-4.5239,-4.522,-4.5203,-4.5086,-4.5032,-4.5032,-4.4947,-4.4619,-4.4207,-4.4207,-4.3741,-4.3147,-4.2876,-4.2833,-4.2636,-4.1766,-4.1535,-4.1389,-4.0868,-4.0721,-4.0745,-4.0864,-4.0912,-4.0912,-4.0912,-4.0817,-4.045,-3.9559,-3.9228,-3.8805,0.0,0.0,0.0,0.0,0.0,0.0,0.0,0.0,0.0,0.0,0.0,0.0,0.0,0.0,0.0,-2.5928,-2.8066,-3.0583,-3.3526,0.0,-3.6795,-3.902,-3.908,-3.9453,-4.0138,-4.0113,-4.0096,-4.0096,-4.0096,-4.0096,-4.018,-4.167,-4.3081,-4.4412,-4.4547,-4.4615,-4.4615,-4.4615,-4.4615,-4.4615,-4.4615,-4.4615,-4.4615,0.0,0.0,0.0,0.0,0.0,0.0,0.0,-5.0838,-5.1338,-5.1338,-5.0562,-5.0011,-5.0011,-5.0011,-5.0011,-5.0011,-5.0011,-5.0011,-5.0011,-5.0011,-5.0011,-5.0011,-4.97,-4.9275,-4.881,-4.7465,-4.5665,0.0,0.0,0.0,0.0,0.0,0.0,0.0,0.0,-3.8836,-4.0549,-4.2223,-4.3465,-4.432,-4.469,-4.5025,-4.5274,-4.514,-4.5086,-4.5086,-4.5005,-4.5005,-4.5005,-4.5005,-4.4898,-4.4747,-4.481,-4.4594,-4.4189,-4.3752,-4.3563,-4.3331,-4.2484,-4.1929,-4.1544,-4.1304,-4.0901,-4.0583,-4.0655,-4.0655,-4.0655,-4.0655,-4.0558,-4.0351,-4.0012,-3.9513,-3.9033,0.0,0.0,0.0,0.0,0.0,0.0,0.0,0.0,0.0,0.0,0.0,0.0,0.0,0.0,0.0,0.0,-2.7641,0.0,-3.21,0.0,-3.6479,-3.8328,-3.9208,-3.9808,-4.0096,-4.0096,-4.0096,-4.0096,-4.0096,-4.0587,-4.1467,-4.2033,-4.3176,-4.4615,-4.4615,-4.4615,-4.4615,-4.4615,-4.4615,-4.4615,-4.4615,-4.4542,-4.4412,-4.82,0.0,-4.8672,0.0,-5.0287,-5.0838,-5.1356,-5.186,-5.2188,-5.2188,-5.1274,-5.0666,-5.0666,-5.0666,-5.0666,-5.0666,-5.0459,-5.0338,-5.0338,-5.0131,-5.0011,-5.0011,-5.0011,0.0,-4.9154,-4.8396,-4.7131,-4.5285,-4.3034,0.0,0.0,0.0,0.0,0.0,-3.956,-4.0922,-4.2016,-4.3621,-4.4406,-4.4595,-4.5024,-4.5194,-4.514,-4.4978,-4.4923,-4.494,-4.4913,-4.4886,-4.4886,-4.4886,-4.4886,-4.4896,-4.5086,-4.5086,-4.4903,-4.4426,-4.4236,-4.3985,-4.3138,-4.2542,-4.2031,-4.1639,-4.1153,-4.0717,-4.0544,-4.051,-4.0485,-4.0461,-4.0379,-4.0305,-4.0238,-3.9739,-3.9309,-3.9309,0.0,0.0,0.0,0.0,0.0,0.0,-3.0025,-2.8197,-2.6116,0.0,0.0,0.0,0.0,0.0,0.0,0.0,0.0,0.0,0.0,0.0,-3.7889,-3.914,-3.9893,-4.0096,-4.0096,-4.0096,-4.0113,-4.0333,-4.1102,-4.2303,-4.2523,-4.3341,-4.4514,-4.4514,-4.4514,-4.4514,-4.4514,-4.4542,-4.4598,-4.4542,-4.4412,-4.4224,-4.9683,-4.9976,-5.0442,-5.1895,-5.2153,-5.217,-5.217,-5.2188,-5.2188,-5.2188,-5.217,-5.2153,-5.2153,-5.2153,-5.2153,-5.2153,-5.1528,-5.1097,-5.1097,-5.0407,-5.0011,0.0,0.0,-5.0011,-4.9993,-4.9189,-4.8413,-4.7655,0.0,0.0,-4.1912,0.0,-4.006,-4.0877,-4.1636,-4.2827,-4.4259,-4.4294,-4.4647,-4.5203,-4.5203,-4.5113,-4.4978,-4.4858,-4.4803,-4.4793,-4.4654,-4.4598,-4.4598,-4.4598,-4.4598,-4.4654,-4.4913,-4.5005,-4.4978,-4.4814,-4.4803,-4.4561,-4.365,-4.3403,-4.3058,-4.1741,-4.1418,-4.1223,-4.0656,-4.051,-4.0461,-4.033,-4.0305,-4.0263,-4.0138,-4.0096,-4.0096,-4.0096,0.0,0.0,0.0,0.0,0.0,0.0,-3.0347,-2.84,-2.6826,0.0,0.0,0.0,0.0,0.0,0.0,0.0,0.0,-3.2226,-3.4455,0.0,-3.7889,-3.8633,-3.9377,-4.0096,-4.0096,-4.0096,-4.013,-4.0849,-4.1593,-4.2337,-4.3081,-4.3759,-4.431,-4.431,-4.431,-4.431,-4.431,-4.444,-4.457,-4.4367,-4.4224,-4.4068,-5.1395,-5.1481,-5.1808,-5.2856,-5.3028,-5.3201,-5.3701,-5.3787,-5.3787,-5.3787,-5.3787,-5.3787,-5.3787,-5.2808,-5.2188,0.0,-5.1981,-5.1843,0.0,-5.1166,-5.0752,-5.0752,-5.0287,-5.0011,-5.0011,-4.9752,-4.9252,-4.8448,0.0,0.0,0.0,-4.3837,-4.3708,-4.4009,-4.4785,-4.5336,-4.5694,-4.6244,-4.6505,-4.6554,-4.6442,-4.6402,-4.6346,-4.622,-4.6162,-4.6094,-4.5563,-4.5348,-4.5263,-4.4784,-4.4615,-4.4598,-4.4709,-4.4737,-4.4737,-4.4793,-4.4737,-4.4603,-4.431,-4.3826,-4.3183,-4.2238,-4.1654,-4.1078,-4.0383,-4.0238,-4.0238,-4.0163,-4.0163,-4.0163,-4.0113,-4.0096,-4.0096,-4.0096,-3.9056,0.0,0.0,0.0,0.0,0.0,-3.0784,-2.9567,0.0,-2.8552,0.0,0.0,0.0,0.0,0.0,0.0,0.0,0.0,-3.5233,0.0,-3.8633,-3.9377,-3.9876,-4.0096,-4.0096,-4.0096,-4.013,-4.0865,-4.1593,-4.2337,-4.2989,-4.3609,-4.4155,-4.4023,-4.3919,-4.3814,-4.3919,-4.3948,-4.3919,-4.386,-4.3654,-4.3386,-5.2567,-5.2666,-5.2908,-5.3684,-5.3822,-5.3977,-5.4443,-5.4512,-5.4512,-5.4512,-5.4512,-5.4512,-5.4512,-5.3649,0.0,-5.3049,-5.2822,-5.2666,-5.2666,-5.1959,-5.1498,-5.1498,-5.0821,-5.0424,-5.0424,-5.0149,0.0,-4.924,-4.8482,-4.7465,-4.6259,-4.6259,-4.6259,-4.6276,-4.6803,-4.6928,-4.6762,-4.7288,-4.7364,-4.7101,-4.7031,-4.6973,-4.6932,-4.6815,-4.6786,-4.6735,-4.6278,-4.6109,-4.6041,-4.5568,-4.5444,-4.5393,-4.5094,-4.4993,-4.497,-4.4794,-4.4654,-4.4615,-4.4615,-4.4215,-4.3673,-4.2895,-4.2151,-4.1339,-4.0333,-4.0096,-4.0096,-4.0096,-4.0096,-4.0096,-4.0096,-4.0096,-4.0096,-4.0096,-3.9089,-3.8227,-3.7939,0.0,0.0,0.0,0.0,0.0,0.0,-3.0516,-3.0598,0.0,0.0,0.0,0.0,0.0,0.0,-3.418,-3.6434,-3.8082,-3.8988,-3.974,-4.0096,-4.0096,-4.0062,-4.0121,-4.0399,-4.1131,-4.1829,-4.2471,-4.3087,-4.3473,-4.373,-4.3535,-4.3416,-4.3355,-4.3416,-4.3446,-4.3399,-4.3355,-4.3096,-4.2741,-5.3339,-5.3477,-5.3701,0.0,-5.4512,0.0,-5.4512,-5.4512,-5.4512,-5.4512,-5.4512,-5.4512,-5.4512,-5.4512,-5.4512,-5.4512,0.0,0.0,0.0,-5.2735,-5.2274,-5.2274,-5.155,-5.1183,-5.1183,-5.043,-5.0033,-4.9982,-4.9212,-4.8488,-4.7817,-4.7817,-4.7817,-4.7817,-4.7817,-4.7761,-4.7637,-4.7637,-4.7432,-4.7126,-4.7126,-4.7056,-4.6938,-4.6938,-4.6938,-4.6938,-4.6887,-4.687,-4.6853,-4.6802,-4.6786,-4.6667,-4.5991,-4.5788,-4.5618,-4.4852,-4.4615,-4.4615,-4.4615,-4.4615,-4.4429,-4.3606,-4.2861,-4.1914,-4.0502,-4.018,-4.0163,-4.0113,-4.0096,-4.0096,-4.0096,-4.0096,-4.0079,-4.0028,-3.9394,-3.8667,-3.7939,0.0,0.0,0.0,0.0,0.0,0.0,-3.2544,-3.2499,0.0,0.0,0.0,0.0,0.0,-3.5076,-3.5735,-3.7872,-3.9005,-3.9073,-3.9749,-4.0087,-4.0062,-3.991,-4.0167,-4.0789,-4.1542,-4.215,-4.2691,-4.3293,-4.3369,-4.3035,-4.2883,-4.2837,-4.2806,-4.2837,-4.2883,-4.2974,-4.2852,-4.2539,-4.219,0.0,0.0,-5.4305,-5.4477,-5.4512,-5.4512,-5.4512,-5.4512,-5.4512,-5.4512,-5.4512,-5.4512,-5.4512,-5.4512,-5.4512,-5.4512,-5.4339,-5.4253,-5.4253,-5.3529,-5.3132,-5.3132,-5.2373,-5.1929,-5.1929,-5.1116,-5.0326,-4.9607,-4.9436,-4.9247,-4.9076,-4.9076,-4.9076,-4.9076,-4.9076,-4.8988,-4.8792,-4.8792,-4.8672,-4.8538,-4.8538,-4.8508,-4.8477,-4.8477,-4.8477,-4.8409,-4.7851,-4.7648,-4.7564,-4.6989,-4.6786,-4.6752,-4.6583,-4.6532,-4.6278,-4.4987,-4.4615,-4.4615,-4.4615,-4.4615,-4.4429,-4.3606,-4.2861,-4.2049,-4.1153,-4.0933,-4.0781,-4.0231,-4.0096,-4.0096,-4.0096,-4.0096,-3.9926,-3.9368,-3.8633,-3.7905,-3.7144,-3.5723,0.0,0.0,-3.4539,-3.4443,-3.5627,-3.5076,-3.5144,0.0,0.0,0.0,0.0,-3.7468,-3.7651,-3.7358,-3.843,-3.9259,-3.9842,-3.9902,-3.9849,-3.9642,-3.9451,-3.9737,-4.0458,-4.1161,-4.1806,-4.2343,-4.2966,-4.2927,-4.2475,-4.2349,-4.2142,-4.1916,-4.2013,-4.2013,-4.1932,-4.1916,-4.1737,-4.1507,-5.4512,-5.4512,-5.4512,-5.4512,-5.4512,-5.4512,-5.4512,-5.4512,-5.4512,-5.4512,-5.4512,-5.4512,-5.4512,-5.4512,-5.4512,-5.4512,-5.4512,-5.4512,-5.4512,-5.4132,-5.3908,-5.3908,-5.3166,-5.2722,-5.2595,-5.1829,-5.0952,-5.0,-5.0,-4.9829,-4.9518,-4.9518,-4.9518,-4.9518,-4.9518,-4.9398,-4.9199,-4.9199,-4.9107,-4.9001,-4.9001,-4.9001,-4.9001,-4.9001,-4.9001,-4.8951,-4.8562,-4.8409,-4.8359,-4.7936,-4.78,-4.775,-4.7411,-4.731,-4.7073,-4.5923,-4.5376,-4.501,-4.4699,-4.4615,-4.4429,-4.3606,-4.3115,-4.2608,-4.1863,-4.1441,-4.1085,-4.0679,-4.0333,-4.0096,-4.0096,-4.0096,-3.9859,-3.9106,-3.8379,-3.7652,-3.6914,-3.6084,0.0,-3.5965,-3.5987,-3.6268,-3.7047,-3.6585,-3.6508,-3.7228,-3.6763,0.0,-3.7643,-3.8076,-3.8304,-3.8308,-3.9024,-3.9531,-3.9833,-3.9599,-3.9372,-3.9175,-3.9325,-3.9741,-4.0422,-4.1114,-4.1716,-4.2174,-4.2424,-4.2285,-4.1819,-4.1703,-4.1554,-4.1372,-4.1456,-4.1439,-4.1388,-4.1388,-4.1239,-4.107,-5.4512,-5.4512,-5.4512,-5.4512,-5.4512,-5.4512,-5.4512,-5.4512,-5.4512,-5.4512,-5.4512,-5.4512,-5.4512,-5.4512,-5.4512,-5.4512,-5.4512,-5.4512,-5.4512,-5.4512,-5.4512,-5.4512,-5.3908,-5.3501,-5.3324,-5.254,-5.1662,-5.0694,-5.0694,-5.037,-4.9752,-4.9632,-4.9598,-4.9581,-4.9462,-4.932,-4.9168,-4.9168,-4.9107,-4.9001,-4.9001,-4.9001,-4.9001,-4.9001,-4.9001,-4.9001,-4.9001,-4.9001,-4.9001,-4.9001,-4.9001,-4.89,-4.8244,-4.8058,-4.7936,-4.7175,-4.6515,-4.5855,-4.4993,-4.4682,-4.4445,-4.3758,-4.3589,-4.3403,-4.2642,-4.1982,-4.1474,-4.1255,-4.0696,-4.0231,-4.013,-4.0096,-3.9859,-3.9106,-3.8379,-3.7686,-3.7066,0.0,-3.677,-3.6807,-3.7388,-3.7751,-3.7736,-3.7527,-3.7316,-3.7084,-3.6944,-3.7143,-3.7812,-3.7844,-3.8127,-3.8748,-3.9411,-3.9642,-3.9379,-3.9023,-3.8854,-3.883,-3.9235,-3.9803,-4.0524,-4.1091,-4.1595,-4.198,-4.185,-4.1587,-4.1223,-4.1086,-4.1034,-4.1016,-4.1016,-4.1016,-4.1016,-4.1016,-4.0882,-4.0765,-5.4512,-5.4512,-5.4512,-5.4512,-5.4512,-5.4512,-5.4512,-5.4512,-5.4512,-5.4512,-5.4512,-5.4512,-5.4512,-5.4512,-5.4512,-5.4512,-5.4512,-5.4512,-5.4512,-5.4512,-5.4512,-5.4512,-5.4391,-5.4308,-5.429,-5.3283,-5.2213,-5.1112,-5.1112,-5.1044,-5.0926,-5.0314,-5.0009,-4.9992,-4.9365,-4.9063,-4.9032,-4.9032,-4.9032,-4.9001,-4.9001,-4.9001,-4.9001,-4.9001,-4.9001,-4.9001,-4.9001,-4.9001,-4.9001,-4.9001,-4.9001,-4.8984,-4.8883,-4.8832,-4.8697,-4.797,-4.7635,-4.7246,-4.5906,-4.506,-4.4581,-4.4445,-4.4401,-4.4198,-4.342,-4.3122,-4.2699,-4.1457,-4.1119,-4.0832,-4.0214,-4.0096,-3.9859,-3.9106,-3.8379,-3.7872,-3.7753,0.0,-3.6975,-3.8129,-3.8119,-3.8228,-3.8708,-3.8515,-3.8379,-3.8324,-3.8191,-3.8212,-3.846,-3.846,-3.8515,-3.8641,-3.8957,-3.9023,-3.875,-3.8399,-3.8463,-3.8884,-3.8699,-3.9247,-4.0499,-4.061,-4.0957,-4.1423,-4.139,-4.1205,-4.0901,-4.0867,-4.0746,-4.0593,-4.0593,-4.0593,-4.0593,-4.0593,-4.0558,-4.0558,-5.4367,-5.4448,-5.4512,-5.4512,-5.4512,-5.4512,-5.4512,-5.4512,-5.4512,-5.4512,-5.4512,-5.4512,-5.4512,-5.4512,-5.4512,-5.4512,-5.4512,-5.4448,-5.4335,-5.4448,-5.4512,-5.4512,-5.4512,-5.4416,-5.4239,-5.3575,-5.2752,-5.1792,-5.1792,-5.1606,-5.1185,-5.0862,-5.0693,-5.0659,-4.9915,-4.9593,-4.956,-4.9171,-4.9001,-4.9001,-4.9001,-4.9001,-4.9001,-4.9001,-4.9001,-4.9001,-4.9001,-4.9001,-4.9001,-4.9001,-4.9001,-4.9001,-4.9001,-4.9001,-4.8934,-4.8595,-4.7665,-4.6583,-4.5889,-4.5162,-4.4615,-4.4615,-4.4615,-4.4513,-4.413,-4.3724,-4.3206,-4.254,-4.2004,-4.1471,-4.0712,-4.0464,-3.999,-3.8816,-3.8288,0.0,0.0,-3.7444,-3.7561,-3.8157,-3.8309,-3.8401,-3.8507,-3.8274,-3.8075,-3.7972,-3.7844,-3.7786,-3.7857,-3.7857,-3.7886,-3.7943,-3.8258,-3.8315,-3.8119,-3.777,-3.7914,-3.8521,-3.8654,-3.9234,-4.0222,-4.0629,-4.0908,-4.1021,-4.1021,-4.0885,-4.0627,-4.0627,-4.0593,-4.0489,-4.0489,-4.0489,-4.0489,-4.0489,-4.0489,-4.0489,-5.4175,-5.4271,-5.4367,-5.4367,-5.4367,-5.4367,-5.4367,-5.4367,-5.4367,-5.4367,-5.4367,-5.4367,-5.4367,-5.4367,-5.4367,-5.4367,-5.4367,-5.4303,-5.4175,-5.4303,-5.4367,-5.4367,-5.4367,-5.4239,-5.3948,-5.3685,-5.323,-5.2587,-5.2587,-5.23,-5.1742,-5.1555,-5.1471,-5.1437,-5.0676,-5.0355,-5.0321,-4.9746,-4.9509,-4.9509,-4.9323,-4.9255,-4.9238,-4.9069,-4.9001,-4.9001,-4.9001,-4.9001,-4.9001,-4.9001,-4.9001,-4.9001,-4.9001,-4.9001,-4.9001,-4.9001,-4.7682,-4.6177,-4.6007,-4.5415,-4.4869,-4.4869,-4.4733,-4.4615,-4.4615,-4.4085,-4.354,-4.3344,-4.2745,-4.1986,-4.1161,-4.0738,-4.0066,-3.8861,0.0,0.0,0.0,-3.7793,-3.7976,-3.799,-3.8241,-3.8274,-3.7956,-3.7685,-3.7464,-3.7314,-3.7194,-3.7134,-3.7134,-3.7134,-3.7194,-3.7238,-3.7565,-3.7669,-3.7524,-3.7397,-3.7653,-3.8357,-3.8854,-3.9474,-4.0124,-4.0717,-4.0898,-4.073,-4.073,-4.0627,-4.0489,-4.0489,-4.0489,-4.0489,-4.0489,-4.0489,-4.0489,-4.0489,-4.0489,-4.0489,-5.4013,-5.4013,-5.4045,-5.4045,-5.4045,-5.4045,-5.4045,-5.4045,-5.4045,-5.4045,-5.4045,-5.4045,-5.4045,-5.4045,-5.4045,-5.4045,-5.4045,-5.4013,-5.4013,-5.4013,-5.4045,-5.4045,-5.4045,-5.3948,-5.375,-5.3717,-5.36,-5.3416,-5.3416,-5.3382,-5.3315,-5.257,-5.2232,-5.2198,-5.1454,-5.1133,-5.1133,-5.105,-5.1048,-5.0997,-5.0287,-5.0016,-4.9932,-4.9255,-4.9001,-4.9001,-4.9001,-4.9001,-4.9001,-4.9001,-4.9001,-4.9001,-4.9001,-4.9001,-4.9001,-4.9001,-4.8409,-4.7597,-4.6904,-4.6177,-4.5618,-4.5618,-4.5094,-4.4615,-4.4615,-4.439,-4.3995,-4.3211,-4.2824,-4.233,-4.13,-4.0583,-4.005,-3.9745,0.0,0.0,-3.8586,-3.8025,-3.7714,-3.8209,-3.7956,-3.7685,-3.7476,-3.7225,-3.7045,-3.703,-3.703,-3.6999,-3.6999,-3.6999,-3.6923,-3.6754,-3.7074,-3.718,-3.706,-3.7452,-3.8025,-3.877,-3.9239,-3.9801,-4.0462,-4.0509,-4.0539,-4.0524,-4.0524,-4.0524,-4.0489,-4.0489,-4.0489,-4.0489,-4.0489,-4.0489,-4.0489,-4.0489,-4.0489,-4.0489,-5.3849,-5.3915,-5.398,-5.398,-5.398,-5.398,-5.398,-5.398,-5.398,-5.398,-5.398,-5.398,-5.398,-5.398,-5.398,-5.398,-5.398,-5.3948,-5.3816,-5.3816,-5.3882,-5.398,-5.3882,-5.3783,-5.37,-5.3634,-5.3551,-5.3501,-5.3501,-5.3501,-5.3501,-5.3196,-5.3044,-5.301,-5.2232,-5.1894,-5.186,-5.1371,-5.1185,-5.12,-5.0896,-5.0777,-5.076,-5.0473,-5.0371,-5.0371,-5.0371,-5.0067,-4.9678,-4.9678,-4.9373,-4.9001,-4.9001,-4.9001,-4.9001,-4.9001,-4.8798,-4.8528,-4.824,-4.7293,-4.6261,-4.5821,-4.55,-4.5116,-4.4541,-4.4298,-4.4026,-4.3465,-4.3135,-4.2607,-4.1542,-4.0961,-4.0328,-3.9293,0.0,-3.812,-3.8135,-3.7735,-3.7495,-3.7738,-3.7449,-3.7195,-3.6983,-3.6785,-3.6677,-3.6677,-3.6677,-3.6677,-3.6677,-3.6677,-3.6647,-3.6569,-3.7111,-3.7359,-3.7312,-3.7496,-3.8143,-3.9221,-3.94,-3.9844,-4.0489,-4.0489,-4.0489,-4.0489,-4.0489,-4.0489,-4.0489,-4.0489,-4.0489,-4.0489,-4.0489,-4.0489,-4.0489,-4.0489,-4.0489,-4.0489,-5.3651,-5.3767,-5.3833,-5.3833,-5.3833,-5.3833,-5.3833,-5.3833,-5.3833,-5.3833,-5.3833,-5.3833,-5.3833,-5.3833,-5.3833,-5.3833,-5.3833,-5.38,-5.3668,-5.3634,-5.3701,-5.3833,-5.3701,-5.3634,-5.3634,-5.3551,-5.3501,-5.3501,-5.3501,-5.3501,-5.3501,-5.3501,-5.3501,-5.3484,-5.2926,-5.2689,-5.2638,-5.2147,-5.1928,-5.1911,-5.1657,-5.1555,-5.1539,-5.1269,-5.1185,-5.1185,-5.1185,-5.0879,-5.0439,-5.0439,-5.0118,-4.9661,-4.9424,-4.9187,-4.9001,-4.9001,-4.9001,-4.9001,-4.9001,-4.8257,-4.731,-4.6583,-4.6041,-4.5493,-4.4735,-4.4248,-4.3818,-4.3369,-4.3035,-4.2518,-4.1595,-4.1087,-4.042,-3.9297,-3.8826,-3.8401,-3.7861,-3.769,-3.7506,-3.7315,-3.7075,-3.6862,-3.6723,-3.6569,-3.6492,-3.6492,-3.6492,-3.6584,-3.6799,-3.6799,-3.6907,-3.7123,-3.7569,-3.7923,-3.8138,-3.8138,-3.86,-3.949,-3.9705,-4.0043,-4.0489,-4.0489,-4.0489,-4.0489,-4.0489,-4.0489,-4.0489,-4.0489,-4.0489,-4.0489,-4.0489,-4.0489,-4.0489,-4.0489,-4.0489,-4.0489,-5.3501,-5.3501,-5.3501,-5.3501,-5.3501,-5.3501,-5.3501,-5.3501,-5.3501,-5.3501,-5.3501,-5.3501,-5.3501,-5.3501,-5.3501,-5.3501,-5.3501,-5.3501,-5.3501,-5.3501,-5.3501,-5.3501,-5.3501,-5.3501,-5.3501,-5.3501,-5.3501,-5.3501,-5.3501,-5.3501,-5.3501,-5.3501,-5.3501,-5.3501,-5.3501,-5.3501,-5.3501,-5.3501,-5.3501,-5.3433,-5.2638,-5.2317,-5.2232,-5.1505,-5.1202,-5.1202,-5.1202,-5.1202,-5.1217,-5.1217,-5.1185,-5.1082,-5.0338,-4.9593,-4.9018,-4.9018,-4.9001,-4.9001,-4.9001,-4.9001,-4.8832,-4.8075,-4.6819,-4.5633,-4.5274,-4.4393,-4.3399,-4.2741,-4.2317,-4.1948,-4.1374,-4.0758,-4.0237,-4.0025,-3.9431,-3.8761,-3.8107,-3.7997,-3.7748,-3.7093,-3.6847,-3.6693,-3.6693,-3.6569,-3.6492,-3.6492,-3.6492,-3.6799,-3.7477,-3.7507,-3.7815,-3.8492,-3.8523,-3.8846,-3.9474,-3.949,-3.949,-3.9539,-4.0166,-4.0489,-4.0489,-4.0489,-4.0489,-4.0489,-4.0489,-4.0489,-4.0489,-4.0489,-4.0489,-4.0489,-4.0489,-4.0489,-4.0489,-4.0489,-4.0489,-4.0489,-5.3501,-5.3501,-5.3501,-5.3501,-5.3501,-5.3501,-5.3501,-5.3501,-5.3501,-5.3501,-5.3501,-5.3501,-5.3501,-5.3501,-5.3501,-5.3501,-5.3501,-5.3501,-5.3501,-5.3501,-5.3501,-5.3501,-5.3501,-5.3501,-5.3501,-5.3501,-5.3501,-5.3501,-5.3501,-5.3501,-5.3501,-5.3501,-5.3501,-5.3501,-5.3501,-5.3501,-5.3501,-5.3501,-5.3501,-5.3484,-5.3247,-5.3145,-5.3129,-5.2909,-5.2824,-5.2824,-5.2824,-5.2452,-5.1978,-5.1978,-5.164,-5.1151,-5.0947,-5.0371,-4.9763,-4.9763,-4.9407,-4.897,-4.8894,-4.8863,-4.8726,-4.8075,-4.7443,-4.6804,-4.5965,-4.484,-4.3835,-4.317,-4.2348,-4.1588,-4.107,-4.0798,-4.0435,-3.9753,-3.9473,-3.9117,-3.8438,-3.8345,-3.8083,-3.7419,-3.7294,-3.7078,-3.66,-3.6523,-3.6492,-3.6492,-3.6938,-3.7492,-3.8169,-3.82,-3.8292,-3.8492,-3.897,-3.929,-3.949,-3.949,-3.9721,-4.0197,-4.0397,-4.0489,-4.0489,-4.0489,-4.0489,-4.0489,-4.0489,-4.0489,-4.0489,-4.0489,-4.0489,-4.0489,-4.0489,-4.0489,-4.0489,-4.0489,-4.0489,-4.0489,-5.3501,-5.3501,-5.3501,-5.3501,-5.3501,-5.3501,-5.3501,-5.3501,-5.3501,-5.3501,-5.3501,-5.3501,-5.3501,-5.3501,-5.3501,-5.3501,-5.3501,-5.3501,-5.3501,-5.3501,-5.3501,-5.3501,-5.3501,-5.3501,-5.3501,-5.3501,-5.3501,-5.3501,-5.3501,-5.3501,-5.3501,-5.3501,-5.3501,-5.3501,-5.3501,-5.3501,-5.3501,-5.3501,-5.3501,-5.3501,-5.3501,-5.3501,-5.3501,-5.3501,-5.3501,-5.3501,-5.3501,-5.3196,-5.2773,-5.2773,-5.2283,-5.1657,-5.1657,-5.1133,-5.0541,-5.0541,-4.997,-4.9333,-4.9175,-4.8782,-4.8351,-4.7916,-4.7596,-4.7182,-4.6343,-4.5191,-4.401,-4.3097,-4.2232,-4.1484,-4.0811,-4.0696,-4.0504,-3.9985,-3.989,-3.9644,-3.9,-3.8908,-3.8662,-3.7984,-3.7908,-3.7738,-3.7323,-3.7292,-3.7292,-3.7292,-3.7677,-3.82,-3.8877,-3.8908,-3.9031,-3.9259,-3.9674,-3.989,-3.989,-3.989,-4.009,-4.0489,-4.0489,-4.0489,-4.0489,-4.0489,-4.0489,-4.0489,-4.0489,-4.0489,-4.0489,-4.0489,-4.0489,-4.0489,-4.0489,-4.0489,-4.0489,-4.0489,-4.0489,-4.0489,-5.3501,-5.3501,-5.3501,-5.3501,-5.3501,-5.3501,-5.3501,-5.3501,-5.3501,-5.3501,-5.3501,-5.3501,-5.3501,-5.3501,-5.3501,-5.3501,-5.3501,-5.3501,-5.3501,-5.3501,-5.3501,-5.3501,-5.3501,-5.3501,-5.3501,-5.3501,-5.3501,-5.3501,-5.3501,-5.3501,-5.3501,-5.3501,-5.3501,-5.3501,-5.3501,-5.3501,-5.3501,-5.3501,-5.3501,-5.3501,-5.3501,-5.3501,-5.3501,-5.3501,-5.3501,-5.3501,-5.3501,-5.3501,-5.3501,-5.3501,-5.301,-5.2418,-5.2418,-5.1911,-5.1286,-5.1286,-5.065,-4.9868,-4.9589,-4.8712,-4.7853,-4.7638,-4.7292,-4.6893,-4.6536,-4.5404,-4.4093,-4.2845,-4.2225,-4.1628,-4.0755,-4.0597,-4.0566,-4.0505,-4.0489,-4.0274,-3.9659,-3.9582,-3.9354,-3.8677,-3.86,-3.8585,-3.8523,-3.8508,-3.8539,-3.86,-3.86,-3.8893,-3.9536,-3.9582,-3.9859,-4.0474,-4.0489,-4.0489,-4.0489,-4.0489,-4.0489,-4.0489,-4.0489,-4.0489,-4.0489,-4.0489,-4.0489,-4.0489,-4.0489,-4.0489,-4.0489,-4.0489,-4.0489,-4.0489,-4.0489,-4.0489,-4.0489,-4.0489,-4.0489,-4.0489,-5.3501,-5.3501,-5.3501,-5.3501,-5.3501,-5.3501,-5.3501,-5.3501,-5.3501,-5.3501,-5.3501,-5.3501,-5.3501,-5.3501,-5.3501,-5.3501,-5.3501,-5.3501,-5.3501,-5.3501,-5.3501,-5.3501,-5.3501,-5.3501,-5.3501,-5.3501,-5.3501,-5.3501,-5.3501,-5.3501,-5.3501,-5.3501,-5.3501,-5.3501,-5.3501,-5.3501,-5.3501,-5.3501,-5.3501,-5.3501,-5.3501,-5.3501,-5.3501,-5.3501,-5.3501,-5.3501,-5.3501,-5.3501,-5.3501,-5.3501,-5.3382,-5.3247,-5.3247,-5.2706,-5.2047,-5.1949,-5.1145,-5.0093,-4.9226,-4.8456,-4.7747,-4.7006,-4.6523,-4.6341,-4.6718,-4.5775,-4.4729,-4.4161,-4.325,-4.2339,-4.1514,-4.137,-4.1186,-4.0582,-4.0489,-4.0443,-4.029,-4.0274,-4.0028,-3.9351,-3.9259,-3.9093,-3.8554,-3.8508,-3.8723,-3.9262,-3.9259,-3.9567,-4.0243,-4.0274,-4.0336,-4.0489,-4.0489,-4.0489,-4.0489,-4.0489,-4.0489,-4.0489,-4.0489,-4.0489,-4.0489,-4.0489,-4.0489,-4.0489,-4.0489,-4.0489,-4.0489,-4.0489,-4.0489,-4.0489,-4.0489,-4.0489,-4.0489,-4.0489,-4.0489,-4.0489,-5.3501,-5.3501,-5.3501,-5.3501,-5.3501,-5.3501,-5.3501,-5.3501,-5.3501,-5.3501,-5.3501,-5.3501,-5.3501,-5.3501,-5.3501,-5.3501,-5.3501,-5.3501,-5.3501,-5.3501,-5.3501,-5.3501,-5.3501,-5.3501,-5.3501,-5.3501,-5.3501,-5.3501,-5.3501,-5.3501,-5.3501,-5.3501,-5.3501,-5.3501,-5.3501,-5.3501,-5.3501,-5.3501,-5.3501,-5.3501,-5.3501,-5.3501,-5.3501,-5.3501,-5.3501,-5.3501,-5.3501,-5.3501,-5.3501,-5.3501,-5.3501,-5.3501,-5.3501,-5.3146,-5.2691,-5.242,-5.1542,-5.0413,-4.9475,-4.8375,-4.7349,-4.6729,-4.609,-4.5744,-4.623,-4.5711,-4.4912,-4.4325,-4.3661,-4.2942,-4.2202,-4.1817,-4.1478,-4.1109,-4.072,-4.0489,-4.0489,-4.0489,-4.0366,-4.0013,-3.9967,-3.9828,-3.9474,-3.9428,-3.9582,-3.9936,-3.9967,-4.012,-4.0474,-4.0489,-4.0489,-4.0489,-4.0489,-4.0489,-4.0489,-4.0489,-4.0489,-4.0489,-4.0489,-4.0489,-4.0489,-4.0489,-4.0489,-4.0489,-4.0489,-4.0489,-4.0489,-4.0489,-4.0489,-4.0489,-4.0489,-4.0489,-4.0489,-4.0489,-4.0489,-4.0489,-5.3501,-5.3501,-5.3501,-5.3501,-5.3501,-5.3501,-5.3501,-5.3501,-5.3501,-5.3501,-5.3501,-5.3501,-5.3501,-5.3501,-5.3501,-5.3501,-5.3501,-5.3501,-5.3501,-5.3501,-5.3501,-5.3501,-5.3501,-5.3501,-5.3501,-5.3501,-5.3501,-5.3501,-5.3501,-5.3501,-5.3501,-5.3501,-5.3501,-5.3501,-5.3501,-5.3501,-5.3501,-5.3501,-5.3501,-5.3501,-5.3501,-5.3501,-5.3501,-5.3501,-5.3501,-5.3501,-5.3501,-5.3501,-5.3501,-5.3467,-5.3467,-5.3433,-5.3348,-5.3195,-5.2972,-5.2555,-5.1682,-5.0634,-4.9844,-4.8456,-4.7103,-4.6551,-4.5834,-4.5307,-4.5452,-4.5326,-4.4943,-4.4214,-4.3905,-4.3578,-4.2894,-4.2325,-4.1894,-4.1786,-4.117,-4.0674,-4.0674,-4.0566,-4.0489,-4.0489,-4.0489,-4.0489,-4.0489,-4.0489,-4.0489,-4.0489,-4.0489,-4.0489,-4.0489,-4.0489,-4.0489,-4.0489,-4.0489,-4.0489,-4.0489,-4.0489,-4.0489,-4.0489,-4.0489,-4.0489,-4.0489,-4.0489,-4.0489,-4.0489,-4.0489,-4.0489,-4.0489,-4.0489,-4.0489,-4.0489,-4.0489,-4.0489,-4.0489,-4.0489,-4.0489,-4.0489,-5.3501,-5.3501,-5.3501,-5.3501,-5.3501,-5.3501,-5.3501,-5.3501,-5.3501,-5.3501,-5.3501,-5.3501,-5.3501,-5.3501,-5.3501,-5.3501,-5.3501,-5.3501,-5.3501,-5.3501,-5.3501,-5.3501,-5.3501,-5.3501,-5.3501,-5.3501,-5.3501,-5.3501,-5.3501,-5.3501,-5.3501,-5.3501,-5.3501,-5.3501,-5.3501,-5.3501,-5.3501,-5.3501,-5.3501,-5.3501,-5.3501,-5.3501,-5.3501,-5.3501,-5.3501,-5.3501,-5.3501,-5.3501,-5.3467,-5.3298,-5.323,-5.3179,-5.2852,-5.259,-5.2343,-5.1931,-5.1225,-5.0352,-4.9493,-4.8607,-4.7558,-4.6307,-4.5742,-4.5411,-4.4847,-4.4836,-4.4933,-4.4803,-4.4584,-4.4271,-4.3593,-4.3408,-4.3162,-4.2571,-4.1894,-4.1447,-4.1447,-4.0924,-4.0489,-4.0489,-4.0489,-4.0489,-4.0489,-4.0489,-4.0489,-4.0489,-4.0489,-4.0489,-4.0489,-4.0489,-4.0489,-4.0489,-4.0489,-4.0489,-4.0489,-4.0489,-4.0489,-4.0489,-4.0489,-4.0489,-4.0489,-4.0489,-4.0489,-4.0489,-4.0489,-4.0489,-4.0489,-4.0489,-4.0489,-4.0489,-4.0489,-4.0489,-4.0489,-4.0489,-4.0489,-4.0489,-5.3501,-5.3501,-5.3501,-5.3501,-5.3501,-5.3501,-5.3501,-5.3501,-5.3501,-5.3501,-5.3501,-5.3501,-5.3501,-5.3501,-5.3501,-5.3501,-5.3501,-5.3501,-5.3501,-5.3501,-5.3501,-5.3501,-5.3501,-5.3501,-5.3501,-5.3501,-5.3501,-5.3501,-5.3501,-5.3501,-5.3501,-5.3501,-5.3501,-5.3501,-5.3501,-5.3501,-5.3501,-5.3501,-5.3501,-5.3501,-5.3501,-5.3501,-5.3501,-5.3501,-5.3501,-5.3501,-5.3382,-5.3264,-5.3127,-5.2921,-5.2731,-5.2503,-5.2326,-5.204,-5.1696,-5.1177,-5.0701,-5.0135,-4.9315,-4.8549,-4.7834,-4.7024,-4.622,-4.5511,-4.5218,-4.4925,-4.4723,-4.4723,-4.4648,-4.4533,-4.4225,-4.3855,-4.3516,-4.3223,-4.2586,-4.2171,-4.2171,-4.1571,-4.0951,-4.0551,-4.0489,-4.0489,-4.0489,-4.0489,-4.0489,-4.0489,-4.0489,-4.0489,-4.0489,-4.0489,-4.0489,-4.0489,-4.0489,-4.0489,-4.0489,-4.0489,-4.0489,-4.0489,-4.0489,-4.0489,-4.0489,-4.0489,-4.0489,-4.0489,-4.0489,-4.0489,-4.0489,-4.0489,-4.0489,-4.0489,-4.0489,-4.0489,-4.0489,-4.0489,-4.0489,-4.0489]},{"header":{"parameterUnit":"m.s-1","parameterCategory":1,"la1":30.6,"la2":28.766,"lo1":-90.7593,"lo2":-88.6598,"dy":0.0162,"dx":0.0183,"nx":116,"ny":114,"refTime":"2024-05-28T12:00:00:Z","depth":0,"parameterNumber":3,"parameterNumberName":"V-component_of_WINDS"},"data":[0.0,0.0,0.0,0.0,0.0,0.0,0.0,0.0,0.0,0.0,0.0,0.0,0.0,0.0,0.0,0.0,0.0,0.0,0.0,0.0,0.0,0.0,0.0,0.0,0.0,0.0,0.0,0.0,0.0,0.0,0.0,0.0,0.0,0.0,0.0,0.0,0.0,0.0,0.0,0.0,0.0,0.0,0.0,0.0,0.0,0.0,0.0,0.0,0.0,0.0,0.0,0.0,0.0,0.0,0.0,0.0,0.0,0.0,0.0,0.0,0.0,0.0,0.0,0.0,0.0,0.0,0.0,0.0,0.0,0.0,0.0,0.0,0.0,0.0,0.0,0.0,0.0,0.0,0.0,0.0,0.0,0.0,0.0,0.0,0.0,0.0,0.0,0.0,0.0,0.0,0.0,0.0,0.0,0.0,0.0,0.0,0.0,0.0,0.0,0.0,0.0,0.0,0.0,0.0,0.0,0.0,0.0,0.0,0.0,0.0,0.0,0.0,0.0,0.0,0.0,0.0,0.0,0.0,0.0,0.0,0.0,0.0,0.0,0.0,0.0,0.0,0.0,0.0,0.0,0.0,0.0,0.0,0.0,0.0,0.0,0.0,0.0,0.0,0.0,0.0,0.0,0.0,0.0,0.0,0.0,0.0,0.0,0.0,0.0,0.0,0.0,0.0,0.0,0.0,0.0,0.0,0.0,0.0,0.0,0.0,0.0,0.0,0.0,0.0,0.0,0.0,0.0,0.0,0.0,0.0,0.0,0.0,0.0,0.0,0.0,0.0,0.0,0.0,0.0,0.0,0.0,0.0,0.0,0.0,0.0,0.0,0.0,0.0,0.0,0.0,0.0,0.0,0.0,0.0,0.0,0.0,0.0,0.0,0.0,0.0,0.0,0.0,0.0,0.0,0.0,0.0,0.0,0.0,0.0,0.0,0.0,0.0,0.0,0.0,0.0,0.0,0.0,0.0,0.0,0.0,0.0,0.0,0.0,0.0,0.0,0.0,0.0,0.0,0.0,0.0,0.0,0.0,0.0,0.0,0.0,0.0,0.0,0.0,0.0,0.0,0.0,0.0,0.0,0.0,0.0,0.0,0.0,0.0,0.0,0.0,0.0,0.0,0.0,0.0,0.0,0.0,0.0,0.0,0.0,0.0,0.0,0.0,0.0,0.0,0.0,0.0,0.0,0.0,0.0,0.0,0.0,0.0,0.0,0.0,0.0,0.0,0.0,0.0,0.0,0.0,0.0,0.0,0.0,0.0,0.0,0.0,0.0,0.0,0.0,0.0,0.0,0.0,0.0,0.0,0.0,0.0,0.0,0.0,0.0,0.0,0.0,0.0,0.0,0.0,0.0,0.0,0.0,0.0,0.0,0.0,0.0,0.0,0.0,0.0,0.0,0.0,0.0,0.0,0.0,0.0,0.0,0.0,0.0,0.0,0.0,0.0,0.0,0.0,0.0,0.0,0.0,0.0,0.0,0.0,0.0,0.0,0.0,0.0,0.0,0.0,0.0,0.0,0.0,0.0,0.0,0.0,0.0,0.0,0.0,0.0,0.0,0.0,0.0,0.0,0.0,0.0,0.0,0.0,0.0,0.0,0.0,0.0,0.0,0.0,0.0,0.0,0.0,0.0,0.0,0.0,0.0,0.0,0.0,0.0,0.0,0.0,0.0,0.0,0.0,0.0,0.0,0.0,0.0,0.0,0.0,0.0,0.0,0.0,0.0,0.0,0.0,0.0,0.0,0.0,0.0,0.0,0.0,0.0,0.0,0.0,0.0,0.0,0.0,0.0,0.0,0.0,0.0,0.0,0.0,0.0,0.0,0.0,0.0,0.0,0.0,0.0,0.0,0.0,0.0,0.0,0.0,0.0,0.0,0.0,0.0,0.0,0.0,0.0,0.0,0.0,0.0,0.0,0.0,0.0,0.0,0.0,0.0,0.0,0.0,0.0,0.0,0.0,0.0,0.0,0.0,0.0,0.0,0.0,0.0,0.0,0.0,0.0,0.0,0.0,0.0,0.0,0.0,0.0,0.0,0.0,0.0,0.0,0.0,0.0,0.0,0.0,0.0,0.0,0.0,0.0,0.0,0.0,0.0,0.0,0.0,0.0,0.0,0.0,0.0,0.0,0.0,0.0,0.0,0.0,0.0,0.0,0.0,0.0,0.0,0.0,0.0,0.0,0.0,0.0,0.0,0.0,0.0,0.0,0.0,0.0,0.0,0.0,0.0,0.0,0.0,0.0,0.0,0.0,0.0,0.0,0.0,0.0,0.0,0.0,0.0,0.0,0.0,0.0,0.0,0.0,0.0,0.0,0.0,0.0,0.0,0.0,0.0,0.0,0.0,0.0,0.0,0.0,0.0,0.0,0.0,0.0,0.0,0.0,0.0,0.0,0.0,0.0,0.0,0.0,0.0,0.0,0.0,0.0,0.0,0.0,0.0,0.0,0.0,0.0,0.0,0.0,0.0,0.0,0.0,0.0,0.0,0.0,0.0,0.0,0.0,0.0,0.0,0.0,0.0,0.0,0.0,0.0,0.0,0.0,0.0,0.0,0.0,0.0,0.0,0.0,0.0,0.0,0.0,0.0,0.0,0.0,0.0,0.0,0.0,0.0,0.0,0.0,0.0,0.0,0.0,0.0,0.0,0.0,0.0,0.0,0.0,0.0,0.0,0.0,0.0,0.0,0.0,0.0,0.0,0.0,0.0,0.0,0.0,0.0,0.0,0.0,0.0,0.0,0.0,0.0,0.0,0.0,0.0,0.0,0.0,0.0,0.0,0.0,0.0,0.0,0.0,0.0,0.0,0.0,0.0,0.0,0.0,0.0,0.0,0.0,0.0,0.0,0.0,0.0,0.0,0.0,0.0,0.0,0.0,0.0,0.0,0.0,0.0,0.0,0.0,0.0,0.0,0.0,0.0,0.0,0.0,0.0,0.0,0.0,0.0,0.0,0.0,0.0,0.0,0.0,0.0,0.0,0.0,0.0,0.0,0.0,0.0,0.0,0.0,0.0,0.0,0.0,0.0,0.0,0.0,0.0,0.0,0.0,0.0,0.0,0.0,0.0,0.0,0.0,0.0,0.0,0.0,0.0,0.0,0.0,0.0,0.0,0.0,0.0,0.0,0.0,0.0,0.0,0.0,0.0,0.0,0.0,0.0,0.0,0.0,0.0,0.0,0.0,0.0,0.0,0.0,0.0,0.0,0.0,0.0,0.0,0.0,0.0,0.0,0.0,0.0,0.0,0.0,0.0,0.0,0.0,0.0,0.0,0.0,0.0,0.0,0.0,0.0,0.0,0.0,0.0,0.0,0.0,0.0,0.0,0.0,0.0,0.0,0.0,0.0,0.0,0.0,0.0,0.0,0.0,0.0,0.0,0.0,0.0,0.0,0.0,0.0,0.0,0.0,0.0,0.0,0.0,0.0,0.0,0.0,0.0,0.0,0.0,0.0,0.0,0.0,0.0,0.0,0.0,0.0,0.0,0.0,0.0,0.0,0.0,0.0,0.0,0.0,0.0,0.0,0.0,0.0,0.0,0.0,0.0,0.0,0.0,0.0,0.0,0.0,0.0,0.0,0.0,0.0,0.0,0.0,0.0,0.0,0.0,0.0,0.0,0.0,0.0,0.0,0.0,0.0,0.0,0.0,0.0,0.0,0.0,0.0,0.0,0.0,0.0,0.0,0.0,0.0,0.0,0.0,0.0,0.0,0.0,0.0,0.0,0.0,0.0,0.0,0.0,0.0,0.0,0.0,0.0,0.0,0.0,0.0,0.0,0.0,0.0,0.0,0.0,0.0,0.0,0.0,0.0,0.0,0.0,0.0,0.0,0.0,0.0,0.0,0.0,0.0,0.0,0.0,0.0,0.0,0.0,0.0,0.0,0.0,0.0,0.0,0.0,0.0,0.0,0.0,0.0,0.0,0.0,0.0,0.0,0.0,0.0,0.0,0.0,0.0,0.0,0.0,0.0,0.0,0.0,0.0,0.0,0.0,0.0,0.0,0.0,0.0,0.0,0.0,0.0,0.0,0.0,0.0,0.0,0.0,0.0,0.0,0.0,0.0,0.0,0.0,0.0,0.0,0.0,0.0,0.0,0.0,0.0,0.0,0.0,0.0,0.0,0.0,0.0,0.0,0.0,0.0,0.0,0.0,0.0,0.0,0.0,0.0,0.0,0.0,0.0,0.0,0.0,0.0,0.0,0.0,0.0,0.0,0.0,0.0,0.0,0.0,0.0,0.0,0.0,0.0,0.0,0.0,0.0,0.0,0.0,0.0,0.0,0.0,0.0,0.0,0.0,0.0,0.0,0.0,0.0,0.0,0.0,0.0,0.0,0.0,0.0,0.0,0.0,0.0,0.0,0.0,0.0,0.0,0.0,0.0,0.0,0.0,0.0,0.0,0.0,0.0,0.0,0.0,0.0,0.0,0.0,0.0,0.0,0.0,0.0,0.0,0.0,0.0,0.0,0.0,0.0,0.0,0.0,0.0,0.0,0.0,0.0,0.0,0.0,0.0,0.0,0.0,0.0,0.0,0.0,0.0,0.0,0.0,0.0,0.0,0.0,0.0,0.0,0.0,0.0,0.0,0.0,0.0,0.0,0.0,0.0,0.0,0.0,0.0,0.0,0.0,0.0,0.0,0.0,0.0,0.0,0.0,0.0,0.0,0.0,0.0,0.0,0.0,0.0,0.0,0.0,0.0,0.0,0.0,0.0,0.0,0.0,0.0,0.0,0.0,0.0,0.0,0.0,0.0,0.0,0.0,0.0,0.0,0.0,0.0,0.0,0.0,0.0,0.0,0.0,0.0,0.0,0.0,0.0,0.0,0.0,0.0,0.0,0.0,0.0,0.0,0.0,0.0,0.0,0.0,0.0,0.0,0.0,0.0,0.0,0.0,0.0,0.0,0.0,0.0,0.0,0.0,0.0,0.0,0.0,0.0,0.0,0.0,0.0,0.0,0.0,0.0,0.0,0.0,0.0,0.0,0.0,0.0,0.0,0.0,0.0,0.0,0.0,0.0,0.0,0.0,0.0,0.0,0.0,0.0,0.0,0.0,0.0,0.0,0.0,0.0,0.0,0.0,0.0,0.0,0.0,0.0,0.0,0.0,0.0,0.0,0.0,0.0,0.0,0.0,0.0,0.0,0.0,0.0,0.0,0.0,0.0,0.0,0.0,0.0,0.0,0.0,0.0,0.0,0.0,0.0,0.0,0.0,0.0,0.0,0.0,0.0,0.0,0.0,0.0,0.0,0.0,0.0,0.0,0.0,0.0,0.0,0.0,0.0,0.0,0.0,0.0,0.0,0.0,0.0,0.0,0.0,0.0,0.0,0.0,0.0,0.0,0.0,0.0,0.0,0.0,0.0,0.0,0.0,0.0,0.0,0.0,0.0,0.0,0.0,0.0,0.0,0.0,0.0,0.0,0.0,0.0,0.0,0.0,0.0,0.0,0.0,0.0,0.0,0.0,0.0,0.0,0.0,0.0,0.0,0.0,0.0,0.0,0.0,0.0,0.0,0.0,0.0,0.0,0.0,0.0,0.0,0.0,0.0,0.0,0.0,0.0,0.0,0.0,0.0,0.0,0.0,0.0,0.0,0.0,0.0,0.0,0.0,0.0,0.0,0.0,0.0,0.0,0.0,0.0,0.0,0.0,0.0,0.0,0.0,0.0,0.0,0.0,0.0,0.0,0.0,0.0,0.0,0.0,0.0,0.0,0.0,0.0,0.0,0.0,0.0,0.0,0.0,0.0,0.0,0.0,0.0,0.0,0.0,0.0,0.0,0.0,0.0,0.0,0.0,0.0,0.0,0.0,0.0,0.0,0.0,0.0,0.0,0.0,0.0,0.0,0.0,0.0,0.0,0.0,0.0,0.0,0.0,0.0,0.0,0.0,0.0,0.0,0.0,0.0,0.0,0.0,0.0,0.0,0.0,0.0,0.0,0.0,0.0,0.0,0.0,0.0,0.0,0.0,0.0,0.0,0.0,0.0,0.0,0.0,0.0,0.0,0.0,0.0,0.0,0.0,0.0,0.0,0.0,0.0,0.0,0.0,0.0,0.0,0.0,0.0,0.0,0.0,0.0,0.0,0.0,0.0,0.0,0.0,0.0,0.0,0.889,0.0,0.0,0.0,0.0,0.0,0.0,0.0,0.0,0.0,0.0,0.0,0.0,0.0,0.0,0.0,0.0,0.0,0.0,0.0,0.0,0.0,0.0,0.0,0.0,0.4499,0.471,0.4473,0.4431,0.4307,0.4075,0.0,0.0,0.0,0.0,0.0,0.2792,0.2889,0.2964,0.2991,0.3359,0.372,0.4037,0.4196,0.4225,0.4169,0.0,0.0,0.0,0.0,0.0,0.0,0.0,0.0,0.0,0.0,0.0,0.0,0.0,0.0,0.0,0.0,0.0,0.0,0.0,0.0,0.0,0.0,0.0,0.0,0.0,0.0,0.0,0.0,0.0,0.0,0.0,0.0,0.0,0.0,0.0,0.0,0.0,0.0,0.0,0.0,0.0,0.0,0.0,0.0,0.0,0.0,0.0,0.0,0.0,0.0,0.0,0.0,0.0,0.0,0.0,0.0,0.0,0.0,0.0,0.0,0.0,0.0,0.0,0.0,0.0,0.0,0.0,0.0,0.0,0.0,0.0,0.9444,0.0,0.0,0.0,0.0,0.0,0.0,0.0,0.0,0.0,0.0,0.0,0.0,0.0,0.0,0.0,0.0,0.0,0.0,0.0,0.0,0.0,0.4236,0.4126,0.452,0.4662,0.4383,0.4338,0.4155,0.3796,0.3654,0.0,0.0,0.0,0.3032,0.2894,0.3092,0.321,0.3257,0.3609,0.4081,0.4652,0.4772,0.4653,0.4352,0.4733,0.0,0.0,0.0,0.0,0.0,0.0,0.0,0.0,0.0,0.0,0.0,0.0,0.0,0.0,0.0,0.0,0.0,0.0,0.0,0.0,0.0,0.0,0.0,0.0,0.0,0.0,0.0,0.0,0.0,0.0,0.0,0.0,0.0,0.0,0.0,0.0,0.0,0.0,0.0,0.0,0.0,0.0,0.0,0.0,0.0,0.0,0.0,0.0,0.0,0.0,0.0,0.0,0.0,0.0,0.0,0.0,0.0,0.0,0.0,0.0,0.0,0.0,0.0,1.0451,1.0754,1.0991,1.1729,1.2049,1.199,1.1206,1.0623,1.0232,0.9967,0.0,0.0,0.0,0.0,0.0,0.0,0.0,0.0,0.0,0.0,0.0,0.0,0.0,0.0,0.0,0.0,0.0,0.0,0.0,0.425,0.4565,0.4676,0.467,0.4573,0.4453,0.4281,0.4061,0.3778,0.0,0.0,0.3117,0.2976,0.2894,0.3037,0.3236,0.346,0.3908,0.4371,0.4866,0.489,0.4896,0.4901,0.5198,0.5394,0.5487,0.0,0.0,0.0,0.0,0.0,0.0,0.0,0.0,0.0,0.0,0.0,0.0,0.0,0.0,0.0,0.0,0.0,0.0,0.0,0.0,0.0,0.0,0.0,0.0,0.0,0.0,0.0,0.0,0.0,0.0,0.0,0.0,0.0,0.0,0.0,0.0,0.0,0.0,0.0,0.0,0.0,0.7527,0.779,0.0,0.0,0.0,0.0,0.0,0.0,0.0,0.0,0.0,0.0,0.0,0.0,0.0,1.04,1.0713,1.0778,1.0684,1.0527,1.0963,1.1219,1.13,1.2249,1.2676,1.271,1.2948,0.0,1.1603,1.1339,0.0,0.0,0.0,0.0,0.0,0.0,0.0,0.0,0.0,0.0,0.0,0.0,0.0,0.0,0.0,0.0,0.0,0.0,0.0,0.0,0.0,0.4861,0.4962,0.4636,0.459,0.4425,0.4058,0.3758,0.3513,0.3313,0.3137,0.3041,0.301,0.3259,0.3597,0.4052,0.4429,0.4802,0.5199,0.5254,0.5402,0.5632,0.5608,0.5563,0.5466,0.5264,0.0,0.0,0.0,0.0,0.0,0.0,0.0,0.0,0.0,0.0,0.0,0.0,0.0,0.0,0.0,0.0,0.0,0.0,0.0,0.0,0.0,0.0,0.0,0.0,0.0,0.0,0.0,0.0,0.0,0.0,0.0,0.0,0.0,0.0,0.0,0.0,0.0,0.0,0.0,0.7533,0.8093,0.8363,0.854,0.8598,0.0,0.0,0.0,0.0,0.0,0.0,0.0,0.0,0.0,1.0819,1.1259,1.1556,1.1762,1.1904,1.1978,1.201,1.2347,1.2608,1.2785,1.3525,1.3874,1.3868,1.4262,1.3972,1.32,1.2487,1.1896,1.1389,0.0,0.0,0.0,0.0,1.0851,1.1248,0.0,0.0,0.0,0.0,0.0,0.0,0.0,0.0,0.0,0.0,0.0,0.0,0.4609,0.5011,0.5137,0.4719,0.4706,0.4533,0.4055,0.3785,0.354,0.3349,0.3278,0.3219,0.3219,0.3634,0.4102,0.4662,0.4901,0.5186,0.5511,0.5589,0.5775,0.6018,0.5863,0.5705,0.5506,0.5472,0.5365,0.52,0.0,0.0,0.0,0.0,0.0,0.0,0.0,0.0,0.0,0.0,0.0,0.0,0.0,0.0,0.0,0.0,0.0,0.0,0.0,0.0,0.0,0.0,0.0,0.0,0.0,0.0,0.0,0.0,0.0,0.0,0.0,0.0,0.0,0.0,0.0,0.0,0.0,0.8371,0.883,0.9183,0.9443,0.9533,0.0,0.0,0.0,0.0,0.0,0.0,1.0594,1.0901,1.1214,1.1472,1.1991,1.2259,1.2262,1.2592,1.2812,1.2894,1.3301,1.3595,1.3822,1.4434,1.4695,1.4695,1.5005,1.4877,1.4431,1.3495,1.288,1.2463,1.186,1.183,1.2042,1.1745,1.2005,1.253,0.0,0.0,0.0,0.0,0.0,0.0,0.0,0.0,0.0,0.0,0.0,0.4728,0.5032,0.5046,0.4974,0.4881,0.482,0.4586,0.0,0.3838,0.3644,0.3496,0.3544,0.358,0.358,0.4146,0.4672,0.5066,0.526,0.5525,0.5779,0.5786,0.5793,0.5803,0.5793,0.5891,0.6054,0.5912,0.576,0.5578,0.5702,0.0,0.0,0.0,0.0,0.0,0.0,0.0,0.0,0.0,0.0,0.0,0.0,0.0,0.0,0.0,0.0,0.0,0.0,0.0,0.0,0.0,0.0,0.0,0.0,0.0,0.0,0.0,0.0,0.0,0.0,0.0,0.0,0.0,0.0,0.0,0.0,0.0,0.0,1.0296,1.0558,0.0,0.0,0.0,0.0,1.0711,1.1157,1.131,1.1167,1.1591,1.1759,1.1524,1.1967,1.2103,1.1854,1.2331,1.2505,1.2375,1.3151,1.3515,1.3526,1.4338,1.4695,1.4695,1.5005,1.5089,1.5022,1.4455,1.3767,1.3079,1.3043,1.2874,1.2693,1.2934,1.3049,1.3121,0.0,0.0,0.0,0.0,0.0,0.3572,0.3792,0.4037,0.427,0.4525,0.4877,0.5107,0.5051,0.5241,0.5237,0.4864,0.4845,0.4707,0.4372,0.4161,0.3962,0.3835,0.3832,0.3951,0.417,0.4636,0.502,0.5281,0.5623,0.5844,0.5912,0.6051,0.6136,0.6136,0.6136,0.6094,0.6015,0.58,0.574,0.5772,0.5619,0.5634,0.0,0.0,0.0,0.0,0.0,0.0,0.0,0.0,0.0,0.0,0.0,0.0,0.0,0.0,0.0,0.0,0.0,0.0,0.0,0.0,0.0,0.0,0.0,0.0,0.0,0.0,0.0,0.0,0.0,0.0,0.0,0.0,0.0,0.0,0.0,0.0,0.0,1.0893,1.129,0.0,1.1007,1.1084,1.1264,1.1614,1.1795,1.2051,1.2411,1.2592,1.2595,1.2484,1.2648,1.2807,1.3019,1.3184,1.3654,1.4275,1.4549,1.4762,1.498,1.5258,1.5367,1.5361,1.5517,1.5453,1.5275,1.5119,1.4805,1.4383,1.422,1.4189,1.4244,1.4177,1.4147,1.4159,0.0,0.0,0.0,0.0,0.3495,0.3616,0.3951,0.4171,0.4401,0.4664,0.5057,0.5204,0.4953,0.5271,0.5302,0.482,0.4835,0.4759,0.4414,0.4272,0.4127,0.4001,0.4114,0.4355,0.4788,0.5057,0.5332,0.5586,0.5935,0.6132,0.6183,0.6339,0.645,0.645,0.645,0.6352,0.623,0.6014,0.5961,0.602,0.5764,0.59,0.6225,0.0,0.0,0.0,0.0,0.0,0.0,0.0,0.0,0.0,0.0,0.0,0.0,0.0,0.0,0.0,0.0,0.0,0.0,0.0,0.0,0.0,0.0,0.0,0.0,0.0,0.0,0.0,0.0,0.0,0.0,0.0,0.0,0.0,0.0,0.0,1.1439,1.1474,1.202,1.2193,1.1709,1.1804,1.207,1.2429,1.2532,1.278,1.3206,1.318,1.3024,1.2813,1.2964,1.3131,1.3317,1.3653,1.4301,1.523,1.5287,1.5507,1.5778,1.5733,1.5682,1.5733,1.589,1.5832,1.5662,1.5815,1.5801,1.559,1.5059,1.4956,1.5089,1.4914,1.4847,1.4847,0.0,0.0,0.0,0.3495,0.3495,0.3616,0.3958,0.4171,0.4352,0.4502,0.487,0.5029,0.4835,0.5109,0.5132,0.4743,0.4802,0.4706,0.4247,0.4204,0.4163,0.4021,0.4358,0.4795,0.5382,0.5409,0.5596,0.6,0.6193,0.6378,0.6521,0.663,0.6702,0.6702,0.6702,0.6702,0.6723,0.6627,0.6496,0.6344,0.6246,0.6369,0.6573,0.0,0.0,0.0,0.0,0.0,0.0,0.0,0.0,0.0,0.0,0.0,0.0,0.0,0.0,0.0,0.0,0.0,0.0,0.0,0.0,0.0,0.0,0.0,0.0,0.0,0.0,0.0,0.0,0.0,0.0,0.0,0.0,0.0,1.0457,1.1335,1.1999,1.2026,1.2687,1.2939,1.2494,1.2856,1.312,1.3136,1.3362,1.3507,1.3523,1.3422,1.3064,1.246,1.2908,1.3012,1.2669,1.3593,1.4339,1.4964,1.519,1.5473,1.5801,1.5756,1.5705,1.571,1.6026,1.6189,1.6245,1.6588,1.67,1.6598,1.5553,1.5143,1.5143,1.5137,1.5125,1.5119,0.0,0.0,0.3495,0.3495,0.3495,0.3679,0.4208,0.4332,0.4545,0.5015,0.5178,0.5194,0.5029,0.5022,0.4932,0.4715,0.4643,0.4546,0.4436,0.4429,0.4436,0.4504,0.4928,0.5225,0.5392,0.5681,0.5962,0.6235,0.6381,0.6532,0.6637,0.6681,0.6702,0.6702,0.6702,0.6823,0.6981,0.6978,0.7104,0.7274,0.6702,0.6672,0.6915,0.0,0.0,0.0,0.0,0.0,0.0,0.0,0.0,0.0,0.0,0.0,0.0,0.0,0.0,0.0,0.0,0.0,0.0,0.0,0.0,0.0,0.0,0.0,0.0,0.0,0.0,0.0,0.0,0.0,0.0,0.0,0.0,1.1052,1.126,1.1986,1.2564,1.2786,1.3167,1.3325,1.3218,1.3303,1.3523,1.3868,1.3959,1.4143,1.4482,1.4505,1.4295,1.3959,1.402,1.4167,1.422,1.4456,1.5061,1.604,1.569,1.5806,1.6268,1.587,1.5642,1.5631,1.597,1.6121,1.6166,1.6553,1.67,1.6652,1.6151,1.5964,1.5958,1.5747,1.5553,1.5366,0.0,0.3552,0.3495,0.3495,0.3495,0.3705,0.4315,0.4405,0.46,0.5138,0.5258,0.5227,0.5042,0.5007,0.4895,0.4722,0.4633,0.4559,0.4494,0.4549,0.4713,0.4989,0.5255,0.5484,0.5637,0.5959,0.62,0.6388,0.6559,0.6709,0.6797,0.6858,0.6885,0.6885,0.6885,0.7013,0.7264,0.728,0.7503,0.7753,0.733,0.7224,0.7206,0.6786,0.6727,0.6903,0.6796,0.6663,0.6576,0.6684,0.0,0.0,0.0,0.0,0.0,0.0,0.0,0.0,0.0,0.0,0.0,0.0,0.0,0.0,0.0,0.0,0.0,0.0,0.0,0.0,0.0,0.0,0.0,0.0,1.1091,1.1712,1.2054,1.2539,1.2911,1.3106,1.3607,1.3918,1.3807,1.3973,1.4239,1.4455,1.4482,1.46,1.4869,1.4863,1.475,1.4458,1.4494,1.467,1.4923,1.504,1.5638,1.672,1.6188,1.6248,1.672,1.6188,1.6011,1.6,1.633,1.6501,1.6489,1.6863,1.7032,0.0,0.0,0.0,0.0,0.0,1.5885,1.5644,0.0,0.3541,0.3519,0.3552,0.3552,0.3752,0.4349,0.4436,0.4599,0.504,0.5211,0.5203,0.4964,0.5027,0.5008,0.4757,0.4731,0.4644,0.0,0.0,0.4941,0.5375,0.5426,0.5613,0.601,0.6207,0.6402,0.6562,0.6797,0.6896,0.6913,0.7038,0.7095,0.7095,0.7095,0.7279,0.754,0.7609,0.7761,0.7967,0.8034,0.7829,0.746,0.6933,0.6765,0.682,0.6773,0.6651,0.6572,0.6671,0.0,0.0,0.0,0.0,0.0,0.0,0.0,0.0,0.0,0.0,0.0,0.0,0.0,0.0,0.0,0.0,0.0,0.0,0.0,0.0,0.0,0.0,0.0,0.0,1.1677,1.2285,1.2737,1.3046,1.3204,1.3163,1.4053,1.4548,1.4315,1.4773,1.5071,1.502,1.498,1.4991,1.4966,0.0,0.0,0.0,0.0,1.5025,1.5373,1.5617,1.6213,1.7108,1.6747,1.6747,1.7108,1.6713,1.6518,1.6577,1.6855,1.7026,1.7026,1.7367,1.7485,1.7436,1.6936,1.6724,1.667,1.6416,1.6181,1.5976,0.0,0.3506,0.3579,0.3853,0.3899,0.4094,0.4635,0.4681,0.4747,0.5063,0.5168,0.5203,0.5144,0.5112,0.508,0.5018,0.4827,0.4692,0.0,0.0,0.502,0.5382,0.5589,0.5874,0.6248,0.6395,0.6566,0.6841,0.6856,0.6943,0.7055,0.7085,0.7095,0.7095,0.7095,0.7363,0.7808,0.7819,0.807,0.8456,0.8312,0.8024,0.7718,0.7423,0.724,0.7135,0.712,0.6968,0.6834,0.6839,0.6679,0.6429,0.6054,0.0,0.0,0.0,0.0,0.0,0.0,0.0,0.0,0.0,0.0,0.0,0.0,0.0,0.0,0.0,0.0,0.0,0.0,0.0,0.0,1.1457,1.1999,1.2431,1.2699,1.348,1.3953,1.3674,1.425,1.4741,1.4817,1.5339,1.5648,1.5552,1.5574,1.5541,1.5451,1.5926,1.6123,1.6057,1.6536,1.6786,1.6848,1.6909,1.7215,1.7637,0.0,0.0,1.7631,1.7052,1.6834,1.6823,1.6931,1.7026,1.7026,1.7367,1.7485,1.7449,1.7135,1.6887,1.6694,1.664,1.6585,1.6513,0.3734,0.3752,0.3806,0.3972,0.4113,0.4335,0.4741,0.4769,0.4844,0.5068,0.5089,0.5116,0.5144,0.5018,0.4972,0.4998,0.4946,0.0,0.0,0.5133,0.5365,0.5603,0.5796,0.6057,0.6399,0.6552,0.6698,0.6886,0.6957,0.7028,0.7095,0.7095,0.7095,0.7095,0.7231,0.7544,0.79,0.8028,0.8252,0.8604,0.851,0.831,0.8037,0.7763,0.7488,0.7306,0.7244,0.7012,0.6768,0.6738,0.658,0.6339,0.6097,0.5993,0.5945,0.0,0.0,0.0,0.0,0.0,0.0,0.0,0.0,0.0,0.0,0.0,0.0,0.0,0.0,0.9659,0.0,0.0,1.1262,1.1707,1.2314,1.2793,1.3017,1.3778,1.4295,1.4252,1.486,1.5378,1.5586,1.5954,1.6189,1.6098,1.6228,1.6298,1.6242,1.6668,1.687,1.687,1.7178,1.7364,1.7543,1.7543,1.7728,1.8042,1.7857,1.7919,1.8036,1.7716,1.7596,1.759,1.7648,1.7571,1.7434,1.748,1.7485,1.7473,1.734,1.7129,1.6893,1.6893,1.6815,1.6682,0.3976,0.4109,0.4184,0.416,0.4329,0.4569,0.4847,0.4853,0.4877,0.5049,0.501,0.499,0.5052,0.497,0.4919,0.4981,0.0,0.0,0.0,0.5385,0.5594,0.5786,0.5918,0.6152,0.6549,0.6637,0.679,0.6927,0.7041,0.7095,0.7095,0.7095,0.7095,0.7095,0.737,0.768,0.7984,0.8201,0.8468,0.874,0.874,0.8585,0.8336,0.8053,0.7784,0.7517,0.732,0.7044,0.6693,0.6555,0.6367,0.6157,0.6004,0.5966,0.5934,0.572,0.5737,0.0,0.0,0.0,0.0,0.0,0.0,0.0,0.0,0.0,0.8476,0.8825,0.9482,1.011,1.0686,1.125,1.1753,1.1968,1.2592,1.3081,1.3367,1.4021,1.4518,1.4812,1.5502,1.6043,1.6178,1.6581,1.6722,1.6585,1.6831,1.6969,1.6908,1.7267,1.7495,1.7495,1.7609,1.7756,1.8061,1.8061,1.8191,1.8444,1.8444,1.8444,1.8444,1.839,1.8366,1.8366,1.8318,1.8137,1.7859,1.7648,1.7527,1.7485,1.7485,1.7352,1.7165,1.7165,1.7032,1.6845,0.0,0.4519,0.485,0.4736,0.4741,0.486,0.5199,0.5045,0.4903,0.4911,0.4868,0.4844,0.4907,0.5128,0.5268,0.5341,0.0,0.0,0.5374,0.5247,0.5338,0.5776,0.5817,0.6091,0.6661,0.6692,0.6837,0.7071,0.7088,0.7095,0.7095,0.7095,0.7095,0.7095,0.737,0.7768,0.8201,0.846,0.8815,0.9218,0.9218,0.897,0.856,0.8606,0.838,0.7984,0.7597,0.7315,0.7028,0.6436,0.6075,0.5821,0.5568,0.5475,0.546,0.5449,0.0,0.57,0.593,0.6437,0.6886,0.6818,0.7033,0.7357,0.0,0.0,0.8425,0.9174,0.9921,1.063,1.1269,1.1663,1.2018,1.2429,1.2774,1.3104,1.3341,1.4269,1.5039,1.5283,1.5873,1.6278,1.628,1.6986,1.7279,1.6961,1.7201,1.7216,1.6908,1.7669,1.8125,1.8125,1.8607,1.8924,1.8924,1.8924,1.8988,1.8988,1.8988,1.8988,1.8982,1.8746,1.8644,1.8632,1.8396,1.8137,1.7871,1.7841,1.769,1.7485,1.7485,1.7467,1.7443,1.7443,1.7418,1.7364,0.0,0.4879,0.5029,0.5131,0.5112,0.5137,0.528,0.5176,0.507,0.5027,0.496,0.4963,0.5121,0.537,0.553,0.5524,0.0,0.0,0.5584,0.5651,0.5763,0.5965,0.5924,0.6132,0.6559,0.6654,0.6803,0.6974,0.7055,0.7095,0.7095,0.7095,0.7187,0.7367,0.772,0.8113,0.846,0.8986,0.9297,0.9467,0.9479,0.9298,0.8965,0.8782,0.8521,0.8224,0.7684,0.7228,0.0,0.0,0.6174,0.5948,0.5706,0.5593,0.5515,0.552,0.5596,0.0,0.6229,0.6541,0.0,0.0,0.7237,0.7502,0.7827,0.8164,0.8637,0.9266,0.9841,1.0456,1.1209,1.1768,1.2235,0.0,1.3206,1.3645,1.3569,1.4553,1.5241,1.5147,1.5863,1.6424,1.6723,1.7065,1.7264,1.7297,1.7703,1.7875,1.7747,1.8369,1.8713,1.8713,1.8954,1.9078,1.9078,1.9078,1.9078,1.9078,1.9078,1.9078,1.9072,1.8963,1.8915,1.8897,1.8638,1.8456,1.8324,1.8004,1.7811,1.7696,1.7539,1.7485,1.7485,1.7485,1.7485,1.7467,0.0,0.5203,0.5241,0.5383,0.5363,0.5316,0.5293,0.5239,0.5167,0.5078,0.5114,0.5245,0.5516,0.5715,0.5832,0.5792,0.6005,0.0,0.0,0.6002,0.6106,0.6025,0.6013,0.6146,0.6446,0.6559,0.6712,0.6865,0.6927,0.6974,0.6974,0.6974,0.7107,0.7375,0.7844,0.8272,0.866,0.9305,0.9648,0.9767,0.9826,0.9687,0.9417,0.9053,0.867,0.8199,0.764,0.7128,0.0,0.0,0.6074,0.5875,0.5628,0.5515,0.5464,0.5464,0.5648,0.5937,0.6396,0.0,0.0,0.7143,0.74,0.7587,0.7876,0.8233,0.8653,0.9127,0.9763,1.0393,1.1036,1.1979,1.2687,1.2894,1.3729,1.4284,1.4104,1.4926,1.543,1.5177,1.5748,1.6404,1.693,1.705,1.7171,1.7364,1.795,1.8294,1.8294,1.8794,1.9078,1.9078,1.9078,1.9078,1.9078,1.9078,1.9078,1.9078,1.9078,1.9078,1.9078,1.9078,1.9078,1.9066,1.8873,1.8752,1.8656,1.8257,1.801,1.7853,1.7666,1.7545,1.7485,1.7485,1.7485,1.7485,0.0,0.0,0.5615,0.5433,0.5401,0.537,0.5316,0.5239,0.5144,0.502,0.5285,0.5655,0.6114,0.6179,0.6219,0.6271,0.0,0.6338,0.6014,0.6193,0.6152,0.5822,0.6007,0.618,0.63,0.6446,0.6556,0.6709,0.6712,0.6715,0.6715,0.6715,0.6836,0.704,0.7499,0.8036,0.8654,0.9301,0.9831,1.0207,1.04,1.0258,0.987,0.9588,0.8871,0.7938,0.7399,0.0,0.0,0.5933,0.5548,0.5373,0.5037,0.5005,0.0,0.5113,0.5524,0.0,0.0,0.0,0.7071,0.7082,0.7356,0.7624,0.7767,0.8004,0.8348,0.8738,0.9796,1.0786,1.1052,1.2358,1.3441,1.3704,1.4429,1.4993,1.4962,1.5476,1.5769,1.5511,1.5749,1.6115,0.0,1.6942,1.7092,1.7098,1.7841,1.8294,1.8294,1.8794,1.9078,1.9078,1.9078,1.9078,1.9078,1.9078,1.9078,1.9078,1.9078,1.9078,1.9078,1.9078,1.9078,1.9078,1.9066,1.8921,1.8686,1.8668,1.8348,1.7871,1.7865,1.7708,1.7485,1.7485,1.7485,1.7485,0.0,0.0,0.0,0.5489,0.5426,0.5386,0.5316,0.5277,0.523,0.5144,0.5507,0.0,0.0,0.0,0.0,0.0,0.0,0.0,0.6525,0.6435,0.6443,0.658,0.6362,0.6313,0.6507,0.6557,0.6641,0.6763,0.6863,0.6886,0.6902,0.703,0.7157,0.7281,0.7859,0.839,0.8923,0.9857,1.0425,1.0686,1.0796,1.068,1.0364,0.9589,0.9025,0.8511,0.0,0.0,0.0,0.5951,0.5638,0.5487,0.5124,0.0,0.0,0.5488,0.5864,0.6261,0.0,0.0,0.7169,0.7466,0.7662,0.778,0.788,0.816,0.8519,0.9205,0.9958,1.0803,1.1796,1.2635,1.3394,1.4019,1.4753,1.5268,1.5298,1.5725,1.6016,1.5764,1.5994,0.0,0.0,0.0,0.0,1.7569,1.8034,1.8366,1.8547,1.8885,1.9078,1.9078,1.9078,1.9078,1.9078,1.9078,1.9078,1.9078,1.9078,1.9078,1.9078,1.9078,1.9078,1.9078,1.9078,1.9024,1.8927,1.8758,1.8577,1.8378,1.8016,1.7817,1.772,1.7545,1.7485,1.7485,0.0,0.0,0.0,0.0,0.0,0.0,0.0,0.0,0.0,0.0,0.0,0.0,0.0,0.0,0.0,0.0,0.0,0.0,0.0,0.0,0.6736,0.6774,0.6623,0.649,0.6454,0.6651,0.6755,0.6797,0.6958,0.7053,0.7042,0.7124,0.7207,0.7364,0.7873,0.8381,0.8927,0.9856,1.0434,1.0713,1.0868,1.0773,1.0527,0.9754,0.9251,0.0,0.0,0.0,0.6697,0.6068,0.57,0.0,0.0,0.0,0.0,0.5817,0.6179,0.6505,0.6856,0.7142,0.7402,0.774,0.7851,0.7916,0.8113,0.829,0.8641,0.9466,1.0149,1.0875,1.1929,1.2813,1.3606,1.4211,1.4995,1.5631,1.5724,1.6075,1.6348,1.6188,1.6324,1.6471,0.0,0.0,0.0,1.7557,1.8028,1.8366,1.8535,1.8885,1.9078,1.9078,1.9078,1.9078,1.9078,1.9078,1.9078,1.9078,1.9078,1.9078,1.9078,1.9078,1.9078,1.9078,1.9078,1.9078,1.906,1.8891,1.877,1.8638,1.8197,1.7962,1.7841,1.7581,1.7485,1.7485,0.0,0.0,0.0,0.0,0.0,0.0,0.0,0.0,0.0,0.0,0.0,0.0,0.0,0.0,0.0,0.0,0.0,0.0,0.0,0.0,0.0,0.649,0.676,0.6742,0.6289,0.6755,0.6941,0.6822,0.7024,0.7112,0.712,0.6986,0.7026,0.7235,0.7553,0.8051,0.8654,0.9388,0.991,1.0319,1.0645,1.0617,1.0351,1.0066,0.0,0.0,0.0,0.0,0.0,0.0,0.0,0.0,0.0,0.0,0.0,0.6149,0.6491,0.6787,0.7041,0.7435,0.7814,0.7821,0.7884,0.8084,0.8322,0.8454,0.8775,0.9567,1.036,1.1053,0.0,0.0,1.3918,1.4248,1.5188,1.5958,1.626,1.6531,1.6712,0.0,0.0,0.0,0.0,0.0,0.0,1.7153,0.0,1.8306,1.833,1.8807,1.9078,1.9078,1.9078,1.9078,1.9078,1.9078,1.9078,1.9078,1.9078,1.9078,1.9078,1.9078,1.9078,1.9078,1.9078,1.9078,1.9078,1.9078,1.8927,1.868,1.842,1.8143,1.7865,1.7599,1.7497,1.7485,0.0,0.0,0.0,0.0,0.0,0.0,0.0,0.0,0.0,0.0,0.0,0.0,0.0,0.0,0.0,0.0,0.0,0.0,0.0,0.0,0.0,0.0,0.0,0.7376,0.7305,0.7196,0.0,0.0,0.0,0.7363,0.7307,0.7441,0.7441,0.7379,0.775,0.8149,0.8574,0.9211,0.9709,1.0082,0.0,1.0251,1.0126,0.0,0.0,0.0,0.0,0.0,0.0,0.0,0.0,0.0,0.0,0.0,0.6143,0.0,0.0,0.7051,0.74,0.7645,0.7838,0.7904,0.7961,0.806,0.8384,0.8806,0.9322,1.0113,1.0739,1.1323,0.0,0.0,0.0,1.4154,1.4864,0.0,1.6477,1.6658,0.0,1.7237,0.0,1.7382,1.7648,1.7865,0.0,0.0,1.8179,1.8463,1.8855,1.9006,1.9078,1.9078,1.9078,1.9078,1.9078,1.9078,1.9078,1.9078,1.9078,1.9078,1.9078,1.9078,1.9078,1.9078,1.9078,1.9078,1.9078,1.9078,1.9036,1.8945,1.8686,1.842,1.8155,1.7877,1.7648,1.7485,0.0,0.0,0.0,0.0,0.0,0.0,0.0,0.0,0.0,0.0,0.0,0.0,0.0,0.0,0.0,0.0,0.0,0.0,0.0,0.0,0.0,0.0,0.0,0.7653,0.7699,0.7695,0.7698,0.0,0.0,0.0,0.0,0.7871,0.7809,0.7715,0.8032,0.8344,0.8618,0.9093,0.0,0.0,0.0,0.0,0.0,0.0,0.0,0.0,0.0,0.0,0.0,0.0,0.0,0.6287,0.6211,0.6315,0.6566,0.6888,0.0,0.7394,0.7631,0.7801,0.7884,0.7968,0.804,0.8217,0.875,0.9028,0.9466,1.0314,1.0701,0.0,0.0,0.0,0.0,0.0,0.0,0.0,1.6368,1.6622,1.6936,0.0,1.7654,0.0,1.8034,1.8197,1.8342,0.0,1.8469,1.8595,1.8891,1.9012,1.9078,1.9078,1.9078,1.9078,1.9078,1.9078,1.9078,1.9078,1.9078,1.9078,1.9078,1.9078,1.9078,1.9078,0.0,1.9078,1.9078,1.9078,1.9078,1.9048,1.8782,1.8595,1.842,1.8022,1.7781,1.7642,0.0,0.0,0.0,0.0,0.0,0.0,0.0,0.0,0.0,0.0,0.0,0.0,0.0,0.0,0.0,0.0,0.0,0.0,0.0,0.0,0.0,0.0,0.0,0.7811,0.7824,0.0,0.0,0.0,0.0,0.0,0.0,0.0,0.0,0.0,0.0,0.0,0.0,0.0,0.0,0.0,0.0,0.0,0.0,0.0,0.0,0.0,0.0,0.0,0.0,0.0,0.7214,0.6774,0.678,0.6828,0.6898,0.7309,0.7526,0.7662,0.7828,0.7953,0.7995,0.8065,0.8192,0.8438,0.9148,0.9245,0.9441,1.0268,0.0,1.0606,1.0994,0.0,1.2475,1.3278,0.0,1.504,1.6127,1.6525,1.7008,1.7829,1.7925,1.8052,1.8366,1.8396,1.8493,1.8722,1.8734,1.8734,1.8734,1.8951,1.9078,1.9078,1.9078,1.9078,1.9078,1.9078,1.9078,1.9078,1.9078,1.9078,1.9078,1.9078,1.9078,1.9078,1.9078,1.9078,1.9078,1.9078,1.9078,1.9054,1.8825,1.8716,1.8625,1.8155,1.7937,1.7841,0.0,0.0,0.0,0.0,0.0,0.0,0.0,0.0,0.0,0.0,0.6969,0.6946,0.0,0.0,0.0,0.0,0.0,0.0,0.0,0.0,0.0,0.0,0.0,0.0,0.0,0.0,0.0,0.0,0.0,0.0,0.0,0.0,0.0,0.0,0.0,0.0,0.0,0.0,0.0,0.0,0.0,0.0,0.0,0.0,0.0,0.0,0.0,0.0,0.0,0.0,0.7803,0.7545,0.7393,0.7379,0.7482,0.7678,0.7753,0.7834,0.8116,0.8116,0.8069,0.8501,0.8513,0.8611,0.9259,0.949,0.0,0.0,0.0,1.0434,1.0438,1.1116,0.0,1.2717,0.0,0.0,0.0,0.0,1.708,0.0,0.0,0.0,0.0,0.0,0.0,0.0,0.0,1.9006,1.9006,1.9048,1.9078,1.9078,1.9078,1.9078,1.9078,1.9078,1.9078,1.9078,1.9078,1.9078,1.9078,1.9078,1.9078,1.9078,1.9078,0.0,1.9078,1.9078,1.9078,1.9072,1.9024,1.8879,1.8674,1.8577,1.8257,1.7865,0.0,0.0,0.0,0.0,0.0,0.0,0.0,0.6704,0.7231,0.7516,0.7616,0.7606,0.739,0.7142,0.7,0.0,0.0,0.0,0.0,0.0,0.0,0.0,0.0,0.0,0.0,0.0,0.0,0.0,0.0,0.0,0.0,0.0,0.0,0.0,0.0,0.0,0.0,0.0,0.0,0.0,0.0,0.0,0.0,0.0,0.0,0.0,0.0,0.0,0.0,0.0,0.8379,0.8246,0.7811,0.7717,0.7766,0.7767,0.7868,0.798,0.8208,0.8157,0.8125,0.8736,0.8818,0.8961,0.9745,0.0,0.0,0.0,0.0,1.0002,1.0083,0.0,0.0,0.0,0.0,0.0,0.0,0.0,0.0,0.0,0.0,0.0,0.0,0.0,0.0,0.0,0.0,1.9078,1.9078,1.9078,1.9078,1.9078,1.9078,1.9078,1.9078,1.9078,1.9078,1.9078,1.9078,1.9078,1.9078,1.9078,1.9078,1.9078,1.9078,1.9078,1.9136,1.9264,1.9392,1.9392,1.9526,1.9515,1.9379,1.9293,1.8976,1.8609,0.0,0.0,0.0,0.0,0.0,0.0,0.0,0.7094,0.7645,0.7985,0.8217,0.8248,0.8017,0.7534,0.7214,0.0,0.0,0.0,0.0,0.0,0.0,0.0,0.0,0.0,0.0,0.0,0.0,0.0,0.0,0.0,0.0,0.0,0.0,0.0,0.0,0.0,0.0,0.0,0.0,0.0,0.0,0.0,0.0,0.0,0.0,0.0,0.0,0.0,0.0,0.0,0.8751,0.8731,0.8094,0.7967,0.8038,0.791,0.7969,0.8084,0.8272,0.8207,0.8275,0.8983,0.9145,0.9347,1.0152,1.0093,0.0,0.0,0.9874,0.9624,0.979,0.0,0.0,0.0,0.0,0.0,0.0,0.0,0.0,0.0,0.0,0.0,0.0,0.0,0.0,0.0,0.0,0.0,1.9078,1.9078,1.9078,1.9078,1.9078,1.9078,1.9078,1.9078,1.9078,1.9078,1.9078,1.9078,1.9078,1.9078,1.9078,1.9078,1.9078,1.9136,1.92,1.9514,1.9641,1.9711,1.9979,2.0106,2.0081,1.9846,1.9647,1.936,0.0,0.0,0.0,0.0,0.0,0.0,0.0,0.7353,0.8067,0.8413,0.8454,0.8576,0.8865,0.8351,0.796,0.0,0.0,0.0,0.0,0.0,0.0,0.0,0.0,0.0,0.0,0.0,0.0,0.0,0.0,0.0,0.0,0.0,0.0,0.0,0.0,0.0,0.0,0.0,0.0,0.0,0.0,0.0,0.0,0.0,0.0,0.0,0.0,0.0,0.0,0.0,0.0,0.8969,0.8303,0.8299,0.8508,0.8217,0.0,0.0,0.8295,0.8308,0.8521,0.9287,0.9531,0.9734,1.0053,0.0,0.0,0.9731,0.9586,0.952,0.952,0.9979,0.0,0.0,0.0,0.0,0.0,0.0,0.0,0.0,0.0,0.0,0.0,0.0,0.0,0.0,0.0,0.0,1.9078,1.9078,1.9078,1.9078,1.9078,1.9078,1.9078,1.9078,1.9078,1.9078,1.9078,1.9078,1.9078,1.9078,1.9078,1.9078,1.9078,1.9264,0.0,1.9577,1.9775,2.0043,2.0106,2.0106,2.0106,2.0075,1.9877,1.9647,0.0,0.0,0.0,0.0,0.0,0.0,0.6962,0.7802,0.8462,0.8616,0.8934,0.9184,0.9238,0.8943,0.8552,0.8075,0.0,0.0,0.0,0.0,0.0,0.0,0.0,0.0,0.0,0.0,0.0,0.0,0.0,0.0,0.0,0.0,0.0,0.0,0.0,0.0,0.0,0.0,0.0,0.0,0.0,0.0,0.0,0.0,0.0,0.0,0.0,0.0,0.0,0.0,0.0,0.0,0.8753,0.8781,0.0,0.0,0.847,0.8659,0.8744,0.8835,0.9072,0.994,1.0119,1.0253,1.0656,0.0,1.0269,0.9864,0.9729,0.9644,0.9516,0.9817,1.0232,0.0,1.1603,1.2608,0.0,0.0,0.0,0.0,0.0,0.0,0.0,0.0,0.0,0.0,0.0,0.0,1.9078,1.9078,1.9078,1.9078,1.9078,1.9078,1.9078,1.9078,1.9078,1.9078,1.9078,1.9078,1.9078,1.9078,1.9078,1.9078,1.9078,1.9264,0.0,1.9839,2.01,2.0418,2.0609,2.0672,2.0672,2.0672,2.0545,2.0257,0.0,0.0,0.0,0.0,0.0,0.7209,0.7209,0.8063,0.8692,0.8692,0.9226,0.9562,0.9465,0.9335,0.9036,0.8487,0.8477,0.0,0.0,0.0,0.0,0.0,0.0,0.0,0.0,0.0,0.0,0.0,0.0,0.0,0.0,0.0,0.0,0.0,0.0,0.0,0.0,0.0,0.0,0.0,0.0,0.0,0.0,0.0,0.0,0.0,0.0,0.0,0.0,0.0,0.0,0.0,0.0,0.0,0.0,0.0,0.8724,0.893,0.9049,0.9183,0.9543,1.035,1.0548,1.066,0.0,0.0,1.0467,1.0007,0.987,0.9772,0.9612,0.9699,0.9961,0.0,1.117,1.2059,1.3127,0.0,0.0,0.0,0.0,0.0,0.0,0.0,0.0,0.0,0.0,0.0,1.9078,1.9078,1.9078,1.9078,1.9078,1.9078,1.9078,1.9078,1.9078,1.9078,1.9078,1.9078,1.9078,1.9078,1.9078,1.9142,1.92,1.9456,0.0,2.01,2.0418,2.0799,2.0982,2.1109,2.1109,2.1109,2.0982,2.0762,0.0,0.0,0.0,0.0,0.0,0.0,0.7209,0.8063,0.8692,0.8692,0.9226,0.9588,0.9588,0.9484,0.9335,0.9204,0.8956,0.0,0.0,0.0,0.0,0.0,0.0,0.0,0.0,0.0,0.8804,0.8804,0.8804,0.0,0.0,0.0,0.0,0.0,0.0,0.0,0.0,0.0,0.0,0.0,0.0,0.0,0.0,0.0,0.0,0.0,0.0,0.0,0.0,0.0,0.0,0.0,0.0,0.0,0.0,0.0,0.8947,0.9008,0.8991,0.9363,0.9833,1.0389,1.0716,1.0905,0.0,1.0801,1.049,1.0095,0.9894,0.9804,0.9804,0.9644,0.969,1.0214,1.0773,1.1492,1.256,0.0,0.0,0.0,0.0,0.0,0.0,0.0,0.0,0.0,0.0,0.0,1.9078,1.9078,1.9078,1.9078,1.9078,1.9078,1.9078,1.9078,1.9078,1.9078,1.9078,1.9078,1.9078,1.9078,1.9078,1.9136,1.945,1.9775,0.0,2.0488,2.0792,2.1109,2.1109,2.1109,2.1109,2.1109,2.1109,2.1062,0.0,0.0,0.0,0.0,0.0,0.0,0.0,0.8012,0.8355,0.8355,0.8912,0.9314,0.9314,0.9368,0.9335,0.9211,0.9035,0.0,0.0,0.0,0.0,0.0,0.0,0.0,0.0,0.0,0.8878,0.9078,0.9078,0.9178,0.9406,0.0,0.0,0.0,0.0,0.0,0.0,0.0,0.0,0.0,0.0,0.0,0.0,0.0,0.0,0.0,0.0,0.0,0.0,0.0,0.0,0.0,0.0,0.0,0.0,0.0,0.0,0.0,0.971,1.0091,1.0593,1.1074,1.1079,1.1027,1.1162,1.0946,1.0527,1.0078,0.9958,0.9894,0.9804,0.9644,0.969,1.0208,1.0731,0.0,0.0,0.0,0.0,0.0,0.0,0.0,0.0,0.0,0.0,0.0,0.0,0.0,1.945,1.945,1.945,1.945,1.945,1.952,1.9788,1.9781,1.9781,1.9781,1.9781,1.9781,1.9781,1.9781,1.9781,0.0,0.0,0.0,0.0,2.0545,2.0799,2.1109,2.1109,2.1109,2.1109,2.1109,2.1109,2.1069,0.0,0.0,0.0,0.0,0.0,0.0,0.0,0.799,0.8202,0.8202,0.8796,0.92,0.92,0.9362,0.9413,0.9211,0.914,0.0,0.0,0.0,0.0,0.0,0.0,0.0,0.8804,0.8804,0.8918,0.9211,0.9211,0.9364,0.9708,0.9492,0.9317,0.0,0.0,0.0,0.0,0.0,0.0,0.0,0.0,0.0,0.0,0.0,0.0,0.0,0.0,0.0,0.0,0.0,0.0,0.0,0.0,0.0,0.0,0.0,0.9367,0.0,0.0,1.0359,1.0805,1.1174,1.1117,1.1004,1.1174,1.0953,1.0614,1.0302,1.0174,1.0085,0.9989,0.9917,1.003,1.0467,1.1004,0.0,0.0,0.0,0.0,0.0,0.0,0.0,0.0,0.0,0.0,0.0,0.0,0.0,1.9577,1.9711,1.9839,1.9966,1.9839,1.9909,2.0106,2.0106,2.0106,2.0106,2.0106,2.0106,2.0106,2.0106,2.0106,0.0,0.0,0.0,0.0,2.0736,2.0926,2.1109,2.1109,2.1109,2.1109,2.1109,2.1109,2.1069,0.0,0.0,0.0,0.0,0.0,0.0,0.0,0.7968,0.8165,0.8165,0.8736,0.9163,0.9163,0.9424,0.9491,0.9211,0.0,0.0,0.0,0.0,0.0,0.0,0.0,0.0,0.8804,0.8831,0.8951,0.9244,0.9264,0.9437,0.9802,0.9733,0.9566,0.9271,0.9231,0.0,0.0,0.0,0.0,0.0,0.0,0.0,0.0,0.0,0.0,0.0,0.0,0.0,0.0,0.0,0.0,0.0,0.0,0.0,0.0,0.0,0.0,0.0,0.0,0.0,0.0,0.0,1.0906,1.093,1.1043,1.0901,0.0,1.0615,1.0428,1.0314,1.0327,1.0425,1.0608,1.0893,1.1439,0.0,0.0,0.0,0.0,0.0,0.0,0.0,0.0,0.0,0.0,0.0,0.0,0.0,1.9641,1.9973,2.0297,2.0609,2.0361,2.017,2.017,2.017,2.017,2.017,2.017,2.017,2.017,2.017,2.017,0.0,0.0,0.0,0.0,2.0982,2.1109,2.1109,2.1109,2.1109,2.1109,2.1109,2.1109,2.1069,0.0,0.0,0.0,0.0,0.0,0.0,0.0,0.0,0.0,0.0,0.8399,0.8826,0.8826,0.9192,0.9387,0.0,0.0,0.0,0.0,0.0,0.0,0.0,0.0,0.0,0.8804,0.8998,0.9257,0.9579,0.98,1.0174,1.0675,1.0221,0.998,0.9857,0.9411,0.9051,0.0,0.0,0.0,0.0,0.0,0.0,0.0,0.0,0.0,0.0,0.0,0.0,0.0,0.0,0.0,0.0,0.0,0.0,0.0,0.0,0.9036,0.9311,0.9624,0.0,1.0529,1.095,1.0902,1.0813,0.0,1.0803,1.0609,1.0606,0.0,0.0,1.0588,1.0554,1.0662,0.0,0.0,0.0,0.0,0.0,0.0,0.0,0.0,0.0,0.0,0.0,0.0,0.0,0.0,2.01,2.0354,2.0418,2.0609,2.0982,2.0926,2.0856,2.0856,2.0856,2.0856,2.0856,2.0856,2.0856,2.0856,2.0856,2.0856,0.0,0.0,0.0,2.0982,2.1046,2.1109,2.1109,2.1109,2.1109,2.1109,2.1109,2.1109,2.1069,0.0,0.0,0.0,0.0,0.0,0.0,0.0,0.0,0.0,0.0,0.0,0.8692,0.8692,0.9123,0.0,0.0,0.0,0.0,0.0,0.0,0.0,0.0,0.0,0.8804,0.8804,0.9064,0.9357,0.9715,1.0114,1.0555,1.0982,1.0668,1.0448,1.0287,0.9531,0.9051,0.0,0.0,0.0,0.0,0.0,0.0,0.0,0.0,0.0,0.0,0.0,0.8804,0.0,0.8804,0.8804,0.8804,0.0,0.0,0.0,0.0,0.8891,0.9111,0.9566,0.9975,1.0373,1.0758,1.0745,1.0691,1.0795,0.0,0.0,0.0,0.0,0.0,0.0,0.0,0.0,0.0,0.0,0.0,0.0,0.0,0.0,0.0,0.0,0.0,0.0,0.0,0.0,0.0,0.0,2.0425,2.0609,2.0736,2.0919,2.1109,2.1109,2.1109,2.1109,2.1109,2.1109,2.1109,2.1109,2.1109,2.1109,2.1109,2.1109,0.0,0.0,0.0,2.1109,2.1109,2.1109,2.1109,2.1109,2.1109,2.1109,2.1109,2.1029,2.0869,0.0,0.0,0.0,0.0,0.0,0.0,0.0,0.0,0.0,0.0,0.0,0.0,0.0,0.0,0.0,0.0,0.0,0.0,0.0,0.0,0.0,0.0,0.8804,0.8804,0.8804,0.9111,0.9424,0.9746,1.0372,1.0827,1.1122,1.1082,1.0855,1.0486,0.9584,0.9051,0.0,0.0,0.0,0.0,0.0,0.0,0.0,0.0,0.0,0.0,0.0,0.0,0.0,0.8804,0.8804,0.8804,0.8804,0.0,0.0,0.0,0.0,0.0,0.9526,0.9893,1.02,1.0573,1.0693,1.0727,1.0727,0.0,0.0,0.0,0.0,0.0,0.0,0.0,0.0,0.0,0.0,0.0,0.0,0.0,0.0,0.0,0.0,0.0,0.0,0.0,0.0,0.0,0.0,2.0672,2.0672,2.0919,2.1109,2.1109,2.1109,2.1109,2.1109,2.1109,2.1109,2.1109,2.1109,2.1109,2.1109,2.1109,2.1109,2.1109,0.0,0.0,2.1109,2.1109,2.1109,2.1109,2.1109,2.1109,2.1109,2.1109,2.0922,2.0628,0.0,0.0,0.0,0.0,0.0,0.0,0.0,0.0,0.0,0.0,0.0,0.0,0.0,0.0,0.0,0.0,0.0,0.0,0.0,0.0,0.0,0.8804,0.8804,0.8804,0.8804,0.9339,0.976,1.0053,1.0641,1.1202,1.1765,1.1476,1.0902,1.016,0.9491,0.9051,0.8804,0.0,0.0,0.0,0.0,0.0,0.0,0.0,0.0,0.0,0.0,0.0,0.0,0.8804,0.8804,0.8804,0.8804,0.0,0.0,0.0,0.0,0.0,0.9526,0.9893,1.0217,1.0788,1.1109,1.1289,1.1289,0.0,0.0,0.0,0.0,0.0,0.0,0.0,0.0,0.0,0.0,0.0,0.0,0.0,0.0,0.0,0.0,0.0,0.0,0.0,0.0,0.0,0.0,2.1046,2.1046,2.1046,2.1109,2.1109,2.1109,2.1109,2.1109,2.1109,2.1109,2.1109,2.1109,2.1109,2.1109,2.1109,2.1109,2.1109,0.0,2.1109,2.1109,2.1109,2.1109,2.1109,2.1109,2.1109,2.1109,2.1109,2.0922,2.0601,0.0,0.0,0.0,0.0,0.0,0.0,0.0,0.0,0.0,0.0,0.0,0.0,0.0,0.0,0.0,0.0,0.0,0.0,0.0,0.0,0.8804,0.8804,0.8931,0.9011,0.9011,0.9619,1.006,1.0354,1.1136,1.1638,1.1899,1.1563,1.0922,1.007,0.9666,0.9232,0.8804,0.8804,0.0,0.0,0.0,0.0,0.0,0.0,0.0,0.0,0.0,0.0,0.0,0.0,0.8804,0.8804,0.8804,0.0,0.0,0.0,0.0,0.0,0.9526,1.0043,1.0494,1.1082,1.145,1.1663,1.1663,0.0,0.0,0.0,0.0,0.0,0.0,0.0,0.0,0.0,0.0,0.0,0.0,0.0,0.0,0.0,0.0,0.0,0.0,0.0,0.0,0.0,0.0,0.0,2.0635,2.0635,2.0635,2.0635,2.0635,2.0635,2.0635,2.0635,2.0795,2.1109,2.1109,2.1109,2.1109,2.1109,2.1109,2.1109,0.0,2.1109,2.1109,2.1109,2.1109,2.1109,2.1109,2.1109,2.1069,2.0748,2.0448,2.014,0.0,0.0,0.0,0.0,0.0,0.0,0.0,0.0,0.0,0.0,0.0,0.0,0.0,0.0,0.0,0.0,0.0,0.0,0.0,0.8804,0.8804,0.8804,0.9058,0.9211,0.9211,0.9857,1.0367,1.0693,1.1504,1.1906,1.1899,1.1563,1.0922,1.01,0.9813,0.9359,0.8804,0.8804,0.8804,0.0,0.0,0.0,0.0,0.0,0.0,0.0,0.0,0.0,0.0,0.0,0.0,0.0,0.0,0.0,0.0,0.8804,0.8804,0.8938,0.9526,1.009,1.0646,1.1263,0.0,1.2134,1.2201,1.2405,0.0,0.0,0.0,0.0,0.0,0.0,0.0,0.0,0.0,0.0,0.0,0.0,0.0,0.0,0.0,0.0,0.0,0.0,0.0,0.0,0.0,0.0,2.0173,2.0173,2.0173,2.0173,2.0173,2.0173,2.0173,2.0173,2.0461,2.0902,2.0975,2.1009,2.1009,2.1076,2.1109,2.1109,2.1109,2.1069,2.1009,2.1009,2.0969,2.0902,2.0902,2.0902,2.0842,2.0321,1.9993,1.976,0.0,0.0,0.0,0.0,0.0,0.0,0.0,0.0,0.0,0.0,0.0,0.0,0.0,0.0,0.0,0.0,0.0,0.0,0.0,0.8804,0.8804,0.8804,0.9058,0.9211,0.9211,1.0087,1.0707,1.0962,1.1605,1.1906,1.1899,1.1563,1.0922,1.01,0.9813,0.9359,0.8804,0.8804,0.8804,0.8804,0.0,0.0,0.0,0.0,0.0,0.0,0.0,0.0,0.0,0.0,0.0,0.0,0.0,0.0,0.8804,0.8804,0.8804,0.8938,0.9526,0.9913,1.0354,1.1176,1.2058,0.0,1.3046,1.33,0.0,1.3901,0.0,0.0,0.0,0.0,0.0,0.0,0.0,0.0,0.0,0.0,0.0,0.0,0.0,0.0,0.0,0.0,0.0,0.0,0.0,0.0,2.0173,2.0173,2.0173,2.0173,2.0173,2.0173,2.0173,2.0173,2.0193,2.0301,2.0575,2.0708,2.0715,2.0989,2.1109,2.1109,2.1109,2.0955,2.0708,2.0708,2.0548,2.0233,2.0233,2.0233,2.0261,1.9947,1.982,1.976,0.0,0.0,0.0,0.0,0.0,0.0,0.0,0.0,0.0,0.0,0.0,0.0,0.0,0.0,0.0,0.0,0.0,0.0,0.0,0.8936,0.8883,0.8804,0.9058,0.9297,0.9512,1.0381,1.0969,1.1263,1.185,1.2044,1.1899,1.1563,1.1056,1.0405,0.9923,0.9459,0.9038,0.8884,0.8804,0.8804,0.8804,0.0,0.0,0.0,0.0,0.0,0.0,0.0,0.0,0.0,0.8804,0.8804,0.0,0.8804,0.8844,0.8998,0.8918,0.8971,0.9746,1.0167,1.0601,1.1483,1.2512,0.0,0.0,1.3988,1.4549,1.4843,1.499,0.0,0.0,0.0,0.0,0.0,0.0,0.0,0.0,0.0,0.0,0.0,0.0,0.0,0.0,0.0,0.0,0.0,0.0,0.0,1.9693,1.9693,1.9693,1.9693,1.9693,1.9693,1.9693,1.9693,1.9693,1.97,2.0174,2.0401,2.0401,2.0514,2.0568,2.0568,2.0568,2.0501,2.0401,2.0401,2.0334,2.0173,2.0173,2.012,1.9953,1.984,1.9686,1.9512,0.0,0.0,0.0,0.0,0.0,0.0,0.0,0.0,0.0,0.0,0.0,0.0,0.0,0.0,0.0,0.0,0.0,0.0,0.9008,0.9008,0.8936,0.8811,0.9058,0.9311,0.9539,1.0408,1.1042,1.1389,1.1924,1.2017,1.1759,1.143,1.0975,1.0432,1.0,0.9606,0.9198,0.8998,0.8891,0.8804,0.8804,0.8804,0.0,0.0,0.0,0.0,0.0,0.0,0.0,0.0,0.8804,0.8804,0.0,0.0,0.0,0.9124,0.9071,0.9111,1.002,1.0506,1.0941,1.1826,0.0,0.0,1.3953,1.4669,1.5317,1.5611,0.0,0.0,0.0,0.0,0.0,0.0,0.0,0.0,0.0,0.0,0.0,0.0,0.0,0.0,0.0,0.0,0.0,0.0,0.0,0.0,0.0,1.9424,1.9424,1.9424,1.9424,1.9424,1.9424,1.9424,1.9424,1.943,1.9773,2.0007,2.01,2.0187,2.0173,2.0173,2.0173,2.012,2.0094,2.0094,2.004,1.996,1.996,1.984,1.9659,1.9659,1.9539,1.9424,0.0,0.0,0.0,0.0,0.0,0.0,0.0,0.0,0.0,0.0,0.0,0.0,0.0,0.0,0.0,0.0,0.0,0.0,0.9035,0.9008,0.8936,0.8811,0.9051,0.9211,0.9211,1.0107,1.0874,1.1389,1.1724,1.171,1.1382,1.1129,1.0681,1.009,1.0083,0.9764,0.9217,0.9211,0.9044,0.8804,0.8804,0.8804,0.0,0.0,0.0,0.0,0.0,0.0,0.0,0.0,0.8804,0.8804,0.0,0.0,0.0,0.9131,0.9217,0.9411,1.0358,1.0807,1.1209,0.0,0.0,0.0,0.0,1.5418,1.5919,0.0,0.0,0.0,0.0,0.0,0.0,0.0,0.0,0.0,0.0,0.0,0.0,0.0,0.0,0.0,0.0,0.0,0.0,0.0,0.0,0.0,0.0,1.9424,1.9424,1.9424,1.9424,1.9424,1.9424,1.9424,1.9424,1.9424,1.9424,1.9519,1.9806,2.0094,2.0167,2.0167,2.0167,2.006,1.98,1.98,1.9626,1.9424,1.9424,1.9424,1.9424,1.9424,1.9424,1.9424,0.0,0.0,0.0,0.0,0.0,0.0,0.0,0.0,0.0,0.0,0.0,0.0,0.0,0.0,0.0,0.0,0.0,0.0,0.9439,0.9335,0.9185,0.8956,0.8938,0.9004,0.9211,0.99,1.0635,1.1389,1.1516,1.1403,1.1122,1.1035,1.0788,1.0452,1.0207,0.9907,0.9539,0.9297,0.9044,0.8804,0.8804,0.8804,0.0,0.0,0.0,0.0,0.0,0.0,0.0,0.0,0.0,0.0,0.0,0.0,0.0,0.9466,0.9552,0.9746,1.0628,1.1076,0.0,0.0,0.0,0.0,0.0,0.0,0.0,0.0,0.0,0.0,0.0,0.0,0.0,0.0,0.0,0.0,0.0,0.0,0.0,0.0,0.0,0.0,0.0,0.0,0.0,0.0,0.0,0.0,0.0,1.9424,1.9424,1.9424,1.9424,1.9424,1.9424,1.9424,1.9424,1.9424,1.9424,1.947,1.9499,1.9586,1.9626,1.9626,1.9626,1.9579,1.9499,1.9499,1.9446,1.9424,1.9424,1.9424,1.9424,1.9424,1.9424,1.9424,0.0,0.0,0.0,0.0,0.0,0.0,0.0,0.0,0.0,0.0,1.0283,0.0,0.0,0.0,0.0,0.0,0.0,0.0,0.0,0.9484,0.929,0.9008,0.8883,0.8918,0.9204,0.9557,1.0057,1.0735,1.0816,1.0875,1.0854,1.0701,1.0615,1.0586,1.0405,1.0067,0.9673,0.9492,0.9151,0.8804,0.8804,0.8804,0.8804,0.0,0.0,0.0,0.0,0.0,0.0,0.0,0.0,0.0,0.0,0.0,0.0,0.9559,0.9766,1.0074,1.1069,0.0,0.0,0.0,0.0,0.0,0.0,0.0,0.0,0.0,0.0,0.0,0.0,0.0,0.0,0.0,0.0,0.0,0.0,0.0,0.0,0.0,0.0,0.0,0.0,0.0,0.0,0.0,0.0,0.0,0.0,1.9424,1.9424,1.9424,1.9424,1.9424,1.9424,1.9424,1.9424,1.9424,1.9424,1.9424,1.9424,1.9424,1.9424,1.9424,1.9424,1.9424,1.9424,1.9424,1.9424,1.9424,1.9424,1.9424,1.9424,1.9424,1.9424,1.9424,0.0,0.0,0.0,0.0,0.0,0.0,0.0,0.0,0.0,0.0,1.0744,1.0871,0.0,0.0,0.0,0.0,0.0,0.0,0.0,0.9484,0.9309,0.9035,0.8883,0.8904,0.9164,0.9171,0.9304,0.9635,0.992,1.0227,1.0546,1.0274,1.0301,1.0593,1.062,1.0291,0.9715,0.9715,0.9345,0.8804,0.8804,0.8804,0.8804,0.8804,0.0,0.0,0.0,0.0,0.0,0.0,0.0,0.0,0.8804,0.8824,0.8958,0.9519,0.9907,1.0408,0.0,0.0,0.0,0.0,0.0,0.0,0.0,0.0,0.0,0.0,0.0,0.0,0.0,0.0,0.0,0.0,0.0,0.0,0.0,0.0,0.0,0.0,0.0,0.0,0.0,0.0,0.0,0.0,0.0,0.0,0.0,1.9424,1.9424,1.9424,1.9424,1.9424,1.9424,1.9424,1.9424,1.9424,1.9424,1.9424,1.9424,1.9424,1.9424,1.9424,1.9424,1.9424,1.9424,1.9424,1.9424,1.9424,1.9424,1.9424,1.9424,1.9424,1.9424,1.9424,0.0,0.0,0.0,0.0,0.0,0.0,0.0,0.0,0.0,0.0,0.0,0.0,0.0,0.0,0.0,0.0,0.0,0.0,0.0,0.9699,0.9439,0.9159,0.8936,0.8838,0.8898,0.8871,0.8931,0.8998,0.9519,0.9927,1.0214,1.0388,1.0526,1.06,1.0827,1.0448,0.9715,0.9715,0.9345,0.8804,0.8804,0.8804,0.8804,0.8804,0.8804,0.0,0.0,0.0,0.0,0.0,0.0,0.0,0.8804,0.8938,0.9191,0.9579,1.0084,1.0707,0.0,0.0,0.0,0.0,0.0,0.0,0.0,0.0,0.0,0.0,0.0,0.0,0.0,0.0,0.0,0.0,0.0,0.0,0.0,0.0,0.0,0.0,0.0,0.0,0.0,0.0,0.0,0.0,0.0,0.0,1.9424,1.9424,1.9424,1.9424,1.9424,1.9424,1.9424,1.9424,1.9424,0.0,1.9424,1.9424,1.9424,1.9424,1.9424,1.9424,1.9424,1.9424,1.9424,1.9424,1.9424,1.9424,1.9424,1.9424,1.9424,1.9424,1.9424,1.9424,0.0,0.0,0.0,0.0,0.0,0.0,0.0,0.0,0.0,0.0,0.0,0.0,0.0,0.0,0.0,0.0,0.0,0.0,0.0,0.9803,0.9413,0.9035,0.8883,0.8804,0.8804,0.8804,0.8804,0.8804,0.9252,0.9619,0.9913,1.0214,1.0452,1.0606,1.0894,1.0508,0.9715,0.9715,0.9345,0.8804,0.8804,0.8804,0.8804,0.8804,0.8804,0.8804,0.8804,0.0,0.0,0.0,0.0,0.0,0.0,0.0,0.9064,0.9385,0.9886,1.0541,0.0,0.0,0.0,0.0,0.0,0.0,0.0,0.0,0.0,0.0,0.0,0.0,0.0,0.0,0.0,0.0,0.0,0.0,0.0,0.0,0.0,0.0,0.0,0.0,0.0,0.0,0.0,0.0,0.0,1.9424,1.9424,1.9424,1.9424,1.9424,1.9424,1.9424,1.9424,1.9424,1.9424,1.9424,1.9424,1.9424,1.9424,1.9424,1.9424,1.9424,1.9424,1.9424,1.9424,1.9424,1.9482,1.9591,1.9764,1.9931,2.004,2.0213,2.0162,2.004,0.0,0.0,0.0,0.0,0.0,0.0,0.0,0.0,0.0,0.0,0.0,0.0,0.0,0.0,0.0,0.0,0.0,0.0,0.0,0.9803,0.9309,0.8831,0.8831,0.8831,0.8804,0.8831,0.8831,0.8804,0.9071,0.9391,0.9766,1.016,1.0474,1.0754,1.1015,1.0628,0.9753,0.9735,0.9345,0.8804,0.8804,0.8804,0.8804,0.8804,0.8804,0.8804,0.8804,0.8804,0.8804,0.8804,0.0,0.0,0.0,0.0,0.8864,0.9124,0.959,1.0247,0.0,0.0,0.0,0.0,0.0,0.0,0.0,0.0,0.0,0.0,0.0,0.0,0.0,0.0,0.0,0.0,0.0,0.0,0.0,0.0,0.0,0.0,0.0,0.0,0.0,0.0,0.0,0.0,0.0,1.9219,1.9219,1.9219,1.9219,1.9219,1.9269,1.9327,1.9327,1.9438,1.9516,1.9516,1.9686,1.9707,1.9591,1.9591,1.9533,1.9424,1.9424,1.9424,1.9482,1.954,1.9707,1.9982,2.0385,2.0666,2.0888,2.1231,2.1174,2.0945,0.0,0.0,0.0,0.0,0.0,0.0,0.0,0.0,0.0,0.0,0.0,1.1301,1.1301,1.1175,0.0,0.0,0.0,0.0,1.0076,0.0,0.0,0.8804,0.8903,0.891,0.8804,0.891,0.891,0.8804,0.9071,0.9491,1.0043,1.0843,1.1242,1.1323,1.1617,1.1122,1.004,0.9793,0.9345,0.8804,0.8804,0.8804,0.8804,0.8804,0.8804,0.8804,0.8804,0.8804,0.8804,0.8804,0.8804,0.0,0.0,0.0,0.0,0.0,0.9451,0.0,0.0,0.0,0.0,0.0,0.0,0.0,0.0,0.0,0.0,0.0,0.0,0.0,0.0,0.0,0.0,0.0,0.0,0.0,0.0,0.0,0.0,0.0,0.0,0.0,0.0,0.0,0.0,0.0,1.8584,1.8611,1.8611,1.8611,1.8611,1.8611,1.882,1.8987,1.8987,1.9514,1.9864,2.009,2.0701,2.0838,2.0551,2.0551,2.0097,1.9424,1.9424,1.9533,1.9758,2.0046,2.0328,2.0658,2.1224,2.1452,2.1509,2.1851,2.1964,2.1907,0.0,0.0,0.0,0.0,0.0,0.0,0.0,0.0,0.0,0.0,0.0,1.1502,1.1427,1.1352,0.0,0.0,0.0,0.0,1.0154,0.9673,0.0,0.9133,0.9106,0.9087,0.9035,0.9087,0.9035,0.891,0.9369,0.9874,1.0388,1.143,1.1702,1.1409,1.1904,1.1456,1.0347,1.0047,0.9586,0.9024,0.9024,0.9024,0.9038,0.9232,0.9299,0.9279,0.9078,0.9072,0.9099,0.8964,0.8956,0.9008,0.0,0.0,0.0,0.0,0.0,0.0,0.0,0.0,0.0,0.0,0.0,0.0,0.0,0.0,0.0,0.0,0.0,0.0,0.0,0.0,0.0,0.0,0.0,0.0,0.0,0.0,0.0,0.0,0.0,0.0,0.0,0.0,0.0,0.0,1.8397,1.849,1.849,1.849,1.8546,1.8705,1.8968,1.9291,1.9566,1.9976,2.0365,2.0648,2.1141,2.1298,2.1136,2.1371,2.0888,1.9931,2.0046,2.0213,2.0321,2.0831,2.1238,2.1581,2.2297,2.2749,2.2974,2.3424,2.3488,2.3311,0.0,0.0,0.0,0.0,0.0,0.0,0.0,0.0,0.0,0.0,0.0,0.0,1.1553,0.0,0.0,0.0,0.0,0.0,1.0308,0.0,0.0,0.0,0.0,0.942,0.9361,0.9394,0.9316,0.9113,0.9666,1.0182,1.0676,1.1718,1.1997,1.1635,1.2184,1.1804,1.0787,1.0388,0.9893,0.9331,0.9404,0.9477,0.9577,0.9907,1.0043,0.998,0.9708,0.964,0.9596,0.0,0.0,0.0,0.0,0.0,0.0,0.0,0.0,0.0,0.0,0.0,0.0,0.0,0.0,0.0,0.0,0.0,0.0,0.0,0.0,0.0,0.0,0.0,0.0,0.0,0.0,0.0,0.0,0.0,0.0,0.0,0.0,0.0,0.0,0.0,0.0,0.0,1.8136,1.8257,1.8257,1.8318,1.853,1.8843,1.9217,1.9697,2.029,2.0803,2.121,2.1518,2.1892,2.201,2.1916,2.2298,2.2004,2.1064,2.108,2.111,2.1224,2.1786,2.2256,2.2667,2.3544,2.3991,2.427,2.4834,2.4889,2.4667,0.0,0.0,0.0,0.0,0.0,0.0,0.0,0.0,0.0,0.0,0.0,0.0,1.1694,1.1703,1.1578,1.1326,0.0,0.0,0.0,0.0,0.0,0.0,0.0,0.0,0.9762,0.9888,0.9758,0.9387,0.9855,1.0331,1.0828,1.1573,1.206,1.2271,1.2623,1.2261,1.1309,0.0,0.0,0.0,0.996,1.0241,1.0553,1.0815,1.0922,1.0921,1.0778,1.0554,0.0,0.0,0.0,0.0,0.0,0.9491,0.9361,0.0,0.0,0.0,0.0,0.0,0.0,0.0,0.0,0.0,0.0,0.0,0.0,0.0,0.0,0.0,0.0,0.0,0.0,0.0,0.0,0.0,0.0,0.0,0.0,0.0,0.0,0.0,0.0,0.0,0.0,0.0,1.7622,1.7629,1.7629,1.7906,1.8268,1.8772,1.9353,2.008,2.0838,2.1958,2.2678,2.2975,2.3328,2.3336,2.3016,2.3428,2.3431,2.3119,2.2334,2.2184,2.2459,2.3079,2.348,2.388,2.4778,2.511,2.5165,2.5514,2.5633,2.5624,0.0,0.0,0.0,0.0,0.0,0.0,0.0,0.0,0.0,0.0,0.0,0.0,0.0,1.1828,1.1753,1.1569,1.1477,0.0,0.0,0.0,0.0,0.0,0.0,0.0,0.0,1.0334,1.0128,0.9784,1.0075,1.0358,1.0619,1.1172,1.1761,1.2318,1.265,1.2402,1.1683,1.1283,0.0,0.0,1.0842,1.1022,1.1189,1.1899,1.2033,1.1859,1.2109,0.0,0.0,0.0,0.0,0.0,1.0558,1.0276,1.0052,0.9497,0.0,0.0,0.0,0.0,0.0,0.0,0.0,0.0,0.0,0.0,0.0,0.0,0.0,0.0,0.0,0.0,0.0,0.0,0.0,0.0,0.0,0.0,0.0,0.0,0.0,0.0,0.0,0.0,0.0,0.0,0.0,1.8213,1.8356,1.8691,1.9056,1.9613,2.0328,2.1191,2.2165,2.2815,2.3165,2.3305,2.3608,2.373,2.3635,2.4008,2.4182,2.4093,2.4039,2.3886,2.3704,2.4326,2.4603,2.477,2.5505,2.5789,2.5844,2.6136,2.63,2.63,0.0,0.0,0.0,0.0,0.0,0.0,0.0,0.0,1.2101,1.2101,0.0,0.0,0.0,0.0,1.1902,1.1778,1.1653,1.1578,1.1578,1.1402,0.0,0.0,0.0,0.0,0.0,1.0845,1.0616,1.0308,1.0394,1.0481,1.0562,1.0829,1.1308,1.1942,1.2107,1.2087,0.0,0.0,0.0,1.1035,0.0,1.1784,1.1964,1.2898,1.3151,1.3092,0.0,0.0,0.0,0.0,0.0,0.0,1.1539,1.0987,1.0519,0.987,0.9854,0.0,0.0,0.0,0.0,0.0,0.0,0.0,0.0,0.0,0.0,0.0,0.0,0.0,0.0,0.0,0.0,0.0,0.0,0.0,0.0,0.0,0.0,0.0,0.0,0.0,0.0,0.0,0.0,0.0,0.0,0.0,1.9242,1.9517,2.0034,2.0747,2.165,2.2467,2.3188,2.3497,2.3655,2.3655,2.3865,2.3991,2.4009,2.4403,2.4582,2.4609,2.5012,2.4967,2.4598,2.5232,2.5505,2.556,2.6072,2.6245,2.63,2.6527,2.6591,2.6591,0.0,0.0,0.0,0.0,0.0,0.0,0.0,0.0,1.2101,1.2101,0.0,0.0,0.0,0.0,0.0,1.1936,1.1778,1.1694,1.1694,1.1694,0.0,0.0,0.0,0.0,0.0,1.1377,1.1175,1.0922,1.0777,1.0715,1.0709,1.057,1.0736,1.1192,1.106,1.1316,1.1852,0.0,1.1578,1.1096,0.0,1.2543,1.295,0.0,1.432,0.0,1.5041,1.5043,0.0,1.4431,0.0,0.0,1.2505,1.1562,1.0683,1.0358,1.0154,0.0,0.0,0.0,0.0,0.0,0.0,0.0,0.0,0.0,0.0,0.0,0.0,0.0,0.0,0.0,0.0,0.0,0.0,0.0,0.0,0.0,0.0,0.0,0.0,0.0,0.0,0.0,0.0,0.0,2.0099,2.0107,2.0107,2.0416,2.103,2.2114,2.3238,2.3805,2.3795,2.4053,2.4202,2.4202,2.4202,2.4202,2.422,2.4574,2.4757,2.4785,2.524,2.5258,2.5165,2.5837,2.6109,2.6109,2.6464,2.6591,2.6591,2.6591,2.6591,2.6591,0.0,0.0,0.0,0.0,0.0,1.2101,1.2101,1.2101,1.2101,0.0,0.0,0.0,1.2496,1.2533,1.2523,1.2472,1.2191,1.1977,1.1977,1.1977,1.1977,1.1977,1.1902,1.1828,1.1794,1.1653,1.1452,1.12,1.1072,1.0886,1.0699,1.0457,1.0516,1.0835,1.0688,1.0691,1.0776,1.1572,0.0,1.1739,1.2599,1.3244,0.0,0.0,0.0,0.0,0.0,1.6763,1.6511,0.0,1.6097,1.5429,0.0,1.2584,1.1704,1.1716,1.1564,1.139,1.1419,0.0,0.0,0.0,0.0,0.0,0.0,0.0,0.0,0.0,0.0,0.0,0.0,0.0,0.0,0.0,0.0,0.0,0.0,0.0,0.0,0.0,0.0,0.0,0.0,0.0,0.0,0.0,2.0393,2.0483,2.0679,2.1378,2.2124,2.2823,2.3444,2.3895,2.4102,2.4152,2.4202,2.4202,2.4202,2.4202,2.4211,2.4321,2.4376,2.4404,2.4817,2.4953,2.4954,2.5689,2.6016,2.6053,2.6472,2.6591,2.6591,2.6591,2.6591,2.6591,0.0,0.0,0.0,1.2321,1.2349,1.2404,1.2553,1.2606,1.2606,0.0,0.0,0.0,1.3157,1.3203,1.3203,1.3203,1.268,1.2349,1.2349,1.2193,1.2101,1.2101,1.2026,1.1977,1.1977,1.1852,1.1678,1.1477,1.1276,1.1055,1.0764,1.0508,1.0494,1.0689,1.0516,1.045,1.0531,1.1274,0.0,0.0,1.2719,0.0,0.0,1.5344,1.6181,0.0,0.0,0.0,1.794,1.7896,1.7269,0.0,0.0,0.0,0.0,1.3002,1.2687,0.0,1.2416,0.0,0.0,0.0,0.0,0.0,0.0,0.0,0.0,0.0,0.0,0.0,0.0,0.0,0.0,0.0,0.0,0.0,0.0,0.0,0.0,0.0,0.0,0.0,0.0,2.1176,2.1357,2.1165,2.1165,2.1261,2.1405,2.2005,2.2522,2.2868,2.3392,2.3748,2.3895,2.4119,2.4202,2.4202,2.4202,2.4202,2.4202,2.4202,2.4202,2.422,2.4468,2.4569,2.4615,2.5258,2.5718,2.6039,2.6287,2.6435,2.6591,2.6591,2.6591,2.6591,0.0,0.0,1.2229,1.2625,1.2726,1.29,1.3296,1.3396,1.3433,0.0,1.347,1.3635,1.3974,1.402,1.403,1.3956,1.3231,1.2744,1.2698,1.2321,1.2101,1.2101,1.2101,1.2101,1.2101,1.1977,1.1852,1.1703,1.1452,1.12,1.0922,1.0667,1.0611,1.0689,1.0424,1.0434,1.0678,1.1044,0.0,1.1214,1.2666,1.3764,0.0,0.0,1.7116,1.7939,1.8716,1.9084,1.9151,1.9013,1.7868,0.0,0.0,0.0,0.0,0.0,1.3843,0.0,1.3638,1.3486,0.0,0.0,0.0,0.0,1.4175,1.4275,0.0,0.0,0.0,0.0,0.0,0.0,0.0,0.0,0.0,0.0,0.0,0.0,0.0,0.0,0.0,0.0,2.1215,2.1717,2.2061,2.2061,2.2061,2.2061,2.2061,2.2333,2.2501,2.2501,2.3081,2.3425,2.3425,2.3877,2.4137,2.4137,2.4183,2.4202,2.4202,2.4202,2.4202,2.4202,2.4202,2.4202,2.4238,2.4606,2.5203,2.5883,2.5929,2.6205,2.6518,2.6518,2.6545,2.6591,0.0,1.2101,1.2229,1.2625,1.2974,1.3305,1.3708,1.4057,1.4277,1.4277,1.4552,1.4781,1.4854,1.4864,1.4735,1.4414,1.3644,1.3056,1.2707,1.2321,1.2101,1.2101,1.2101,1.2101,1.2101,1.2076,1.1952,1.1703,1.1653,1.1427,1.1074,1.0896,1.0784,1.0695,1.054,1.0397,1.034,0.0,0.0,1.1777,1.3336,0.0,1.6065,1.723,1.8316,1.9273,1.9803,2.015,2.0302,2.005,1.9044,1.7954,0.0,0.0,0.0,1.6254,1.5798,1.5177,1.525,0.0,0.0,0.0,0.0,0.0,1.433,1.4413,0.0,0.0,0.0,0.0,0.0,0.0,0.0,0.0,0.0,0.0,0.0,0.0,0.0,0.0,0.0,0.0,2.1374,2.1617,2.1789,2.1789,2.1789,2.1789,2.1789,2.2135,2.2354,2.2354,2.2756,2.3023,2.3023,2.3416,2.3657,2.3618,2.3996,2.4202,2.4202,2.4202,2.4202,2.4202,2.4202,2.4202,2.4211,2.4293,2.4615,2.5041,2.5414,2.5782,2.6131,2.6131,2.6298,2.6591,1.2101,1.2101,1.2294,1.29,1.3314,1.3791,1.4396,1.4836,1.5175,1.5386,1.5927,1.6294,1.6294,1.6294,1.6138,1.5744,1.4781,1.3928,1.3341,1.2735,1.2303,1.211,1.2101,1.2101,1.2101,1.2101,1.2002,1.1803,1.1803,1.1653,1.1402,1.1318,1.1328,1.1351,1.1195,1.1163,1.1234,0.0,1.2374,1.3177,1.3878,0.0,1.6553,1.7937,1.9076,2.0011,2.0464,2.0736,2.0828,2.0602,1.9958,0.0,0.0,1.8155,1.7293,0.0,1.7092,1.634,1.6541,0.0,0.0,1.556,0.0,0.0,0.0,0.0,1.4822,0.0,0.0,0.0,0.0,0.0,0.0,0.0,0.0,0.0,0.0,0.0,0.0,0.0,0.0,0.0,2.1085,2.1444,2.1696,2.1696,2.1696,2.1696,2.1696,2.1879,2.1989,2.1989,2.2382,2.2593,2.2593,2.2995,2.3297,2.3499,2.3749,2.395,2.4202,2.4202,2.4202,2.4202,2.4202,2.4202,2.4202,2.4202,2.433,2.456,2.4913,2.5368,2.5718,2.5718,2.5975,2.627,1.2101,1.2101,1.2358,1.3149,1.3616,1.4214,1.5074,1.5551,1.6019,1.6553,1.7284,1.7761,1.7834,1.7779,1.7568,1.7174,1.6037,1.4992,1.4167,1.3378,1.2744,1.2358,1.2257,1.2211,1.2211,1.2138,1.2026,1.1902,1.1902,1.1828,1.1703,1.1783,1.1885,1.2008,1.2049,0.0,0.0,0.0,0.0,1.4413,0.0,1.5465,1.7125,1.8581,1.9701,2.0564,2.1006,2.1132,2.1132,2.0995,2.0721,2.0331,2.0181,1.939,0.0,0.0,0.0,0.0,0.0,0.0,0.0,0.0,0.0,1.612,0.0,0.0,0.0,1.4579,0.0,0.0,0.0,0.0,0.0,0.0,0.0,0.0,0.0,0.0,0.0,0.0,0.0,0.0,0.0,2.1133,2.1458,2.1458,2.1531,2.1568,2.1568,2.165,2.1696,2.1696,2.1998,2.2163,2.2163,2.2574,2.295,2.3261,2.3425,2.3712,2.4082,2.4165,2.4202,2.4202,2.4202,2.4202,2.4202,2.4202,2.4202,2.4238,2.4578,2.4904,2.5262,2.5262,2.5561,2.5901,1.2101,1.2101,1.2358,1.3149,1.3616,1.4306,1.5441,1.5973,1.6617,1.7734,1.8302,1.8705,1.9054,1.8788,1.8412,1.7981,1.6881,1.5835,1.5019,1.4203,1.3571,1.3176,1.2827,1.2625,1.2625,1.2275,1.2026,1.1902,1.1902,1.1828,1.1712,1.2067,1.2158,1.2026,1.272,0.0,0.0,0.0,1.401,0.0,1.5493,1.6991,0.0,1.9635,2.0518,2.1302,2.1562,2.1642,2.1642,0.0,2.1348,2.0991,0.0,2.064,2.0255,2.0301,0.0,0.0,0.0,0.0,0.0,0.0,1.7075,0.0,0.0,0.0,1.457,1.4524,0.0,0.0,0.0,0.0,0.0,0.0,0.0,0.0,0.0,0.0,0.0,0.0,0.0,0.0,0.0,2.0378,2.0659,2.0659,2.0979,2.1181,2.1181,2.1485,2.1696,2.1696,2.1733,2.176,2.176,2.2153,2.2373,2.2428,2.3151,2.3517,2.3572,2.3987,2.4202,2.4202,2.4202,2.4202,2.4202,2.4202,2.4202,2.4211,2.4257,2.4532,2.4849,2.4849,2.5096,2.5488,1.2101,1.2101,1.2285,1.2854,1.3488,1.4242,1.5194,1.6496,1.7596,1.8329,1.8987,1.9527,0.0,0.0,0.0,0.0,0.0,1.7266,0.0,0.0,1.4653,1.4029,1.3626,1.3286,1.3066,1.2652,1.2305,1.2026,1.2026,1.1977,1.1927,1.2108,1.2322,1.2618,1.3176,0.0,1.4155,0.0,1.5454,0.0,0.0,0.0,0.0,1.9859,2.0658,2.1616,2.1651,2.1696,2.1696,0.0,2.1577,0.0,0.0,0.0,0.0,0.0,0.0,0.0,0.0,0.0,0.0,0.0,0.0,0.0,1.589,0.0,1.4854,0.0,0.0,0.0,0.0,0.0,0.0,0.0,0.0,0.0,0.0,0.0,0.0,0.0,0.0,0.0,0.0,0.0,0.0,0.0,2.0191,2.0521,2.075,2.1154,2.144,2.1687,2.1696,2.1696,2.1696,2.1861,2.2053,2.2282,2.2629,2.3032,2.3499,2.3721,2.3932,2.4202,2.4202,2.4202,2.4202,2.4202,2.4202,2.4202,2.4202,2.4312,2.4468,2.4468,2.4735,2.5032,1.2101,0.0,0.0,1.2625,1.3277,1.4112,1.5258,1.702,1.8429,1.8981,1.9811,0.0,2.097,2.0973,0.0,0.0,1.9701,1.8788,0.0,0.0,1.6046,1.5359,1.4717,1.4194,1.38,1.3295,1.2772,1.2257,1.2257,1.2211,1.2101,1.233,1.264,1.3031,0.0,1.4586,1.5219,0.0,0.0,1.7177,1.8127,1.9165,2.0175,2.0334,2.0956,2.1696,2.1696,2.1696,2.1696,2.1696,2.1696,0.0,2.1696,0.0,0.0,0.0,0.0,0.0,2.0808,0.0,0.0,0.0,0.0,0.0,0.0,0.0,0.0,0.0,0.0,0.0,0.0,0.0,0.0,0.0,0.0,0.0,0.0,0.0,0.0,0.0,0.0,0.0,0.0,0.0,0.0,0.0,0.0,1.9769,2.0163,2.0769,2.1245,2.1513,2.1632,2.1696,2.1696,2.1696,2.1833,2.2117,2.2272,2.2593,2.3169,2.3398,2.3703,2.4045,2.4156,2.4202,2.4202,2.4202,2.4202,2.4202,2.4202,2.4202,2.4202,2.4202,2.4395,2.4661,1.2101,1.2101,0.0,0.0,0.0,1.3983,1.5973,1.7651,1.8942,1.9747,0.0,0.0,0.0,0.0,0.0,0.0,0.0,2.0241,1.982,0.0,1.7853,1.7422,1.6266,1.545,0.0,1.4288,1.3479,1.267,1.267,1.2478,1.2119,1.2883,1.3177,1.3085,1.5047,1.5871,1.5853,1.7034,1.7559,1.7648,1.8394,1.9531,2.084,0.0,2.1668,2.1696,2.1696,0.0,0.0,2.1696,2.1696,0.0,0.0,0.0,0.0,0.0,0.0,0.0,0.0,0.0,0.0,1.9485,0.0,0.0,0.0,0.0,1.5212,0.0,0.0,0.0,0.0,0.0,0.0,0.0,0.0,0.0,0.0,0.0,0.0,0.0,0.0,0.0,0.0,0.0,0.0,0.0,0.0,0.0,1.932,2.0466,2.1117,2.1126,2.1476,2.1696,2.1696,2.1696,2.1696,2.1714,2.2099,2.2291,2.2346,2.3133,2.3499,2.3535,2.3978,2.4202,2.4202,2.4202,2.4202,2.4202,2.4202,2.4202,2.4202,2.4202,2.4211,2.422,0.0,0.0,0.0,0.0,0.0,1.4368,1.6395,1.8073,1.9393,0.0,0.0,0.0,0.0,2.2693,2.2693,0.0,0.0,2.1429,2.075,2.004,0.0,0.0,0.0,1.6991,0.0,0.0,0.0,0.0,0.0,0.0,0.0,0.0,0.0,0.0,0.0,1.6138,0.0,0.0,0.0,0.0,0.0,2.0614,2.1415,0.0,0.0,2.1696,2.1696,2.1696,0.0,2.1696,2.1696,2.1696,2.1696,2.1696,2.1696,2.1696,2.1696,0.0,0.0,0.0,2.0714,1.9916,0.0,0.0,0.0,0.0,0.0,0.0,0.0,0.0,0.0,0.0,0.0,0.0,0.0,0.0,0.0,0.0,0.0,0.0,0.0,0.0,0.0,0.0,0.0,0.0,1.7055,0.0,0.0,1.9628,2.0567,2.1089,2.1476,2.1696,2.1696,2.1696,2.1696,2.1696,2.1824,2.2025,2.23,2.2849,2.3251,2.3517,2.3978,2.4202,2.4202,2.4202,2.4202,2.4202,2.4202,2.4202,2.4202,2.4202,2.4202,2.4202,1.3296,0.0,0.0,0.0,0.0,0.0,1.7046,0.0,0.0,0.0,2.1915,0.0,2.3327,0.0,2.3813,0.0,2.3299,2.2749,2.2226,2.1548,0.0,2.0402,1.9476,0.0,0.0,0.0,0.0,0.0,0.0,1.3827,0.0,0.0,0.0,0.0,0.0,0.0,0.0,0.0,1.9629,0.0,0.0,2.1233,0.0,0.0,2.1696,2.1696,0.0,2.1696,2.1696,2.1696,2.1696,2.1696,2.1696,2.1696,2.1696,2.1696,2.1696,2.1696,2.1696,2.1429,0.0,2.0301,1.9189,0.0,1.7669,0.0,0.0,0.0,0.0,0.0,0.0,0.0,0.0,0.0,0.0,0.0,0.0,0.0,0.0,0.0,0.0,0.0,0.0,0.0,1.4836,1.5239,0.0,0.0,0.0,0.0,2.0072,2.0869,2.13,2.154,2.1696,2.1696,2.1696,2.1696,2.1696,2.1824,2.2089,2.2501,2.2904,2.3306,2.3758,2.4073,2.4202,2.4301,2.4301,2.4341,2.4399,2.4449,2.4449,2.4251,2.4202,2.4202,0.0,0.0,0.0,0.0,1.479,0.0,0.0,0.0,2.0827,0.0,2.3171,2.422,2.4266,2.4955,2.5424,2.5424,2.4716,2.4257,2.4238,2.307,0.0,0.0,2.1245,2.0228,1.9412,0.0,0.0,0.0,0.0,0.0,0.0,0.0,0.0,0.0,1.5991,0.0,1.7605,1.9237,2.014,2.0613,2.0989,2.1383,2.1696,2.1696,2.1705,2.1723,2.1696,2.1696,2.1696,2.1696,2.1696,2.1696,2.1696,2.1696,2.1696,2.1696,2.1696,2.1696,2.1696,2.1403,2.1044,2.0649,1.9668,0.0,0.0,0.0,1.7724,0.0,0.0,0.0,0.0,0.0,0.0,0.0,0.0,0.0,0.0,0.0,0.0,0.0,0.0,0.0,0.0,0.0,1.4029,1.4451,1.5588,0.0,0.0,0.0,1.9622,2.0424,2.0897,2.131,2.1687,2.1696,2.1696,2.1696,2.1687,2.1741,2.175,2.2144,2.2547,2.2942,2.3363,2.3816,2.4223,2.443,2.4529,2.4538,2.4784,2.4883,2.4833,2.4399,2.4251,2.4251,1.5074,1.5414,1.5945,0.0,1.722,1.7798,0.0,0.0,0.0,0.0,2.3529,2.444,2.5038,2.5295,2.5424,2.5424,2.5231,0.0,0.0,0.0,0.0,2.3197,2.23,2.1484,2.0659,1.9769,0.0,1.6881,0.0,0.0,1.4634,0.0,0.0,0.0,0.0,0.0,1.7605,1.9237,2.047,2.1394,2.1495,2.1595,0.0,0.0,2.1879,2.2089,2.1797,2.1696,2.1696,2.1696,2.1696,2.1696,2.1696,2.1696,2.1696,2.1696,2.1696,2.1696,2.1696,2.1614,2.1431,2.1062,2.0503,1.998,0.0,0.0,0.0,0.0,0.0,0.0,0.0,0.0,0.0,0.0,0.0,0.0,0.0,0.0,0.0,0.0,0.0,0.0,0.0,0.0,1.3616,1.4011,0.0,0.0,0.0,0.0,0.0,2.0003,2.075,2.131,2.1687,2.1696,2.1696,2.1696,2.1919,2.2008,2.2017,2.2552,2.2886,2.3026,2.3758,2.4142,2.4312,2.4662,2.4784,2.4784,2.4883,2.4883,2.4883,2.4735,2.4735,2.4735,1.5964,0.0,0.0,1.8667,0.0,0.0,2.0026,2.1284,0.0,2.3373,2.418,0.0,2.5607,2.5846,2.5903,2.5903,2.5782,0.0,2.5359,0.0,0.0,2.4354,2.3556,2.2749,2.1933,2.0735,0.0,1.777,0.0,0.0,1.5093,0.0,0.0,0.0,0.0,1.6587,0.0,1.9604,2.09,2.1705,2.1879,0.0,0.0,2.2153,2.2364,2.2519,2.23,2.2108,2.1952,2.1952,2.1833,2.1696,2.1696,2.1696,2.1696,2.1696,2.1696,2.1696,2.1696,2.1696,2.1632,2.1403,2.108,2.0714,2.0493,2.031,2.0149,0.0,2.0323,2.0393,0.0,0.0,0.0,0.0,0.0,0.0,0.0,0.0,0.0,0.0,0.0,0.0,0.0,0.0,0.0,0.0,0.0,0.0,0.0,0.0,0.0,1.9847,2.053,2.1135,2.1687,2.183,2.1874,2.1874,2.2141,2.222,2.223,2.2589,2.2832,2.304,2.3758,2.4146,2.4354,2.4868,2.5079,2.5088,2.5186,2.5235,2.5235,2.5235,2.5088,2.4932,0.0,0.0,0.0,0.0,0.0,0.0,0.0,2.2419,0.0,2.4257,0.0,2.5653,2.6048,2.6371,2.6591,2.6591,0.0,2.6094,2.6094,2.5718,2.5497,2.5497,2.4725,2.3886,2.3078,2.1522,1.993,0.0,0.0,1.6028,1.5157,0.0,0.0,0.0,0.0,0.0,0.0,2.009,2.1328,2.1797,2.2144,2.2309,2.24,2.2767,2.294,2.2986,2.2986,2.2712,2.2364,2.2364,2.2099,2.1769,2.1769,2.1733,2.1696,2.1696,2.1696,2.1696,2.1696,2.1696,2.1696,2.1696,2.1456,2.119,2.119,2.0924,2.0677,2.0677,2.0677,2.0515,0.0,0.0,0.0,0.0,0.0,0.0,0.0,0.0,0.0,0.0,0.0,0.0,0.0,0.0,0.0,0.0,0.0,0.0,0.0,0.0,0.0,1.9837,2.0324,2.0992,2.1767,0.0,2.2141,2.2141,2.2353,2.2441,2.2441,2.2485,2.2675,2.3036,2.3566,2.3984,2.4374,2.5092,2.5333,2.5382,2.5586,2.5693,2.5693,2.5693,2.5391,2.5039,0.0,0.0,0.0,0.0,0.0,2.2812,2.3568,2.3852,2.4284,2.5102,2.5617,2.6067,2.6435,2.6545,2.6591,2.6591,2.6518,0.0,0.0,0.0,0.0,2.5911,2.5148,2.4496,2.3999,2.2676,2.1183,0.0,1.8054,1.6707,1.556,0.0,0.0,0.0,0.0,0.0,1.9054,2.0154,0.0,2.2181,2.2254,2.2492,2.2803,2.2876,2.3114,2.3389,2.3389,2.3142,2.2794,2.2794,2.2519,2.2172,2.2172,2.1952,2.1696,2.1696,2.1696,2.1696,2.1696,2.1696,2.1696,2.1696,2.1632,2.1577,2.1577,2.1531,2.1476,2.1476,2.1476,2.1348,2.0979,0.0,0.0,0.0,0.0,0.0,0.0,0.0,0.0,0.0,0.0,0.0,0.0,0.0,0.0,0.0,0.0,0.0,0.0,0.0,0.0,0.0,2.062,0.0,0.0,0.0,2.2353,2.2353,2.2618,2.2715,2.2759,2.2882,2.3008,2.3115,2.3945,2.4324,2.446,2.5314,2.5635,2.5635,2.5684,2.5693,2.5693,2.5693,2.5635,2.5586,0.0,0.0,0.0,0.0,0.0,0.0,0.0,2.4882,0.0,2.5672,2.5892,2.6177,2.6545,2.6591,2.6591,2.6591,2.6591,2.6591,2.6591,2.6399,2.6289,2.6289,2.5764,0.0,2.4542,2.3281,2.1815,2.0195,1.8614,1.7202,0.0,0.0,0.0,0.0,0.0,1.777,0.0,0.0,0.0,2.2364,2.2739,2.3032,2.3233,2.3501,2.3694,2.3859,2.3859,2.3739,2.3547,2.3279,2.294,2.2602,2.2602,2.2474,2.2282,2.2062,2.1998,2.1952,2.1751,2.1696,2.1696,2.1696,2.1696,2.1696,2.1696,2.1696,2.1696,2.1696,2.1696,2.1603,2.1364,2.0257,0.0,0.0,0.0,0.0,0.0,0.0,0.0,0.0,0.0,0.0,0.0,0.0,0.0,0.0,0.0,0.0,0.0,0.0,0.0,0.0,0.0,0.0,0.0,0.0,0.0,2.2618,2.2838,2.2969,2.2969,2.3057,2.3091,2.314,2.3997,2.4414,2.4482,2.5323,2.5693,2.5693,2.5693,2.5693,2.5693,2.5693,2.5693,2.5693,0.0,2.2538,0.0,0.0,2.3932,0.0,2.4968,2.569,2.6149,2.6149,2.6149,2.6278,2.6554,2.6591,2.6591,2.6591,2.6591,2.6591,2.6591,2.6591,2.6591,2.6591,2.6188,2.5718,2.5041,2.3831,2.24,0.0,1.9253,0.0,0.0,0.0,0.0,0.0,0.0,0.0,0.0,0.0,2.2016,2.2593,2.3233,2.3544,2.3703,2.4131,2.4251,2.4251,2.435,2.435,2.4304,2.3922,2.3457,2.3032,2.3032,2.2977,2.284,2.2594,2.2493,2.2456,2.2105,2.2003,2.1976,2.1803,2.1785,2.1776,2.1687,2.1696,2.1696,2.1696,2.1741,2.1745,2.159,2.0938,0.0,0.0,0.0,0.0,0.0,0.0,0.0,0.0,0.0,0.0,0.0,0.0,0.0,0.0,0.0,0.0,1.4568,1.5854,1.725,0.0,0.0,2.1012,2.1945,0.0,2.2795,2.2891,2.3013,2.3091,2.3091,2.3091,2.3091,2.314,2.3997,2.4521,2.4746,2.5401,2.5693,2.5693,2.5693,2.5693,2.5693,2.5693,2.5693,2.5693,0.0,0.0,0.0,0.0,0.0,0.0,2.5846,2.6233,2.6527,2.6527,2.6527,2.6545,2.6582,2.6591,2.6591,2.6591,2.6591,2.6591,2.6591,2.6591,2.6591,2.6591,2.6188,2.5975,2.5901,2.4716,2.3419,0.0,0.0,1.8944,0.0,0.0,0.0,0.0,0.0,0.0,0.0,2.1485,2.2346,2.3389,2.3462,2.3767,2.4146,2.4372,2.4489,2.448,2.4735,2.4833,2.4833,2.4786,2.4163,2.3444,2.3444,2.3197,2.2942,2.3159,2.3196,2.315,2.3032,2.2964,2.2825,2.219,2.2052,2.2008,2.1785,2.1696,2.1696,2.1696,2.1874,2.2019,2.1815,2.1688,2.1565,0.0,0.0,0.0,0.0,0.0,0.0,0.0,0.0,0.0,0.0,0.0,0.0,0.0,0.0,0.0,1.4298,1.5718,1.7259,1.892,0.0,2.119,2.2415,2.2506,2.2721,2.3057,2.3101,2.3091,2.3091,2.3091,2.3091,2.314,2.3997,2.4873,2.5577,2.5654,2.5693,2.5693,2.5693,2.5693,2.5693,2.5693,2.5693,2.5693,0.0,0.0,0.0,0.0,0.0,0.0,0.0,2.7031,2.7297,2.7297,2.6885,2.6591,2.6591,2.6591,2.6591,2.6591,2.6591,2.6591,2.6591,2.6591,2.6591,2.6591,2.6426,2.6269,2.6021,2.5304,2.428,0.0,0.0,0.0,0.0,0.0,0.0,0.0,0.0,2.0649,2.1504,2.2391,2.305,2.3565,2.395,2.4193,2.439,2.4637,2.4735,2.4735,2.4883,2.4883,2.4883,2.4883,2.4632,2.4296,2.414,2.4087,2.4055,2.3755,2.3776,2.3834,2.3549,2.3301,2.3028,2.2777,2.2497,2.2264,2.2132,2.2132,2.2132,2.2132,2.2309,2.2482,2.2408,2.2299,2.2196,0.0,0.0,0.0,0.0,0.0,0.0,0.0,0.0,0.0,0.0,0.0,0.0,0.0,0.0,0.0,0.0,1.5638,0.0,1.8346,0.0,2.1114,2.2129,2.2637,2.2925,2.3091,2.3091,2.3091,2.3091,2.3091,2.3374,2.3881,2.4268,2.4865,2.5693,2.5693,2.5693,2.5693,2.5693,2.5693,2.5693,2.5693,2.5781,2.5965,2.5628,0.0,2.5947,0.0,2.6738,2.7031,2.7306,2.7647,2.7822,2.7822,2.7335,2.694,2.694,2.694,2.694,2.694,2.683,2.6765,2.6765,2.6655,2.6591,2.6591,2.6591,0.0,2.6205,2.58,2.506,2.4079,2.2821,0.0,0.0,0.0,0.0,0.0,2.1034,2.1759,2.2282,2.3133,2.3611,2.3837,2.4319,2.4538,2.4637,2.4932,2.503,2.5039,2.5088,2.5137,2.5137,2.5137,2.5137,2.5079,2.4735,2.4735,2.4826,2.4436,2.4457,2.4507,2.422,2.3886,2.3599,2.3259,2.2929,2.2628,2.2416,2.2397,2.2441,2.2485,2.2671,2.2803,2.2882,2.277,2.2695,2.2695,0.0,0.0,0.0,0.0,0.0,0.0,1.7291,1.6239,1.5078,0.0,0.0,0.0,0.0,0.0,0.0,0.0,0.0,0.0,0.0,0.0,2.1875,2.2598,2.2974,2.3091,2.3091,2.3091,2.3101,2.3227,2.373,2.4424,2.4551,2.5086,2.583,2.583,2.583,2.583,2.583,2.5781,2.5684,2.5781,2.5965,2.6245,2.6417,2.6573,2.682,2.7666,2.7803,2.7813,2.7813,2.7822,2.7822,2.7822,2.7813,2.7803,2.7803,2.7803,2.7803,2.7803,2.7398,2.7169,2.7169,2.6802,2.6591,0.0,0.0,2.6591,2.6582,2.6223,2.581,2.5405,0.0,0.0,2.2227,0.0,2.13,2.1678,2.208,2.2712,2.3471,2.3489,2.3864,2.448,2.448,2.4686,2.4932,2.5186,2.5284,2.5342,2.5586,2.5684,2.5684,2.5684,2.5684,2.5586,2.5088,2.4883,2.4932,2.5226,2.5284,2.5276,2.5138,2.5059,2.4797,2.3676,2.3374,2.3204,2.2536,2.2397,2.2485,2.2759,2.2803,2.2838,2.3057,2.3091,2.3091,2.3091,0.0,0.0,0.0,0.0,0.0,0.0,1.7477,1.6356,1.5488,0.0,0.0,0.0,0.0,0.0,0.0,0.0,0.0,1.8559,1.9893,0.0,2.1875,2.2305,2.2734,2.3091,2.3091,2.3091,2.311,2.3584,2.4014,2.4443,2.4873,2.5456,2.61,2.61,2.61,2.61,2.61,2.5917,2.5732,2.6004,2.6245,2.6544,2.7399,2.7445,2.762,2.8104,2.8196,2.8287,2.8553,2.8599,2.8599,2.8599,2.8599,2.8599,2.8599,2.8152,2.7822,0.0,2.7711,2.7638,0.0,2.7205,2.6985,2.6985,2.6738,2.6591,2.6591,2.6454,2.6188,2.5828,0.0,0.0,0.0,2.3308,2.3301,2.34,2.3813,2.4233,2.4681,2.4978,2.5316,2.5673,2.5876,2.5987,2.6088,2.635,2.6451,2.6412,2.6239,2.6182,2.6133,2.5791,2.5693,2.5684,2.5489,2.544,2.544,2.5342,2.544,2.5557,2.5518,2.5303,2.4932,2.4263,2.3868,2.3538,2.3022,2.2882,2.2882,2.3013,2.3013,2.3013,2.3101,2.3091,2.3091,2.3091,2.2549,0.0,0.0,0.0,0.0,0.0,1.7773,1.707,0.0,1.6484,0.0,0.0,0.0,0.0,0.0,0.0,0.0,0.0,2.0342,0.0,2.2305,2.2734,2.2964,2.3091,2.3091,2.3091,2.311,2.3594,2.4014,2.4443,2.5071,2.5752,2.64,2.6582,2.6716,2.6849,2.6716,2.6668,2.6716,2.6812,2.7146,2.7573,2.8024,2.8003,2.8132,2.8544,2.8618,2.87,2.8948,2.8984,2.8984,2.8984,2.8984,2.8984,2.8984,2.8526,0.0,2.8281,2.8086,2.8003,2.8003,2.7627,2.7454,2.7454,2.7022,2.6811,2.6811,2.6664,0.0,2.6251,2.5846,2.5304,2.4661,2.4661,2.4661,2.467,2.4886,2.5149,2.5456,2.5675,2.5985,2.6378,2.6541,2.6644,2.6756,2.6961,2.7012,2.6982,2.6719,2.6621,2.6582,2.6309,2.6171,2.6142,2.6035,2.5977,2.5898,2.5537,2.5586,2.5693,2.5693,2.5527,2.5215,2.4766,2.4336,2.3867,2.3227,2.3091,2.3091,2.3091,2.3091,2.3091,2.3091,2.3091,2.3091,2.3091,2.2568,2.207,2.1904,0.0,0.0,0.0,0.0,0.0,0.0,1.7574,1.7666,0.0,0.0,0.0,0.0,0.0,0.0,1.9783,2.1035,2.1931,2.251,2.2886,2.3091,2.3091,2.3188,2.3398,2.3619,2.4108,2.4578,2.5142,2.5826,2.651,2.7061,2.7336,2.7526,2.762,2.7526,2.7478,2.7515,2.762,2.7987,2.8491,2.8361,2.8434,2.8553,0.0,2.8984,0.0,2.8984,2.8984,2.8984,2.8984,2.8984,2.8984,2.8984,2.8984,2.8984,2.8984,0.0,0.0,0.0,2.804,2.7868,2.7868,2.7482,2.7215,2.7215,2.6885,2.6673,2.6646,2.6304,2.5918,2.5558,2.5558,2.5558,2.5558,2.5558,2.5663,2.5932,2.5932,2.6225,2.6731,2.6731,2.6894,2.71,2.71,2.71,2.71,2.707,2.706,2.7051,2.7021,2.7012,2.6943,2.6553,2.6435,2.6338,2.583,2.5693,2.5693,2.5693,2.5693,2.5586,2.5176,2.4746,2.4199,2.3325,2.314,2.313,2.3101,2.3091,2.3091,2.3091,2.3091,2.3081,2.3052,2.2744,2.2324,2.1904,0.0,0.0,0.0,0.0,0.0,0.0,1.8789,1.8905,0.0,0.0,0.0,0.0,0.0,2.0302,2.0683,2.1865,2.2519,2.2559,2.2949,2.3144,2.3188,2.345,2.3897,2.4569,2.5023,2.564,2.629,2.6987,2.7563,2.8081,2.8384,2.8488,2.8535,2.8488,2.8384,2.8175,2.843,2.8828,2.9268,0.0,0.0,2.8874,2.8966,2.8984,2.8984,2.8984,2.8984,2.8984,2.8984,2.8984,2.8984,2.8984,2.8984,2.8984,2.8984,2.8893,2.8847,2.8847,2.8462,2.8251,2.8251,2.7847,2.7684,2.7684,2.7465,2.7325,2.7215,2.7121,2.7018,2.6924,2.6924,2.6924,2.6924,2.6924,2.7084,2.7395,2.7395,2.7608,2.7882,2.7882,2.7935,2.7988,2.7988,2.7988,2.7949,2.7627,2.751,2.7461,2.7129,2.7012,2.6992,2.6894,2.6865,2.6719,2.5908,2.5693,2.5693,2.5693,2.5693,2.5586,2.5176,2.4746,2.4277,2.376,2.3633,2.3545,2.3169,2.3091,2.3091,2.3091,2.3091,2.2994,2.2672,2.2305,2.1885,2.1445,2.0625,0.0,0.0,1.9941,1.9835,2.0518,2.0456,2.065,0.0,0.0,0.0,0.0,2.2015,2.2012,2.1623,2.2187,2.2666,2.2945,2.327,2.359,2.3937,2.4176,2.453,2.5036,2.5533,2.6123,2.6846,2.7504,2.8211,2.8852,2.9106,2.9439,2.976,2.9555,2.9555,2.9703,2.976,2.9977,3.0295,2.8984,2.8984,2.8984,2.8984,2.8984,2.8984,2.8984,2.8984,2.8984,2.8984,2.8984,2.8984,2.8984,2.8984,2.8984,2.8984,2.8984,2.8984,2.8984,2.8783,2.8663,2.8663,2.8269,2.8107,2.826,2.7995,2.7809,2.7716,2.7716,2.7621,2.7377,2.7377,2.7377,2.7377,2.7377,2.7593,2.7906,2.7906,2.8067,2.8291,2.8291,2.8291,2.8291,2.8291,2.8291,2.8262,2.8037,2.7949,2.792,2.7676,2.7598,2.7568,2.7373,2.7314,2.7178,2.6514,2.6132,2.5986,2.5742,2.5693,2.5586,2.5176,2.4893,2.46,2.417,2.3926,2.3721,2.3486,2.3227,2.3091,2.3091,2.3091,2.2955,2.2578,2.2158,2.1738,2.1259,2.0781,0.0,2.1026,2.0987,2.1204,2.1768,2.182,2.2099,2.2757,2.2805,0.0,2.3238,2.3504,2.3243,2.2397,2.2758,2.3169,2.358,2.397,2.4305,2.4658,2.5113,2.5623,2.6188,2.67,2.735,2.818,2.8683,2.9198,2.9829,3.0091,3.0329,3.0544,3.0397,3.0454,3.0556,3.0556,3.0724,3.0949,2.8984,2.8984,2.8984,2.8984,2.8984,2.8984,2.8984,2.8984,2.8984,2.8984,2.8984,2.8984,2.8984,2.8984,2.8984,2.8984,2.8984,2.8984,2.8984,2.8984,2.8984,2.8984,2.8663,2.8597,2.8802,2.8527,2.8343,2.8317,2.8317,2.8136,2.772,2.7653,2.7634,2.7625,2.7558,2.7691,2.796,2.796,2.8067,2.8291,2.8291,2.8291,2.8291,2.8291,2.8291,2.8291,2.8291,2.8291,2.8291,2.8291,2.8291,2.8232,2.7924,2.7816,2.7676,2.7236,2.6855,2.6475,2.5977,2.5732,2.5596,2.5264,2.5166,2.5059,2.4619,2.4238,2.3945,2.3818,2.3496,2.3169,2.311,2.3091,2.2955,2.2578,2.2158,2.1758,2.1346,0.0,2.139,2.1789,2.2188,2.2571,2.2899,2.3166,2.3431,2.3796,2.4049,2.4352,2.4614,2.4635,2.4231,2.334,2.3564,2.3937,2.4368,2.4861,2.5232,2.5519,2.6216,2.6911,2.7657,2.8109,2.8788,2.9669,2.992,3.0284,3.0713,3.096,3.1062,3.1118,3.1118,3.1118,3.1118,3.1118,3.1229,3.135,2.8984,2.8984,2.8984,2.8984,2.8984,2.8984,2.8984,2.8984,2.8984,2.8984,2.8984,2.8984,2.8984,2.8984,2.8984,2.8984,2.8984,2.8984,2.8984,2.8984,2.8984,2.8984,2.892,2.8952,2.8943,2.9081,2.9241,2.9361,2.9361,2.9322,2.9254,2.883,2.8655,2.8645,2.8286,2.8184,2.8237,2.8237,2.8237,2.8291,2.8291,2.8291,2.8291,2.8291,2.8291,2.8291,2.8291,2.8291,2.8291,2.8291,2.8291,2.8281,2.8223,2.8193,2.8115,2.7695,2.7571,2.7346,2.6504,2.6016,2.5674,2.5596,2.5635,2.5518,2.5068,2.4959,2.4715,2.3935,2.374,2.3574,2.3159,2.3091,2.2955,2.2578,2.2158,2.1865,2.1797,0.0,2.1889,2.2853,2.3359,2.3888,2.4482,2.4893,2.5102,2.5186,2.5458,2.5532,2.5335,2.5335,2.5251,2.5094,2.4819,2.4861,2.5285,2.5779,2.6312,2.6975,2.7476,2.8254,2.9155,2.9235,2.9689,3.0442,3.0487,3.0769,3.1172,3.1217,3.1407,3.1572,3.1572,3.1572,3.1572,3.1572,3.1617,3.1617,2.9213,2.9103,2.8984,2.8984,2.8984,2.8984,2.8984,2.8984,2.8984,2.8984,2.8984,2.8984,2.8984,2.8984,2.8984,2.8984,2.8984,2.9103,2.9272,2.9103,2.8984,2.8984,2.8984,2.9163,2.945,2.9927,3.0074,2.9902,2.9902,2.9795,2.9626,2.9365,2.9268,2.9248,2.8818,2.8633,2.8613,2.8389,2.8291,2.8291,2.8291,2.8291,2.8291,2.8291,2.8291,2.8291,2.8291,2.8291,2.8291,2.8291,2.8291,2.8291,2.8291,2.8291,2.8252,2.8057,2.7519,2.6894,2.6494,2.6074,2.5693,2.5693,2.5693,2.5635,2.5478,2.5244,2.5008,2.456,2.4434,2.4185,2.3742,2.3894,2.3851,2.315,2.3006,0.0,0.0,2.2666,2.3074,2.367,2.4347,2.4997,2.5547,2.5999,2.629,2.6404,2.6622,2.6704,2.6569,2.6569,2.6528,2.6445,2.5988,2.5904,2.626,2.6693,2.7231,2.7859,2.8472,2.9165,2.9899,3.0202,3.0547,3.0982,3.0982,3.116,3.1528,3.1528,3.1572,3.1705,3.1705,3.1705,3.1705,3.1705,3.1705,3.1705,2.9568,2.939,2.9213,2.9213,2.9213,2.9213,2.9213,2.9213,2.9213,2.9213,2.9213,2.9213,2.9213,2.9213,2.9213,2.9213,2.9213,2.9331,2.9568,2.9331,2.9213,2.9213,2.9213,2.945,2.9981,3.0528,3.0655,3.0361,3.0361,3.0195,2.9873,2.9766,2.9717,2.9697,2.9258,2.9072,2.9053,2.8721,2.8584,2.8584,2.8476,2.8437,2.8428,2.833,2.8291,2.8291,2.8291,2.8291,2.8291,2.8291,2.8291,2.8291,2.8291,2.8291,2.8291,2.8291,2.7529,2.666,2.6562,2.6221,2.584,2.584,2.5762,2.5693,2.5693,2.5517,2.5328,2.5277,2.5179,2.5041,2.4671,2.4842,2.4854,2.4165,0.0,0.0,0.0,2.3846,2.4251,2.4554,2.5311,2.5999,2.6393,2.688,2.7219,2.736,2.7522,2.7603,2.7603,2.7603,2.7522,2.7429,2.6981,2.6869,2.7138,2.7609,2.8117,2.8642,2.9411,3.0016,3.058,3.0962,3.1241,3.1395,3.1395,3.1528,3.1705,3.1705,3.1705,3.1705,3.1705,3.1705,3.1705,3.1705,3.1705,3.1705,2.9863,2.9863,2.9804,2.9804,2.9804,2.9804,2.9804,2.9804,2.9804,2.9804,2.9804,2.9804,2.9804,2.9804,2.9804,2.9804,2.9804,2.9863,2.9863,2.9863,2.9804,2.9804,2.9804,2.9981,3.0333,3.0392,3.0558,3.084,3.084,3.082,3.0781,3.0351,3.0156,3.0137,2.9707,2.9521,2.9521,2.9548,2.9473,2.9443,2.9033,2.8877,2.8828,2.8437,2.8291,2.8291,2.8291,2.8291,2.8291,2.8291,2.8291,2.8291,2.8291,2.8291,2.8291,2.8291,2.7949,2.748,2.708,2.666,2.6338,2.6338,2.6035,2.5693,2.5693,2.5887,2.598,2.5772,2.5922,2.6131,2.6121,2.5792,2.5576,2.5688,0.0,0.0,2.4998,2.493,2.5081,2.5712,2.6393,2.688,2.7103,2.7545,2.7852,2.7841,2.7841,2.7881,2.7881,2.7881,2.795,2.8139,2.7684,2.7574,2.78,2.8544,2.9178,2.9682,3.045,3.1096,3.1613,3.1649,3.1673,3.1661,3.1661,3.1661,3.1705,3.1705,3.1705,3.1705,3.1705,3.1705,3.1705,3.1705,3.1705,3.1705,3.0157,3.0039,2.9922,2.9922,2.9922,2.9922,2.9922,2.9922,2.9922,2.9922,2.9922,2.9922,2.9922,2.9922,2.9922,2.9922,2.9922,2.9981,3.0216,3.0216,3.0098,2.9922,3.0098,3.0274,3.0382,3.0577,3.0762,3.0889,3.0889,3.0889,3.0889,3.0713,3.0625,3.0605,3.0156,2.9961,2.9941,2.9734,2.9626,2.956,2.9385,2.9316,2.9307,2.9141,2.9082,2.9082,2.9082,2.8906,2.8682,2.8682,2.8506,2.8291,2.8291,2.8291,2.8291,2.8291,2.8174,2.8018,2.7851,2.7305,2.6709,2.6455,2.6269,2.6114,2.5976,2.6159,2.6388,2.6635,2.7019,2.734,2.7366,2.7499,2.7459,2.7069,0.0,2.6568,2.6271,2.63,2.6438,2.667,2.7208,2.7586,2.7805,2.8099,2.8271,2.8271,2.8271,2.8271,2.8271,2.8271,2.8311,2.8379,2.854,2.8666,2.876,2.9032,2.96,3.0505,3.0783,3.1199,3.1705,3.1705,3.1705,3.1705,3.1705,3.1705,3.1705,3.1705,3.1705,3.1705,3.1705,3.1705,3.1705,3.1705,3.1705,3.1705,3.0509,3.0343,3.0225,3.0225,3.0225,3.0225,3.0225,3.0225,3.0225,3.0225,3.0225,3.0225,3.0225,3.0225,3.0225,3.0225,3.0225,3.0284,3.0518,3.0577,3.046,3.0225,3.046,3.0577,3.0577,3.0762,3.0889,3.0889,3.0889,3.0889,3.0889,3.0889,3.0889,3.0879,3.0557,3.042,3.0391,3.0107,2.998,2.9971,2.9824,2.9766,2.9756,2.9675,2.9626,2.9626,2.9626,2.9375,2.9121,2.9121,2.8935,2.8672,2.8535,2.8398,2.8291,2.8291,2.8291,2.8291,2.8291,2.7861,2.7314,2.6894,2.6582,2.6398,2.6417,2.6587,2.6918,2.7563,2.8081,2.8544,2.8788,2.897,2.8965,2.8551,2.8468,2.8221,2.7571,2.7573,2.7626,2.7423,2.7748,2.803,2.8179,2.8379,2.851,2.851,2.851,2.8582,2.8751,2.8751,2.8835,2.9003,2.9352,2.9629,2.9797,2.9797,3.0158,3.0922,3.1091,3.1356,3.1705,3.1705,3.1705,3.1705,3.1705,3.1705,3.1705,3.1705,3.1705,3.1705,3.1705,3.1705,3.1705,3.1705,3.1705,3.1705,3.0889,3.0889,3.0889,3.0889,3.0889,3.0889,3.0889,3.0889,3.0889,3.0889,3.0889,3.0889,3.0889,3.0889,3.0889,3.0889,3.0889,3.0889,3.0889,3.0889,3.0889,3.0889,3.0889,3.0889,3.0889,3.0889,3.0889,3.0889,3.0889,3.0889,3.0889,3.0889,3.0889,3.0889,3.0889,3.0889,3.0889,3.0889,3.0889,3.085,3.0391,3.0205,3.0156,2.9736,2.9636,2.9636,2.9636,2.9636,2.957,2.957,2.9626,2.9492,2.9062,2.8633,2.8301,2.8301,2.8291,2.8291,2.8291,2.8291,2.8193,2.7826,2.7031,2.6546,2.7002,2.7138,2.7515,2.8491,2.9152,2.9715,3.0476,3.0159,2.991,3.0161,2.9781,2.9275,2.8781,2.8698,2.851,2.7951,2.8082,2.8219,2.8219,2.8379,2.851,2.851,2.851,2.8751,2.928,2.9304,2.9544,3.0074,3.0098,3.035,3.091,3.0922,3.0922,3.0891,3.1452,3.1705,3.1705,3.1705,3.1705,3.1705,3.1705,3.1705,3.1705,3.1705,3.1705,3.1705,3.1705,3.1705,3.1705,3.1705,3.1705,3.1705,3.0889,3.0889,3.0889,3.0889,3.0889,3.0889,3.0889,3.0889,3.0889,3.0889,3.0889,3.0889,3.0889,3.0889,3.0889,3.0889,3.0889,3.0889,3.0889,3.0889,3.0889,3.0889,3.0889,3.0889,3.0889,3.0889,3.0889,3.0889,3.0889,3.0889,3.0889,3.0889,3.0889,3.0889,3.0889,3.0889,3.0889,3.0889,3.0889,3.0879,3.0742,3.0684,3.0674,3.0547,3.0498,3.0498,3.0498,3.0283,3.001,3.001,2.9814,2.9607,2.9414,2.9082,2.873,2.873,2.8525,2.8344,2.8514,2.8568,2.8416,2.7826,2.7668,2.7638,2.7824,2.8087,2.8535,2.9532,2.9859,3.0216,3.0949,3.0953,3.0817,3.0711,3.0563,3.0288,2.9762,2.969,2.9487,2.8973,2.8942,2.8838,2.8467,2.8471,2.851,2.851,2.8859,2.9292,2.9821,2.9845,2.9917,3.0074,3.0446,3.0766,3.0922,3.0922,3.1103,3.1476,3.1633,3.1705,3.1705,3.1705,3.1705,3.1705,3.1705,3.1705,3.1705,3.1705,3.1705,3.1705,3.1705,3.1705,3.1705,3.1705,3.1705,3.1705,3.0889,3.0889,3.0889,3.0889,3.0889,3.0889,3.0889,3.0889,3.0889,3.0889,3.0889,3.0889,3.0889,3.0889,3.0889,3.0889,3.0889,3.0889,3.0889,3.0889,3.0889,3.0889,3.0889,3.0889,3.0889,3.0889,3.0889,3.0889,3.0889,3.0889,3.0889,3.0889,3.0889,3.0889,3.0889,3.0889,3.0889,3.0889,3.0889,3.0889,3.0889,3.0889,3.0889,3.0889,3.0889,3.0889,3.0889,3.0713,3.0469,3.0469,3.0185,2.9824,2.9824,2.9521,2.918,2.918,2.8996,2.877,2.9039,2.9166,2.9124,2.8862,2.8599,2.849,2.8888,2.9208,2.9685,3.0458,3.0825,3.1048,3.1386,3.1439,3.1432,3.124,3.1235,3.1043,3.047,3.0398,3.0206,2.9677,2.9617,2.9484,2.916,2.9136,2.9136,2.9136,2.9436,2.9845,3.0374,3.0398,3.0494,3.0742,3.1067,3.1235,3.1235,3.1235,3.1392,3.1705,3.1705,3.1705,3.1705,3.1705,3.1705,3.1705,3.1705,3.1705,3.1705,3.1705,3.1705,3.1705,3.1705,3.1705,3.1705,3.1705,3.1705,3.1705,3.0889,3.0889,3.0889,3.0889,3.0889,3.0889,3.0889,3.0889,3.0889,3.0889,3.0889,3.0889,3.0889,3.0889,3.0889,3.0889,3.0889,3.0889,3.0889,3.0889,3.0889,3.0889,3.0889,3.0889,3.0889,3.0889,3.0889,3.0889,3.0889,3.0889,3.0889,3.0889,3.0889,3.0889,3.0889,3.0889,3.0889,3.0889,3.0889,3.0889,3.0889,3.0889,3.0889,3.0889,3.0889,3.0889,3.0889,3.0889,3.0889,3.0889,3.0605,3.0264,3.0264,2.9971,2.9685,2.9685,2.9613,2.9595,2.987,3.0071,3.0266,3.0495,2.9911,2.9445,3.0077,3.0482,3.0874,3.1343,3.1819,3.2086,3.1841,3.1789,3.1765,3.1717,3.1705,3.1536,3.1055,3.0995,3.0747,3.0218,3.0158,3.0146,3.0098,3.0086,3.011,3.0158,3.0158,3.0386,3.0958,3.0995,3.1211,3.1693,3.1705,3.1705,3.1705,3.1705,3.1705,3.1705,3.1705,3.1705,3.1705,3.1705,3.1705,3.1705,3.1705,3.1705,3.1705,3.1705,3.1705,3.1705,3.1705,3.1705,3.1705,3.1705,3.1705,3.1705,3.0889,3.0889,3.0889,3.0889,3.0889,3.0889,3.0889,3.0889,3.0889,3.0889,3.0889,3.0889,3.0889,3.0889,3.0889,3.0889,3.0889,3.0889,3.0889,3.0889,3.0889,3.0889,3.0889,3.0889,3.0889,3.0889,3.0889,3.0889,3.0889,3.0889,3.0889,3.0889,3.0889,3.0889,3.0889,3.0889,3.0889,3.0889,3.0889,3.0889,3.0889,3.0889,3.0889,3.0889,3.0889,3.0889,3.0889,3.0889,3.0889,3.0889,3.082,3.0742,3.0742,3.043,3.0125,3.0372,3.0504,3.0622,3.076,3.1317,3.1828,3.1706,3.1825,3.1849,3.1364,3.1534,3.1905,3.2455,3.2665,3.2635,3.2361,3.2322,3.2178,3.1777,3.1705,3.1669,3.1548,3.1536,3.1344,3.0814,3.0742,3.0543,3.0122,3.0086,3.0254,3.0675,3.0742,3.0983,3.1512,3.1536,3.1585,3.1705,3.1705,3.1705,3.1705,3.1705,3.1705,3.1705,3.1705,3.1705,3.1705,3.1705,3.1705,3.1705,3.1705,3.1705,3.1705,3.1705,3.1705,3.1705,3.1705,3.1705,3.1705,3.1705,3.1705,3.1705,3.0889,3.0889,3.0889,3.0889,3.0889,3.0889,3.0889,3.0889,3.0889,3.0889,3.0889,3.0889,3.0889,3.0889,3.0889,3.0889,3.0889,3.0889,3.0889,3.0889,3.0889,3.0889,3.0889,3.0889,3.0889,3.0889,3.0889,3.0889,3.0889,3.0889,3.0889,3.0889,3.0889,3.0889,3.0889,3.0889,3.0889,3.0889,3.0889,3.0889,3.0889,3.0889,3.0889,3.0889,3.0889,3.0889,3.0889,3.0889,3.0889,3.0889,3.0889,3.0889,3.0889,3.0839,3.0805,3.1264,3.1508,3.1808,3.2437,3.2783,3.3001,3.3101,3.3257,3.3235,3.2521,3.268,3.3082,3.325,3.3351,3.3324,3.2971,3.2671,3.2406,3.2118,3.1886,3.1705,3.1705,3.1705,3.1609,3.1332,3.1296,3.1187,3.091,3.0874,3.0995,3.1271,3.1296,3.1416,3.1693,3.1705,3.1705,3.1705,3.1705,3.1705,3.1705,3.1705,3.1705,3.1705,3.1705,3.1705,3.1705,3.1705,3.1705,3.1705,3.1705,3.1705,3.1705,3.1705,3.1705,3.1705,3.1705,3.1705,3.1705,3.1705,3.1705,3.1705,3.0889,3.0889,3.0889,3.0889,3.0889,3.0889,3.0889,3.0889,3.0889,3.0889,3.0889,3.0889,3.0889,3.0889,3.0889,3.0889,3.0889,3.0889,3.0889,3.0889,3.0889,3.0889,3.0889,3.0889,3.0889,3.0889,3.0889,3.0889,3.0889,3.0889,3.0889,3.0889,3.0889,3.0889,3.0889,3.0889,3.0889,3.0889,3.0889,3.0889,3.0889,3.0889,3.0889,3.0889,3.0889,3.0889,3.0889,3.0889,3.0889,3.0947,3.0947,3.1005,3.1112,3.1334,3.1672,3.2285,3.2688,3.3197,3.4097,3.4245,3.4222,3.4446,3.446,3.4219,3.3633,3.377,3.4021,3.385,3.3995,3.397,3.3513,3.3068,3.2731,3.2647,3.2166,3.1849,3.1849,3.1765,3.1705,3.1705,3.1705,3.1705,3.1705,3.1705,3.1705,3.1705,3.1705,3.1705,3.1705,3.1705,3.1705,3.1705,3.1705,3.1705,3.1705,3.1705,3.1705,3.1705,3.1705,3.1705,3.1705,3.1705,3.1705,3.1705,3.1705,3.1705,3.1705,3.1705,3.1705,3.1705,3.1705,3.1705,3.1705,3.1705,3.1705,3.1705,3.0889,3.0889,3.0889,3.0889,3.0889,3.0889,3.0889,3.0889,3.0889,3.0889,3.0889,3.0889,3.0889,3.0889,3.0889,3.0889,3.0889,3.0889,3.0889,3.0889,3.0889,3.0889,3.0889,3.0889,3.0889,3.0889,3.0889,3.0889,3.0889,3.0889,3.0889,3.0889,3.0889,3.0889,3.0889,3.0889,3.0889,3.0889,3.0889,3.0889,3.0889,3.0889,3.0889,3.0889,3.0889,3.0889,3.0889,3.0889,3.0947,3.116,3.1276,3.1325,3.1835,3.2227,3.2628,3.3243,3.4146,3.5012,3.4978,3.564,3.6164,3.5292,3.5258,3.524,3.4724,3.4482,3.4323,3.4301,3.4521,3.451,3.3982,3.3838,3.3646,3.326,3.2731,3.2382,3.2382,3.1973,3.1705,3.1705,3.1705,3.1705,3.1705,3.1705,3.1705,3.1705,3.1705,3.1705,3.1705,3.1705,3.1705,3.1705,3.1705,3.1705,3.1705,3.1705,3.1705,3.1705,3.1705,3.1705,3.1705,3.1705,3.1705,3.1705,3.1705,3.1705,3.1705,3.1705,3.1705,3.1705,3.1705,3.1705,3.1705,3.1705,3.1705,3.1705,3.0889,3.0889,3.0889,3.0889,3.0889,3.0889,3.0889,3.0889,3.0889,3.0889,3.0889,3.0889,3.0889,3.0889,3.0889,3.0889,3.0889,3.0889,3.0889,3.0889,3.0889,3.0889,3.0889,3.0889,3.0889,3.0889,3.0889,3.0889,3.0889,3.0889,3.0889,3.0889,3.0889,3.0889,3.0889,3.0889,3.0889,3.0889,3.0889,3.0889,3.0889,3.0889,3.0889,3.0889,3.0889,3.0889,3.1054,3.1218,3.145,3.172,3.1998,3.2332,3.2618,3.3073,3.3572,3.4357,3.5091,3.5761,3.6325,3.6667,3.6704,3.641,3.5949,3.5557,3.5328,3.4942,3.4628,3.4628,3.4726,3.4715,3.4474,3.4186,3.3922,3.3694,3.3272,3.2947,3.2947,3.2478,3.2066,3.1753,3.1705,3.1705,3.1705,3.1705,3.1705,3.1705,3.1705,3.1705,3.1705,3.1705,3.1705,3.1705,3.1705,3.1705,3.1705,3.1705,3.1705,3.1705,3.1705,3.1705,3.1705,3.1705,3.1705,3.1705,3.1705,3.1705,3.1705,3.1705,3.1705,3.1705,3.1705,3.1705,3.1705,3.1705,3.1705,3.1705]}]]